Darstellungsparameter: Aktuell verwendete Einstellungen:
Skalierung der Graphiken ... ?
xyx+y,   Skalierungsfaktor:      Skalierung: Modus: x, Faktor: 1
Darstellungszeitraum ... ?
Vom - - bis: - -   Zeitraum: 02.12.2013 - 01.06.2014
Min/Max/Avg-Anzeige ... ?
Zeige MMA aktuell
Zeige MMA Monat
Zeige MMA alles
Zeige --A aktuell
Zeige --A Monat
Zeige --A alles
Keine MMA-Anzeige
MMA:
Keine MMA-Graphiken
MMA-Basis: 02.12.2013 - 01.06.2014
Quicknavigation für Darstellung... ?
Tage:      1T, 2T, 3T, 5T -1T -2T -3T -5T +1T +2T +3T +5T
Wochen: 1W, 2W, 3W -1W -2W -3W +1W +2W +3W
Monate: 1M, 3M, 6M -1M -3M -6M +1M +3M +6M
Jahre:    1J, 3J, 5J, 10J -1J -3J -5J -10J +1J +3J +5J +10J
Nutze für die Darstellung ... ?
Originaldaten oder ...
Mittelwerte Minima Maxima auf...
Stundenbasis Tagesbasis Wochenbasis
Monatsbasis Jahresbasis      Datenbasis: Mittelwerte auf Stundenbasis
Darstellen als:
Statistik (Auto) Statistik J:M      Darstellung:
Zur Graphik,    zurück zur Übersicht aller Sensoren.
 
Tabellarische Datenbersicht: ?
 
Sensor: Nr:Datum:Temp:Abs-Feuchte:Windchill:Wind:
Aussen-T/F 1 02-12-2013 00:00:00 5.71667 C 6.9 g/m*3 5.72 C 0 km/h
2 02-12-2013 01:00:00 5.69167 C 6.9 g/m*3 5.69 C 0.26667 km/h
3 02-12-2013 02:00:00 5.76667 C 6.93 g/m*3 5.77 C 0.66667 km/h
4 02-12-2013 03:00:00 5.88333 C 6.99 g/m*3 5.88 C 0.13333 km/h
5 02-12-2013 04:00:00 5.76667 C 6.93 g/m*3 5.77 C 0 km/h
6 02-12-2013 05:00:00 5.66667 C 6.89 g/m*3 5.67 C 0 km/h
7 02-12-2013 06:00:00 5.58333 C 6.85 g/m*3 5.58 C 0 km/h
8 02-12-2013 07:00:00 5.38333 C 6.76 g/m*3 5.38 C 0 km/h
9 02-12-2013 08:00:00 5.35833 C 6.7 g/m*3 5.36 C 0 km/h
10 02-12-2013 09:00:00 5.94167 C 6.87 g/m*3 5.94 C 0 km/h
11 02-12-2013 10:00:00 6.61667 C 6.66 g/m*3 6.62 C 2.80833 km/h
12 02-12-2013 11:00:00 5.68333 C 6.37 g/m*3 5.68 C 2.8 km/h
13 02-12-2013 12:00:00 6.43333 C 6.37 g/m*3 6.43 C 3.33333 km/h
14 02-12-2013 13:00:00 6.74167 C 6.42 g/m*3 5.93 C 5.35833 km/h
15 02-12-2013 14:00:00 6.45 C 6.38 g/m*3 6.45 C 2.66667 km/h
16 02-12-2013 15:00:00 5.90833 C 6.28 g/m*3 5.91 C 3.2 km/h
17 02-12-2013 16:00:00 4.98333 C 6.07 g/m*3 4.98 C 2.93333 km/h
18 02-12-2013 17:00:00 4.08333 C 5.79 g/m*3 4.08 C 4 km/h
19 02-12-2013 18:00:00 3.39167 C 5.62 g/m*3 3.39 C 2.8 km/h
20 02-12-2013 19:00:00 2.825 C 5.47 g/m*3 2.83 C 1.86667 km/h
21 02-12-2013 20:00:00 1.96667 C 5.23 g/m*3 1.97 C 0 km/h
22 02-12-2013 21:00:00 1.33333 C 5.04 g/m*3 1.33 C 0.26667 km/h
23 02-12-2013 22:00:00 0.76667 C 4.89 g/m*3 0.77 C 0 km/h
24 02-12-2013 23:00:00 0.40833 C 4.78 g/m*3 0.41 C 0 km/h
25 03-12-2013 00:00:00 0.05833 C 4.67 g/m*3 0.06 C 0.13333 km/h
Sensor: Nr:Datum:Temp:Abs-Feuchte:Windchill:Wind:
Aussen-T/F 26 03-12-2013 01:00:00 -0.19167 C 4.6 g/m*3 -0.19 C 0 km/h
27 03-12-2013 02:00:00 -0.3 C 4.6 g/m*3 -0.3 C 0 km/h
28 03-12-2013 03:00:00 -0.51667 C 4.53 g/m*3 -0.52 C 0.13333 km/h
29 03-12-2013 04:00:00 -1.11667 C 4.35 g/m*3 -1.12 C 0 km/h
30 03-12-2013 05:00:00 -1.5 C 4.23 g/m*3 -1.5 C 0 km/h
31 03-12-2013 06:00:00 -1.73333 C 4.17 g/m*3 -1.73 C 0 km/h
32 03-12-2013 07:00:00 -2.05833 C 4.07 g/m*3 -2.06 C 0.13333 km/h
33 03-12-2013 08:00:00 -2.01667 C 4.08 g/m*3 -2.02 C 0.53333 km/h
34 03-12-2013 09:00:00 -1.85 C 4.13 g/m*3 -1.85 C 0 km/h
35 03-12-2013 10:00:00 -1.575 C 4.21 g/m*3 -1.58 C 0.26667 km/h
36 03-12-2013 11:00:00 -1.23333 C 4.33 g/m*3 -1.23 C 0 km/h
37 03-12-2013 12:00:00 -0.275 C 4.66 g/m*3 -0.28 C 0 km/h
38 03-12-2013 13:00:00 0.45 C 4.9 g/m*3 0.45 C 0 km/h
39 03-12-2013 14:00:00 0.88333 C 5.05 g/m*3 0.88 C 0 km/h
40 03-12-2013 15:00:00 1.10833 C 5.12 g/m*3 1.11 C 0.26667 km/h
41 03-12-2013 16:00:00 0.95 C 5.02 g/m*3 0.95 C 0 km/h
42 03-12-2013 17:00:00 0.4 C 4.83 g/m*3 0.4 C 0.26667 km/h
43 03-12-2013 18:00:00 0.04167 C 4.71 g/m*3 0.04 C 0 km/h
44 03-12-2013 19:00:00 -0.35833 C 4.58 g/m*3 -0.36 C 0 km/h
45 03-12-2013 20:00:00 -0.78333 C 4.45 g/m*3 -0.78 C 0 km/h
46 03-12-2013 21:00:00 -0.75 C 4.47 g/m*3 -0.75 C 0.13333 km/h
47 03-12-2013 22:00:00 0.55833 C 4.93 g/m*3 0.56 C 0.26667 km/h
48 03-12-2013 23:00:00 0.83333 C 5 g/m*3 0.83 C 0.26667 km/h
49 04-12-2013 00:00:00 1.09167 C 5.07 g/m*3 1.09 C 2.68333 km/h
50 04-12-2013 01:00:00 1.175 C 5.05 g/m*3 1.18 C 4.80833 km/h
Sensor: Nr:Datum:Temp:Abs-Feuchte:Windchill:Wind:
Aussen-T/F 51 04-12-2013 02:00:00 1.29167 C 5 g/m*3 -1.36 C 8.475 km/h
52 04-12-2013 03:00:00 1.3 C 4.95 g/m*3 -2.28 C 12.23333 km/h
53 04-12-2013 04:00:00 1.44167 C 4.97 g/m*3 -1.44 C 9.41667 km/h
54 04-12-2013 05:00:00 1.65 C 5.05 g/m*3 -0.09 C 5.90833 km/h
55 04-12-2013 06:00:00 1.75 C 5.13 g/m*3 -0.9 C 8.74167 km/h
56 04-12-2013 07:00:00 2 C 5.21 g/m*3 -0.78 C 9.43333 km/h
57 04-12-2013 08:00:00 2.41667 C 5.31 g/m*3 -0.64 C 10.9 km/h
58 04-12-2013 09:00:00 2.71667 C 5.4 g/m*3 -0.24 C 10.75833 km/h
59 04-12-2013 10:00:00 2.98333 C 5.51 g/m*3 0.56 C 8.74167 km/h
60 04-12-2013 11:00:00 3.29167 C 5.58 g/m*3 0.72 C 9.56667 km/h
61 04-12-2013 12:00:00 3.6 C 5.64 g/m*3 1.47 C 8.075 km/h
62 04-12-2013 13:00:00 3.99167 C 5.72 g/m*3 2.42 C 6.43333 km/h
63 04-12-2013 14:00:00 4.48333 C 5.67 g/m*3 2.7 C 7.39167 km/h
64 04-12-2013 15:00:00 4.81667 C 5.7 g/m*3 2.51 C 9.68333 km/h
65 04-12-2013 16:00:00 4.74167 C 5.74 g/m*3 2.93 C 7.64167 km/h
66 04-12-2013 17:00:00 4.84167 C 5.84 g/m*3 2.6 C 9.40833 km/h
67 04-12-2013 18:00:00 4.875 C 6 g/m*3 1.97 C 12.76667 km/h
68 04-12-2013 19:00:00 4.80833 C 6.06 g/m*3 1.93 C 12.5 km/h
69 04-12-2013 20:00:00 4.9 C 6.15 g/m*3 2.35 C 10.9 km/h
70 04-12-2013 21:00:00 4.8 C 6.26 g/m*3 2.74 C 8.60833 km/h
71 04-12-2013 22:00:00 4.76667 C 6.37 g/m*3 3.73 C 5.21667 km/h
72 04-12-2013 23:00:00 4.96667 C 6.51 g/m*3 4.97 C 3.2 km/h
73 05-12-2013 00:00:00 4.275 C 6.21 g/m*3 4.28 C 2.53333 km/h
74 05-12-2013 01:00:00 3.025 C 5.74 g/m*3 3.03 C 2.13333 km/h
75 05-12-2013 02:00:00 2.44167 C 5.55 g/m*3 2.44 C 1.73333 km/h
Sensor: Nr:Datum:Temp:Abs-Feuchte:Windchill:Wind:
Aussen-T/F 76 05-12-2013 03:00:00 2.275 C 5.49 g/m*3 2.28 C 4.675 km/h
77 05-12-2013 04:00:00 2.24167 C 5.48 g/m*3 -0.2 C 8.33333 km/h
78 05-12-2013 05:00:00 2.15833 C 5.45 g/m*3 -0.1 C 7.65833 km/h
79 05-12-2013 06:00:00 2.4 C 5.53 g/m*3 0.35 C 7.10833 km/h
80 05-12-2013 07:00:00 2.34444 C 5.45 g/m*3 0.1 C 7.7 km/h
81 05-12-2013 08:00:00 1.41667 C 5.1 g/m*3 1.42 C 4.81667 km/h
82 05-12-2013 09:00:00 2.30833 C 5.4 g/m*3 -0.19 C 8.58333 km/h
83 05-12-2013 10:00:00 3.31667 C 5.61 g/m*3 0.72 C 9.675 km/h
84 05-12-2013 11:00:00 3.81667 C 5.63 g/m*3 0.51 C 13.7 km/h
85 05-12-2013 12:00:00 3.925 C 5.42 g/m*3 -0.09 C 18.5 km/h
86 05-12-2013 13:00:00 4.18333 C 5.33 g/m*3 0.59 C 15.96667 km/h
87 05-12-2013 14:00:00 4.56667 C 5.33 g/m*3 0.86 C 17.43333 km/h
88 05-12-2013 15:00:00 5.13333 C 5.24 g/m*3 0.48 C 27.1 km/h
89 05-12-2013 16:00:00 5.50833 C 5.03 g/m*3 0.81 C 28.83333 km/h
90 05-12-2013 17:00:00 5.51111 C 5.26 g/m*3 1.15 C 25.2 km/h
91 05-12-2013 18:00:00 5.53333 C 5.71 g/m*3 1.07 C 26.41667 km/h
92 05-12-2013 19:00:00 5.26667 C 5.96 g/m*3 0.73 C 26.29167 km/h
93 05-12-2013 20:00:00 5.20833 C 6.17 g/m*3 1.21 C 21.03333 km/h
94 05-12-2013 21:00:00 6.91667 C 6.02 g/m*3 3.4 C 20.79167 km/h
95 05-12-2013 22:00:00 5.70833 C 5.51 g/m*3 2.33 C 17.04167 km/h
96 05-12-2013 23:00:00 4.95 C 5.34 g/m*3 1.41 C 16.90833 km/h
97 06-12-2013 00:00:00 3.075 C 5.34 g/m*3 0.01 C 11.55833 km/h
98 06-12-2013 01:00:00 3.5 C 5.09 g/m*3 1.07 C 9.13333 km/h
99 06-12-2013 02:00:00 3.60833 C 4.73 g/m*3 0.92 C 10.35 km/h
100 06-12-2013 03:00:00 3.55 C 4.71 g/m*3 0.76 C 10.75833 km/h
Sensor: Nr:Datum:Temp:Abs-Feuchte:Windchill:Wind:
Aussen-T/F 101 06-12-2013 04:00:00 4.15833 C 4.78 g/m*3 0.86 C 14.1 km/h
102 06-12-2013 05:00:00 4.48333 C 4.62 g/m*3 1.04 C 15.44167 km/h
103 06-12-2013 06:00:00 4.28333 C 4.57 g/m*3 0.78 C 15.56667 km/h
104 06-12-2013 07:00:00 3.60833 C 4.58 g/m*3 -0.08 C 15.7 km/h
105 06-12-2013 08:00:00 3.68333 C 4.32 g/m*3 0.56 C 12.5 km/h
106 06-12-2013 09:00:00 3.85 C 4.33 g/m*3 0.16 C 16.1 km/h
107 06-12-2013 10:00:00 4.28333 C 4.37 g/m*3 0.32 C 18.775 km/h
108 06-12-2013 11:00:00 4.54167 C 4.39 g/m*3 0.9 C 16.9 km/h
109 06-12-2013 12:00:00 4.725 C 4.44 g/m*3 0.93 C 18.36667 km/h
110 06-12-2013 13:00:00 4.89167 C 4.3 g/m*3 0.9 C 20.23333 km/h
111 06-12-2013 14:00:00 4.88333 C 4.27 g/m*3 0.97 C 19.575 km/h
112 06-12-2013 15:00:00 4.6 C 4.32 g/m*3 0.93 C 17.16667 km/h
113 06-12-2013 16:00:00 4.225 C 4.48 g/m*3 1.03 C 13.56667 km/h
114 06-12-2013 17:00:00 2.83333 C 5 g/m*3 0.65 C 7.775 km/h
115 06-12-2013 18:00:00 2.23333 C 5.07 g/m*3 -0.36 C 8.88333 km/h
116 06-12-2013 19:00:00 2.4 C 5.05 g/m*3 0.35 C 7.10833 km/h
117 06-12-2013 20:00:00 2.725 C 5.01 g/m*3 0.23 C 8.85 km/h
118 06-12-2013 21:00:00 3.225 C 4.85 g/m*3 0.17 C 11.7 km/h
119 06-12-2013 22:00:00 3.41667 C 4.74 g/m*3 0.6 C 10.75833 km/h
120 06-12-2013 23:00:00 3.5 C 4.77 g/m*3 0.29 C 12.76667 km/h
121 07-12-2013 00:00:00 3.325 C 4.74 g/m*3 0.73 C 9.7 km/h
122 07-12-2013 01:00:00 3.35 C 4.73 g/m*3 0.76 C 9.68333 km/h
123 07-12-2013 02:00:00 3.06667 C 4.74 g/m*3 1.04 C 7.38333 km/h
124 07-12-2013 03:00:00 3.1 C 4.78 g/m*3 1.21 C 6.98333 km/h
125 07-12-2013 04:00:00 3.375 C 4.78 g/m*3 1.33 C 7.65 km/h
Sensor: Nr:Datum:Temp:Abs-Feuchte:Windchill:Wind:
Aussen-T/F 126 07-12-2013 05:00:00 3.34167 C 4.74 g/m*3 1.25 C 7.79167 km/h
127 07-12-2013 06:00:00 2.90833 C 4.68 g/m*3 0.55 C 8.45833 km/h
128 07-12-2013 07:00:00 2.74167 C 4.72 g/m*3 0.07 C 9.55833 km/h
129 07-12-2013 08:00:00 2.8 C 4.87 g/m*3 0.61 C 7.78333 km/h
130 07-12-2013 09:00:00 2.53333 C 5.17 g/m*3 0.98 C 5.75833 km/h
131 07-12-2013 10:00:00 2.71667 C 5.41 g/m*3 2.72 C 1.6 km/h
132 07-12-2013 11:00:00 3.24167 C 5.63 g/m*3 3.24 C 4.83333 km/h
133 07-12-2013 12:00:00 4.175 C 5.86 g/m*3 1.62 C 10.225 km/h
134 07-12-2013 13:00:00 4.80833 C 6.05 g/m*3 2.08 C 11.69167 km/h
135 07-12-2013 14:00:00 5.34167 C 6.22 g/m*3 2.35 C 13.83333 km/h
136 07-12-2013 15:00:00 5.94167 C 6.37 g/m*3 3.29 C 12.625 km/h
137 07-12-2013 16:00:00 5.94167 C 6.41 g/m*3 3.36 C 12.225 km/h
138 07-12-2013 17:00:00 6.00833 C 6.45 g/m*3 3.42 C 12.35833 km/h
139 07-12-2013 18:00:00 5.98333 C 6.44 g/m*3 3.79 C 10.225 km/h
140 07-12-2013 19:00:00 6.13333 C 6.55 g/m*3 4.17 C 9.275 km/h
141 07-12-2013 20:00:00 6.23333 C 6.55 g/m*3 4.06 C 10.35 km/h
142 07-12-2013 21:00:00 6.18333 C 6.52 g/m*3 4.2 C 9.40833 km/h
143 07-12-2013 22:00:00 6.01667 C 6.48 g/m*3 4.06 C 9.14167 km/h
144 07-12-2013 23:00:00 6.025 C 6.42 g/m*3 4.39 C 7.8 km/h
145 08-12-2013 00:00:00 5.76667 C 6.29 g/m*3 4.12 C 7.65833 km/h
146 08-12-2013 01:00:00 5.54167 C 6.29 g/m*3 4.09 C 6.825 km/h
147 08-12-2013 02:00:00 5.525 C 6.36 g/m*3 4.65 C 5.08333 km/h
148 08-12-2013 03:00:00 5.65833 C 6.36 g/m*3 4.38 C 6.30833 km/h
149 08-12-2013 04:00:00 5.69167 C 6.31 g/m*3 5.69 C 3.34167 km/h
150 08-12-2013 05:00:00 5.63333 C 6.36 g/m*3 4.44 C 6.03333 km/h
Sensor: Nr:Datum:Temp:Abs-Feuchte:Windchill:Wind:
Aussen-T/F 151 08-12-2013 06:00:00 6.05 C 6.49 g/m*3 4.76 C 6.56667 km/h
152 08-12-2013 07:00:00 6.10833 C 6.52 g/m*3 4.52 C 7.65833 km/h
153 08-12-2013 08:00:00 6.06667 C 6.62 g/m*3 3.94 C 9.95 km/h
154 08-12-2013 09:00:00 6.56667 C 6.68 g/m*3 4.35 C 10.9 km/h
155 08-12-2013 10:00:00 6.73333 C 6.76 g/m*3 4.74 C 9.94167 km/h
156 08-12-2013 11:00:00 7.68333 C 6.95 g/m*3 5.32 C 13.16667 km/h
157 08-12-2013 12:00:00 7.90833 C 7.01 g/m*3 5.44 C 14.23333 km/h
158 08-12-2013 13:00:00 7.71667 C 7.04 g/m*3 5.84 C 10.35 km/h
159 08-12-2013 14:00:00 7.74167 C 7.05 g/m*3 5.97 C 9.81667 km/h
160 08-12-2013 15:00:00 8.075 C 6.99 g/m*3 5.95 C 12.21667 km/h
161 08-12-2013 16:00:00 7.66667 C 6.96 g/m*3 5.36 C 12.76667 km/h
162 08-12-2013 17:00:00 7.31667 C 6.9 g/m*3 4.75 C 13.96667 km/h
163 08-12-2013 18:00:00 7.33333 C 6.95 g/m*3 4.83 C 13.56667 km/h
164 08-12-2013 19:00:00 7.38333 C 6.99 g/m*3 5.44 C 10.34167 km/h
165 08-12-2013 20:00:00 7.78333 C 6.98 g/m*3 5.04 C 16.1 km/h
166 08-12-2013 21:00:00 8.21667 C 6.96 g/m*3 5.3 C 18.36667 km/h
167 08-12-2013 22:00:00 8.1 C 6.93 g/m*3 5.58 C 14.9 km/h
168 08-12-2013 23:00:00 7.85833 C 6.97 g/m*3 5.44 C 13.83333 km/h
169 09-12-2013 00:00:00 7.90833 C 6.97 g/m*3 5.68 C 12.625 km/h
170 09-12-2013 01:00:00 7.825 C 6.85 g/m*3 5.19 C 15.3 km/h
171 09-12-2013 02:00:00 7.44167 C 6.63 g/m*3 5.27 C 11.7 km/h
172 09-12-2013 03:00:00 6.875 C 6.46 g/m*3 4.99 C 9.55 km/h
173 09-12-2013 04:00:00 6.78333 C 6.3 g/m*3 4.97 C 9.14167 km/h
174 09-12-2013 05:00:00 6.78333 C 6.19 g/m*3 4.36 C 12.36667 km/h
175 09-12-2013 06:00:00 6.625 C 6.11 g/m*3 3.91 C 13.96667 km/h
Sensor: Nr:Datum:Temp:Abs-Feuchte:Windchill:Wind:
Aussen-T/F 176 09-12-2013 07:00:00 6.26667 C 6.05 g/m*3 4.51 C 8.475 km/h
177 09-12-2013 08:00:00 6.55833 C 6.1 g/m*3 4.15 C 11.96667 km/h
178 09-12-2013 09:00:00 6.91667 C 6.11 g/m*3 4.18 C 14.5 km/h
179 09-12-2013 10:00:00 7.28333 C 6.19 g/m*3 4.43 C 15.96667 km/h
180 09-12-2013 11:00:00 7.49167 C 6.33 g/m*3 5.24 C 12.225 km/h
181 09-12-2013 12:00:00 8.21667 C 6.64 g/m*3 6.9 C 8.05833 km/h
182 09-12-2013 13:00:00 8.40833 C 6.71 g/m*3 6.89 C 9.15 km/h
183 09-12-2013 14:00:00 7.95 C 6.56 g/m*3 5.97 C 11.16667 km/h
184 09-12-2013 15:00:00 7.825 C 6.53 g/m*3 6.18 C 9.26667 km/h
185 09-12-2013 16:00:00 6.73333 C 6.4 g/m*3 5.98 C 5.2 km/h
186 09-12-2013 17:00:00 6.23333 C 6.35 g/m*3 5.45 C 5.075 km/h
187 09-12-2013 18:00:00 6.16667 C 6.34 g/m*3 4.9 C 6.55 km/h
188 09-12-2013 19:00:00 5.30833 C 6.16 g/m*3 5.31 C 1.6 km/h
189 09-12-2013 20:00:00 3.975 C 5.9 g/m*3 3.98 C 0.4 km/h
190 09-12-2013 21:00:00 3.43333 C 5.75 g/m*3 3.43 C 0.4 km/h
191 09-12-2013 22:00:00 2.79167 C 5.56 g/m*3 2.79 C 0 km/h
192 09-12-2013 23:00:00 2.33333 C 5.42 g/m*3 2.33 C 0 km/h
193 10-12-2013 00:00:00 1.9 C 5.3 g/m*3 1.9 C 0 km/h
194 10-12-2013 01:00:00 1.625 C 5.2 g/m*3 1.63 C 0.4 km/h
195 10-12-2013 02:00:00 1.20833 C 5.07 g/m*3 1.21 C 0 km/h
196 10-12-2013 03:00:00 1.125 C 5.08 g/m*3 1.13 C 0.13333 km/h
197 10-12-2013 04:00:00 1.43333 C 5.19 g/m*3 1.43 C 0.13333 km/h
198 10-12-2013 05:00:00 1.59167 C 5.24 g/m*3 1.59 C 0.26667 km/h
199 10-12-2013 06:00:00 1.66667 C 5.27 g/m*3 1.67 C 0.26667 km/h
200 10-12-2013 07:00:00 1.725 C 5.29 g/m*3 1.73 C 1.33333 km/h
Sensor: Nr:Datum:Temp:Abs-Feuchte:Windchill:Wind:
Aussen-T/F 201 10-12-2013 08:00:00 1.85 C 5.32 g/m*3 1.85 C 1.2 km/h
202 10-12-2013 09:00:00 2.25 C 5.42 g/m*3 2.25 C 2.8 km/h
203 10-12-2013 10:00:00 2.96667 C 5.69 g/m*3 2.97 C 1.6 km/h
204 10-12-2013 11:00:00 3.54167 C 5.92 g/m*3 3.54 C 2.53333 km/h
205 10-12-2013 12:00:00 4.35833 C 6.22 g/m*3 4.36 C 4.00833 km/h
206 10-12-2013 13:00:00 4.925 C 6.37 g/m*3 4.93 C 2.66667 km/h
207 10-12-2013 14:00:00 5.60833 C 6.57 g/m*3 5.61 C 0.66667 km/h
208 10-12-2013 15:00:00 5.16667 C 6.4 g/m*3 5.17 C 0.26667 km/h
209 10-12-2013 16:00:00 4.55 C 6.28 g/m*3 4.55 C 0.13333 km/h
210 10-12-2013 17:00:00 4.68333 C 6.39 g/m*3 4.68 C 0.13333 km/h
211 10-12-2013 18:00:00 4.80833 C 6.44 g/m*3 4.81 C 0 km/h
212 10-12-2013 19:00:00 4.9 C 6.48 g/m*3 4.9 C 0 km/h
213 10-12-2013 20:00:00 4.85 C 6.46 g/m*3 4.85 C 0 km/h
214 10-12-2013 21:00:00 4.33333 C 6.24 g/m*3 4.33 C 1.6 km/h
215 10-12-2013 22:00:00 3.65 C 5.99 g/m*3 3.65 C 2.93333 km/h
216 10-12-2013 23:00:00 3.25833 C 5.87 g/m*3 3.26 C 3.2 km/h
217 11-12-2013 00:00:00 3.03333 C 5.78 g/m*3 3.03 C 2.53333 km/h
218 11-12-2013 01:00:00 2.79167 C 5.7 g/m*3 2.79 C 3.6 km/h
219 11-12-2013 02:00:00 2.51667 C 5.62 g/m*3 2.52 C 4.13333 km/h
220 11-12-2013 03:00:00 2.24167 C 5.53 g/m*3 2.24 C 3.06667 km/h
221 11-12-2013 04:00:00 2.28333 C 5.55 g/m*3 2.28 C 2.93333 km/h
222 11-12-2013 05:00:00 2.275 C 5.55 g/m*3 2.28 C 3.46667 km/h
223 11-12-2013 06:00:00 2.24167 C 5.54 g/m*3 2.24 C 4.95 km/h
224 11-12-2013 07:00:00 2.29167 C 5.55 g/m*3 2.29 C 4.275 km/h
225 11-12-2013 08:00:00 2.34167 C 5.57 g/m*3 2.34 C 4.41667 km/h
Sensor: Nr:Datum:Temp:Abs-Feuchte:Windchill:Wind:
Aussen-T/F 226 11-12-2013 09:00:00 2.475 C 5.62 g/m*3 2.48 C 4.66667 km/h
227 11-12-2013 10:00:00 2.775 C 5.74 g/m*3 2.78 C 4.4 km/h
228 11-12-2013 11:00:00 3.24167 C 5.87 g/m*3 1.9 C 5.475 km/h
229 11-12-2013 12:00:00 3.83333 C 6.08 g/m*3 3.83 C 2.8 km/h
230 11-12-2013 13:00:00 4.375 C 6.26 g/m*3 4.38 C 1.2 km/h
231 11-12-2013 14:00:00 4.725 C 6.41 g/m*3 4.72 C 0.8 km/h
232 11-12-2013 15:00:00 4.91667 C 6.48 g/m*3 4.92 C 0.4 km/h
233 11-12-2013 16:00:00 5.275 C 6.64 g/m*3 5.28 C 0 km/h
234 11-12-2013 17:00:00 5.44167 C 6.72 g/m*3 5.44 C 0.53333 km/h
235 11-12-2013 18:00:00 5.41667 C 6.69 g/m*3 5.42 C 0.13333 km/h
236 11-12-2013 19:00:00 5.29167 C 6.58 g/m*3 5.29 C 1.73333 km/h
237 11-12-2013 20:00:00 5.14167 C 6.5 g/m*3 5.14 C 1.46667 km/h
238 11-12-2013 21:00:00 4.99167 C 6.41 g/m*3 4.99 C 2.68333 km/h
239 11-12-2013 22:00:00 4.81667 C 6.35 g/m*3 4.82 C 2.80833 km/h
240 11-12-2013 23:00:00 4.65833 C 6.24 g/m*3 4.66 C 4.15 km/h
241 12-12-2013 00:00:00 4.45833 C 6.16 g/m*3 4.46 C 1.46667 km/h
242 12-12-2013 01:00:00 4.325 C 6.11 g/m*3 4.33 C 2.93333 km/h
243 12-12-2013 02:00:00 4.25833 C 6.08 g/m*3 4.26 C 1.73333 km/h
244 12-12-2013 03:00:00 4.29167 C 6.12 g/m*3 4.29 C 0.13333 km/h
245 12-12-2013 04:00:00 4.3 C 6.1 g/m*3 4.3 C 1.73333 km/h
246 12-12-2013 05:00:00 4.26667 C 6.08 g/m*3 4.27 C 1.20833 km/h
247 12-12-2013 06:00:00 4.14167 C 6.03 g/m*3 4.14 C 3.075 km/h
248 12-12-2013 07:00:00 4.025 C 5.93 g/m*3 4.03 C 3.2 km/h
249 12-12-2013 08:00:00 3.85 C 5.83 g/m*3 3.85 C 2.66667 km/h
250 12-12-2013 09:00:00 3.91667 C 5.81 g/m*3 3.92 C 4.53333 km/h
Sensor: Nr:Datum:Temp:Abs-Feuchte:Windchill:Wind:
Aussen-T/F 251 12-12-2013 10:00:00 4.11667 C 5.79 g/m*3 4.12 C 3.33333 km/h
252 12-12-2013 11:00:00 4.26667 C 5.82 g/m*3 4.27 C 4.26667 km/h
253 12-12-2013 12:00:00 4.6 C 5.95 g/m*3 4.6 C 3.2 km/h
254 12-12-2013 13:00:00 4.78333 C 5.99 g/m*3 3.66 C 5.475 km/h
255 12-12-2013 14:00:00 4.99167 C 6.07 g/m*3 4.99 C 2.26667 km/h
256 12-12-2013 15:00:00 4.74167 C 5.97 g/m*3 4.74 C 3.73333 km/h
257 12-12-2013 16:00:00 3.84167 C 5.76 g/m*3 3.84 C 4.4 km/h
258 12-12-2013 17:00:00 3.6 C 5.69 g/m*3 3.6 C 2.8 km/h
259 12-12-2013 18:00:00 3.6 C 5.69 g/m*3 3.6 C 0.66667 km/h
260 12-12-2013 19:00:00 3.54167 C 5.67 g/m*3 3.54 C 0.4 km/h
261 12-12-2013 20:00:00 3.525 C 5.73 g/m*3 3.53 C 0 km/h
262 12-12-2013 21:00:00 3.60833 C 5.76 g/m*3 3.61 C 0 km/h
263 12-12-2013 22:00:00 3.6 C 5.76 g/m*3 3.6 C 0 km/h
264 12-12-2013 23:00:00 3.50833 C 5.67 g/m*3 3.51 C 0.66667 km/h
265 13-12-2013 00:00:00 3.325 C 5.5 g/m*3 3.33 C 4.01667 km/h
266 13-12-2013 01:00:00 2.99167 C 5.34 g/m*3 1.46 C 5.86667 km/h
267 13-12-2013 02:00:00 2.55 C 5.27 g/m*3 0.66 C 6.70833 km/h
268 13-12-2013 03:00:00 2.4 C 5.25 g/m*3 0.27 C 7.38333 km/h
269 13-12-2013 04:00:00 2.4 C 5.25 g/m*3 0.58 C 6.41667 km/h
270 13-12-2013 05:00:00 2.31667 C 5.21 g/m*3 0.05 C 7.78333 km/h
271 13-12-2013 06:00:00 2.3 C 5.18 g/m*3 0.07 C 7.65 km/h
272 13-12-2013 07:00:00 2.11667 C 5.15 g/m*3 -0.39 C 8.48333 km/h
273 13-12-2013 08:00:00 2.075 C 5.14 g/m*3 0.25 C 6.3 km/h
274 13-12-2013 09:00:00 2.05 C 5.12 g/m*3 0.59 C 5.35 km/h
275 13-12-2013 10:00:00 2.275 C 5.16 g/m*3 0.29 C 6.84167 km/h
Sensor: Nr:Datum:Temp:Abs-Feuchte:Windchill:Wind:
Aussen-T/F 276 13-12-2013 11:00:00 2.625 C 5.25 g/m*3 0.44 C 7.66667 km/h
277 13-12-2013 12:00:00 2.96667 C 5.32 g/m*3 1.29 C 6.28333 km/h
278 13-12-2013 13:00:00 3.2 C 5.36 g/m*3 1.7 C 5.875 km/h
279 13-12-2013 14:00:00 3.45 C 5.44 g/m*3 3.45 C 3.2 km/h
280 13-12-2013 15:00:00 3.38333 C 5.39 g/m*3 3.38 C 4.80833 km/h
281 13-12-2013 16:00:00 3.11667 C 5.35 g/m*3 3.12 C 2.13333 km/h
282 13-12-2013 17:00:00 2.83333 C 5.29 g/m*3 2.83 C 1.6 km/h
283 13-12-2013 18:00:00 2.89167 C 5.36 g/m*3 2.89 C 1.2 km/h
284 13-12-2013 19:00:00 2.76667 C 5.24 g/m*3 2.77 C 3.46667 km/h
285 13-12-2013 20:00:00 2.55833 C 5.19 g/m*3 2.56 C 1.46667 km/h
286 13-12-2013 21:00:00 2.66667 C 5.27 g/m*3 2.67 C 2.8 km/h
287 13-12-2013 22:00:00 2.425 C 5.18 g/m*3 2.42 C 4.675 km/h
288 13-12-2013 23:00:00 2.08333 C 5.02 g/m*3 0.67 C 5.24167 km/h
289 14-12-2013 00:00:00 1.89167 C 4.96 g/m*3 0.09 C 6.16667 km/h
290 14-12-2013 01:00:00 1.88333 C 4.96 g/m*3 -0.7 C 8.61667 km/h
291 14-12-2013 02:00:00 1.625 C 4.93 g/m*3 1.63 C 4.81667 km/h
292 14-12-2013 03:00:00 1.71667 C 5.01 g/m*3 1.72 C 4.40833 km/h
293 14-12-2013 04:00:00 1.93333 C 5.09 g/m*3 1.93 C 0.26667 km/h
294 14-12-2013 05:00:00 2.18333 C 5.23 g/m*3 2.18 C 0 km/h
295 14-12-2013 06:00:00 2.56667 C 5.37 g/m*3 2.57 C 4.55833 km/h
296 14-12-2013 07:00:00 3.05833 C 5.6 g/m*3 0.41 C 9.69167 km/h
297 14-12-2013 08:00:00 3.3 C 5.76 g/m*3 0.97 C 8.6 km/h
298 14-12-2013 09:00:00 3.43 C 5.81 g/m*3 0.75 C 10.15 km/h
299 14-12-2013 10:00:00 3.74167 C 5.92 g/m*3 1.2 C 9.81667 km/h
300 14-12-2013 11:00:00 4.11667 C 6.05 g/m*3 1.78 C 9.25833 km/h
Sensor: Nr:Datum:Temp:Abs-Feuchte:Windchill:Wind:
Aussen-T/F 301 14-12-2013 12:00:00 4.78333 C 6.24 g/m*3 2.35 C 10.21667 km/h
302 14-12-2013 13:00:00 5.13333 C 6.38 g/m*3 3.21 C 8.33333 km/h
303 14-12-2013 14:00:00 5.56667 C 6.47 g/m*3 3.49 C 9.28333 km/h
304 14-12-2013 15:00:00 5.43333 C 6.4 g/m*3 4.04 C 6.56667 km/h
305 14-12-2013 16:00:00 5.375 C 6.37 g/m*3 3.98 C 6.55833 km/h
306 14-12-2013 17:00:00 4.76667 C 6.16 g/m*3 3.79 C 5.08333 km/h
307 14-12-2013 18:00:00 3.075 C 5.7 g/m*3 3.08 C 3.33333 km/h
308 14-12-2013 19:00:00 3.76667 C 5.96 g/m*3 1.78 C 7.65833 km/h
309 14-12-2013 20:00:00 3.93333 C 5.89 g/m*3 2.64 C 5.60833 km/h
310 14-12-2013 21:00:00 3.83333 C 5.83 g/m*3 2.19 C 6.56667 km/h
311 14-12-2013 22:00:00 4.24167 C 5.9 g/m*3 1.8 C 9.80833 km/h
312 14-12-2013 23:00:00 4.775 C 6.06 g/m*3 1.66 C 13.825 km/h
313 15-12-2013 00:00:00 5.04167 C 6.07 g/m*3 3 C 8.71667 km/h
314 15-12-2013 01:00:00 4.9 C 6.08 g/m*3 3.56 C 6.15 km/h
315 15-12-2013 02:00:00 5.04167 C 6.12 g/m*3 4 C 5.35833 km/h
316 15-12-2013 03:00:00 5.16667 C 6.15 g/m*3 5.17 C 4.825 km/h
317 15-12-2013 04:00:00 5.075 C 6.1 g/m*3 5.08 C 3.2 km/h
318 15-12-2013 05:00:00 4.90833 C 6.08 g/m*3 3.2 C 7.375 km/h
319 15-12-2013 06:00:00 5.55833 C 6 g/m*3 4.11 C 6.83333 km/h
320 15-12-2013 07:00:00 5.11667 C 5.91 g/m*3 5.12 C 2.80833 km/h
321 15-12-2013 08:00:00 4.84167 C 5.97 g/m*3 4.84 C 1.06667 km/h
322 15-12-2013 09:00:00 5.45 C 5.92 g/m*3 3.83 C 7.38333 km/h
323 15-12-2013 10:00:00 6.65833 C 5.82 g/m*3 4.79 C 9.25833 km/h
324 15-12-2013 11:00:00 6.95 C 5.82 g/m*3 4.39 C 13.43333 km/h
325 15-12-2013 12:00:00 7.69167 C 5.87 g/m*3 4.97 C 15.7 km/h
Sensor: Nr:Datum:Temp:Abs-Feuchte:Windchill:Wind:
Aussen-T/F 326 15-12-2013 13:00:00 8.21667 C 5.88 g/m*3 5.73 C 14.9 km/h
327 15-12-2013 14:00:00 7.91667 C 6.04 g/m*3 6.74 C 7.25833 km/h
328 15-12-2013 15:00:00 6.39167 C 6.11 g/m*3 6.39 C 3.74167 km/h
329 15-12-2013 16:00:00 5.075 C 5.93 g/m*3 5.08 C 3.33333 km/h
330 15-12-2013 17:00:00 4.43333 C 5.76 g/m*3 4.43 C 2.53333 km/h
331 15-12-2013 18:00:00 4.51667 C 5.91 g/m*3 4.52 C 0.93333 km/h
332 15-12-2013 19:00:00 3.54167 C 5.58 g/m*3 3.54 C 0.8 km/h
333 15-12-2013 20:00:00 2.64167 C 5.37 g/m*3 2.64 C 0.26667 km/h
334 15-12-2013 21:00:00 2.09167 C 5.22 g/m*3 2.09 C 0.26667 km/h
335 15-12-2013 22:00:00 1.48333 C 5.03 g/m*3 1.48 C 0.53333 km/h
336 15-12-2013 23:00:00 1.21667 C 4.99 g/m*3 1.22 C 0.13333 km/h
337 16-12-2013 00:00:00 1.05 C 4.95 g/m*3 1.05 C 0.66667 km/h
338 16-12-2013 01:00:00 0.78333 C 4.86 g/m*3 0.78 C 0 km/h
339 16-12-2013 02:00:00 0.475 C 4.76 g/m*3 0.48 C 0.66667 km/h
340 16-12-2013 03:00:00 0.325 C 4.71 g/m*3 0.33 C 0.66667 km/h
341 16-12-2013 04:00:00 -0.03333 C 4.6 g/m*3 -0.03 C 0.13333 km/h
342 16-12-2013 05:00:00 0.29167 C 4.74 g/m*3 0.29 C 0.26667 km/h
343 16-12-2013 06:00:00 0 C 4.63 g/m*3 0 C 0.43636 km/h
344 16-12-2013 07:00:00 -0.3 C 4.56 g/m*3 -0.3 C 0 km/h
345 16-12-2013 08:00:00 -0.30833 C 4.55 g/m*3 -0.31 C 0.8 km/h
346 16-12-2013 09:00:00 -0.3 C 4.56 g/m*3 -0.3 C 0.26667 km/h
347 16-12-2013 10:00:00 0.31667 C 4.75 g/m*3 0.32 C 0.4 km/h
348 16-12-2013 11:00:00 1.24167 C 5.03 g/m*3 1.24 C 0.13333 km/h
349 16-12-2013 12:00:00 2.31667 C 5.37 g/m*3 2.32 C 1.46667 km/h
350 16-12-2013 13:00:00 3.33333 C 5.66 g/m*3 3.33 C 2.8 km/h
Sensor: Nr:Datum:Temp:Abs-Feuchte:Windchill:Wind:
Aussen-T/F 351 16-12-2013 14:00:00 4.175 C 5.92 g/m*3 4.18 C 3.73333 km/h
352 16-12-2013 15:00:00 4.49167 C 6.02 g/m*3 4.49 C 3.06667 km/h
353 16-12-2013 16:00:00 4.09167 C 5.84 g/m*3 4.09 C 2.66667 km/h
354 16-12-2013 17:00:00 3.225 C 5.62 g/m*3 3.23 C 1.6 km/h
355 16-12-2013 18:00:00 2.575 C 5.4 g/m*3 2.58 C 0.66667 km/h
356 16-12-2013 19:00:00 2.29167 C 5.38 g/m*3 2.29 C 0.13333 km/h
357 16-12-2013 20:00:00 1.78333 C 5.19 g/m*3 1.78 C 0.93333 km/h
358 16-12-2013 21:00:00 1.1 C 4.97 g/m*3 1.1 C 0 km/h
359 16-12-2013 22:00:00 0.88333 C 4.94 g/m*3 0.88 C 0.8 km/h
360 16-12-2013 23:00:00 0.64167 C 4.87 g/m*3 0.64 C 0.26667 km/h
361 17-12-2013 00:00:00 0.15 C 4.7 g/m*3 0.15 C 0.26667 km/h
362 17-12-2013 01:00:00 -0.175 C 4.62 g/m*3 -0.18 C 0 km/h
363 17-12-2013 02:00:00 -0.325 C 4.6 g/m*3 -0.33 C 0 km/h
364 17-12-2013 03:00:00 -0.575 C 4.52 g/m*3 -0.57 C 0 km/h
365 17-12-2013 04:00:00 -0.86667 C 4.43 g/m*3 -0.87 C 0.13333 km/h
366 17-12-2013 05:00:00 -1.175 C 4.33 g/m*3 -1.18 C 0 km/h
367 17-12-2013 06:00:00 -1.15 C 4.34 g/m*3 -1.15 C 0.66667 km/h
368 17-12-2013 07:00:00 -1.34167 C 4.28 g/m*3 -1.34 C 0.8 km/h
369 17-12-2013 08:00:00 -1.5 C 4.23 g/m*3 -1.5 C 0 km/h
370 17-12-2013 09:00:00 -0.94167 C 4.41 g/m*3 -0.94 C 0.93333 km/h
371 17-12-2013 10:00:00 -0.50833 C 4.55 g/m*3 -0.51 C 0 km/h
372 17-12-2013 11:00:00 1.175 C 5.15 g/m*3 1.18 C 1.6 km/h
373 17-12-2013 12:00:00 3.04167 C 5.84 g/m*3 3.04 C 0.66667 km/h
374 17-12-2013 13:00:00 4.44167 C 6.26 g/m*3 4.44 C 2.8 km/h
375 17-12-2013 14:00:00 5.31667 C 6.34 g/m*3 5.32 C 2.93333 km/h
Sensor: Nr:Datum:Temp:Abs-Feuchte:Windchill:Wind:
Aussen-T/F 376 17-12-2013 15:00:00 5.86667 C 6.4 g/m*3 5.87 C 4.53333 km/h
377 17-12-2013 16:00:00 5.10833 C 6.07 g/m*3 5.11 C 2.66667 km/h
378 17-12-2013 17:00:00 3.84167 C 5.8 g/m*3 3.84 C 1.06667 km/h
379 17-12-2013 18:00:00 3.00833 C 5.54 g/m*3 3.01 C 0.4 km/h
380 17-12-2013 19:00:00 2.35833 C 5.37 g/m*3 2.36 C 0 km/h
381 17-12-2013 20:00:00 1.66667 C 5.15 g/m*3 1.67 C 0.26667 km/h
382 17-12-2013 21:00:00 1.08333 C 5 g/m*3 1.08 C 0 km/h
383 17-12-2013 22:00:00 0.99167 C 4.99 g/m*3 0.99 C 0.53333 km/h
384 17-12-2013 23:00:00 0.61667 C 4.87 g/m*3 0.62 C 0 km/h
385 18-12-2013 00:00:00 0.35833 C 4.82 g/m*3 0.36 C 0.13333 km/h
386 18-12-2013 01:00:00 0.4 C 4.83 g/m*3 0.4 C 0 km/h
387 18-12-2013 02:00:00 0.75833 C 4.95 g/m*3 0.76 C 0.26667 km/h
388 18-12-2013 03:00:00 1.04167 C 5.05 g/m*3 1.04 C 0.13333 km/h
389 18-12-2013 04:00:00 1.2 C 5.1 g/m*3 1.2 C 0 km/h
390 18-12-2013 05:00:00 1.49167 C 5.22 g/m*3 1.49 C 0.13333 km/h
391 18-12-2013 06:00:00 1.70833 C 5.29 g/m*3 1.71 C 0.93333 km/h
392 18-12-2013 07:00:00 1.775 C 5.31 g/m*3 1.78 C 1.06667 km/h
393 18-12-2013 08:00:00 1.93333 C 5.37 g/m*3 1.93 C 0.93333 km/h
394 18-12-2013 09:00:00 2.66667 C 5.64 g/m*3 2.67 C 2 km/h
395 18-12-2013 10:00:00 3.29167 C 5.83 g/m*3 3.29 C 2.4 km/h
396 18-12-2013 11:00:00 3.98333 C 6.01 g/m*3 3.98 C 1.86667 km/h
397 18-12-2013 12:00:00 4.475 C 6.15 g/m*3 4.47 C 0 km/h
398 18-12-2013 13:00:00 6.85833 C 7.1 g/m*3 5.54 C 7.11667 km/h
399 18-12-2013 14:00:00 8.98333 C 7.6 g/m*3 8.15 C 6.56667 km/h
400 18-12-2013 15:00:00 8.75 C 7.61 g/m*3 8.75 C 4.68333 km/h
Sensor: Nr:Datum:Temp:Abs-Feuchte:Windchill:Wind:
Aussen-T/F 401 18-12-2013 16:00:00 8.20833 C 7.46 g/m*3 8.21 C 2.13333 km/h
402 18-12-2013 17:00:00 7.35 C 7.26 g/m*3 7.35 C 2 km/h
403 18-12-2013 18:00:00 7.11667 C 7.07 g/m*3 7.12 C 3.2 km/h
404 18-12-2013 19:00:00 5.9 C 6.66 g/m*3 5.9 C 2.8 km/h
405 18-12-2013 20:00:00 5.23333 C 6.47 g/m*3 5.23 C 3.2 km/h
406 18-12-2013 21:00:00 5.11667 C 6.49 g/m*3 5.12 C 3.06667 km/h
407 18-12-2013 22:00:00 5.80833 C 6.77 g/m*3 5.81 C 4.13333 km/h
408 18-12-2013 23:00:00 6.38333 C 6.94 g/m*3 6.38 C 2.93333 km/h
409 19-12-2013 00:00:00 7.03333 C 7.09 g/m*3 7.03 C 4.40833 km/h
410 19-12-2013 01:00:00 8.35833 C 7.24 g/m*3 7.54 C 6.16667 km/h
411 19-12-2013 02:00:00 9.18333 C 7.31 g/m*3 8.53 C 6.025 km/h
412 19-12-2013 03:00:00 9.3 C 7.4 g/m*3 8.42 C 6.975 km/h
413 19-12-2013 04:00:00 9.38333 C 7.47 g/m*3 9.38 C 4.40833 km/h
414 19-12-2013 05:00:00 9.01667 C 7.83 g/m*3 9.02 C 4.675 km/h
415 19-12-2013 06:00:00 8.66667 C 7.99 g/m*3 8.67 C 4.94167 km/h
416 19-12-2013 07:00:00 8.53333 C 8.04 g/m*3 8.53 C 4.95 km/h
417 19-12-2013 08:00:00 8.45833 C 8.14 g/m*3 8.46 C 3.46667 km/h
418 19-12-2013 09:00:00 8.925 C 8.37 g/m*3 8.93 C 4.69167 km/h
419 19-12-2013 10:00:00 9.725 C 8.59 g/m*3 9.22 C 5.775 km/h
420 19-12-2013 11:00:00 10.64167 C 8.36 g/m*3 8.77 C 14.48333 km/h
421 19-12-2013 12:00:00 10.80833 C 7.93 g/m*3 9.03 C 13.96667 km/h
422 19-12-2013 13:00:00 10.6 C 7.65 g/m*3 9.19 C 11.025 km/h
423 19-12-2013 14:00:00 10.23333 C 7.41 g/m*3 8.57 C 12.21667 km/h
424 19-12-2013 15:00:00 9.3 C 7.17 g/m*3 7.6 C 11.16667 km/h
425 19-12-2013 16:00:00 8.6 C 7 g/m*3 7.1 C 9.275 km/h
Sensor: Nr:Datum:Temp:Abs-Feuchte:Windchill:Wind:
Aussen-T/F 426 19-12-2013 17:00:00 7.6 C 7.02 g/m*3 7.6 C 2.4 km/h
427 19-12-2013 18:00:00 6.58333 C 6.84 g/m*3 6.58 C 2.93333 km/h
428 19-12-2013 19:00:00 6.25 C 6.94 g/m*3 6.25 C 2 km/h
429 19-12-2013 20:00:00 5.425 C 6.61 g/m*3 5.43 C 2.13333 km/h
430 19-12-2013 21:00:00 4.9 C 6.42 g/m*3 4.9 C 1.33333 km/h
431 19-12-2013 22:00:00 4.19167 C 6.14 g/m*3 4.19 C 2 km/h
432 19-12-2013 23:00:00 3.575 C 5.91 g/m*3 3.58 C 0.66667 km/h
433 20-12-2013 00:00:00 2.98333 C 5.71 g/m*3 2.98 C 1.33333 km/h
434 20-12-2013 01:00:00 2.61667 C 5.59 g/m*3 2.62 C 0.53333 km/h
435 20-12-2013 02:00:00 2.99167 C 5.76 g/m*3 2.99 C 0.53333 km/h
436 20-12-2013 03:00:00 2.96667 C 5.75 g/m*3 2.97 C 0.53333 km/h
437 20-12-2013 04:00:00 2.98333 C 5.76 g/m*3 2.98 C 0 km/h
438 20-12-2013 05:00:00 3.275 C 5.9 g/m*3 3.28 C 0.4 km/h
439 20-12-2013 06:00:00 3.15833 C 5.83 g/m*3 3.16 C 0.53333 km/h
440 20-12-2013 07:00:00 4.04167 C 6.24 g/m*3 4.04 C 2 km/h
441 20-12-2013 08:00:00 4.05833 C 6.2 g/m*3 4.06 C 0.93333 km/h
442 20-12-2013 09:00:00 4.65 C 6.41 g/m*3 4.65 C 4.14167 km/h
443 20-12-2013 10:00:00 5.73333 C 6.57 g/m*3 5.73 C 4.53333 km/h
444 20-12-2013 11:00:00 6.35833 C 6.64 g/m*3 5.11 C 6.575 km/h
445 20-12-2013 12:00:00 6.35 C 6.54 g/m*3 5.53 C 5.23333 km/h
446 20-12-2013 13:00:00 6.50833 C 6.38 g/m*3 5.03 C 7.51667 km/h
447 20-12-2013 14:00:00 6.325 C 6.28 g/m*3 5.04 C 6.69167 km/h
448 20-12-2013 15:00:00 5.9 C 6.24 g/m*3 4.88 C 5.61667 km/h
449 20-12-2013 16:00:00 5.36667 C 6.09 g/m*3 5.37 C 4.26667 km/h
450 20-12-2013 17:00:00 4.2 C 5.88 g/m*3 4.2 C 4.40833 km/h
Sensor: Nr:Datum:Temp:Abs-Feuchte:Windchill:Wind:
Aussen-T/F 451 20-12-2013 18:00:00 4.05 C 5.84 g/m*3 4.05 C 4.66667 km/h
452 20-12-2013 19:00:00 4.20833 C 5.77 g/m*3 3.1 C 5.20833 km/h
453 20-12-2013 20:00:00 4.05 C 5.7 g/m*3 2.92 C 5.21667 km/h
454 20-12-2013 21:00:00 3.45 C 5.62 g/m*3 3.45 C 3.2 km/h
455 20-12-2013 22:00:00 3.675 C 5.72 g/m*3 3.68 C 4.675 km/h
456 20-12-2013 23:00:00 5.31667 C 5.97 g/m*3 3.79 C 6.975 km/h
457 21-12-2013 00:00:00 4.89167 C 5.84 g/m*3 3.38 C 6.7 km/h
458 21-12-2013 01:00:00 5.125 C 5.88 g/m*3 3.86 C 6.01667 km/h
459 21-12-2013 02:00:00 4.625 C 5.73 g/m*3 4.63 C 4.53333 km/h
460 21-12-2013 03:00:00 3.28333 C 5.48 g/m*3 3.28 C 2.8 km/h
461 21-12-2013 04:00:00 2.675 C 5.4 g/m*3 2.68 C 3.33333 km/h
462 21-12-2013 05:00:00 2.76667 C 5.44 g/m*3 2.77 C 1.33333 km/h
463 21-12-2013 06:00:00 3.28333 C 5.56 g/m*3 3.28 C 1.6 km/h
464 21-12-2013 07:00:00 3.925 C 5.59 g/m*3 3.93 C 2.54167 km/h
465 21-12-2013 08:00:00 3.45833 C 5.51 g/m*3 3.46 C 0.8 km/h
466 21-12-2013 09:00:00 2.93333 C 5.46 g/m*3 2.93 C 0.8 km/h
467 21-12-2013 10:00:00 4.5 C 5.71 g/m*3 4.5 C 1.2 km/h
468 21-12-2013 11:00:00 6 C 5.81 g/m*3 6 C 3.33333 km/h
469 21-12-2013 12:00:00 6.95 C 5.57 g/m*3 5.35 C 8.31667 km/h
470 21-12-2013 13:00:00 7.21667 C 5.51 g/m*3 6.57 C 5.09167 km/h
471 21-12-2013 14:00:00 6.9 C 5.59 g/m*3 6.9 C 1.86667 km/h
472 21-12-2013 15:00:00 6.31667 C 5.45 g/m*3 6.32 C 2.13333 km/h
473 21-12-2013 16:00:00 5.65833 C 5.32 g/m*3 5.66 C 2.13333 km/h
474 21-12-2013 17:00:00 5.025 C 5.3 g/m*3 5.03 C 2 km/h
475 21-12-2013 18:00:00 4.86667 C 5.15 g/m*3 4.87 C 2.13333 km/h
Sensor: Nr:Datum:Temp:Abs-Feuchte:Windchill:Wind:
Aussen-T/F 476 21-12-2013 19:00:00 4.81667 C 5.2 g/m*3 4.82 C 2.66667 km/h
477 21-12-2013 20:00:00 5.00833 C 5.25 g/m*3 5.01 C 4.01667 km/h
478 21-12-2013 21:00:00 4.78333 C 5.31 g/m*3 4.78 C 2.8 km/h
479 21-12-2013 22:00:00 4.79167 C 5.23 g/m*3 4.79 C 3.06667 km/h
480 21-12-2013 23:00:00 5.725 C 4.99 g/m*3 5.73 C 4.40833 km/h
481 22-12-2013 00:00:00 6.39167 C 4.57 g/m*3 5.12 C 6.69167 km/h
482 22-12-2013 01:00:00 7.3 C 4.31 g/m*3 6.62 C 5.21667 km/h
483 22-12-2013 02:00:00 7.425 C 4.9 g/m*3 6.31 C 6.7 km/h
484 22-12-2013 03:00:00 8.35 C 5.78 g/m*3 5.47 C 18.375 km/h
485 22-12-2013 04:00:00 8.01667 C 6.26 g/m*3 5.34 C 15.96667 km/h
486 22-12-2013 05:00:00 7.28333 C 6.84 g/m*3 4.5 C 15.43333 km/h
487 22-12-2013 06:00:00 7.34167 C 7.01 g/m*3 4.14 C 18.9 km/h
488 22-12-2013 07:00:00 7.66667 C 7.3 g/m*3 5.5 C 11.94167 km/h
489 22-12-2013 08:00:00 7.35833 C 7.46 g/m*3 7.36 C 2.13333 km/h
490 22-12-2013 09:00:00 8.13333 C 7.78 g/m*3 7.48 C 5.49167 km/h
491 22-12-2013 10:00:00 9.16667 C 7.91 g/m*3 7.88 C 8.71667 km/h
492 22-12-2013 11:00:00 9.46667 C 7.94 g/m*3 8.65 C 6.83333 km/h
493 22-12-2013 12:00:00 9.71667 C 8.04 g/m*3 9.33 C 5.35833 km/h
494 22-12-2013 13:00:00 10.16667 C 8.01 g/m*3 8.69 C 10.88333 km/h
495 22-12-2013 14:00:00 10.21667 C 7.99 g/m*3 8.34 C 13.7 km/h
496 22-12-2013 15:00:00 9.96667 C 8.05 g/m*3 8.06 C 13.56667 km/h
497 22-12-2013 16:00:00 10.09167 C 7.95 g/m*3 8.12 C 14.23333 km/h
498 22-12-2013 17:00:00 10 C 7.92 g/m*3 7.93 C 14.9 km/h
499 22-12-2013 18:00:00 9.925 C 7.93 g/m*3 7.51 C 17.7 km/h
500 22-12-2013 19:00:00 9.9 C 7.95 g/m*3 7.19 C 20.65 km/h
Sensor: Nr:Datum:Temp:Abs-Feuchte:Windchill:Wind:
Aussen-T/F 501 22-12-2013 20:00:00 9.93333 C 7.94 g/m*3 7.23 C 20.63333 km/h
502 22-12-2013 21:00:00 9.725 C 8 g/m*3 7.67 C 14.23333 km/h
503 22-12-2013 22:00:00 9.38333 C 8.15 g/m*3 8.08 C 9.00833 km/h
504 22-12-2013 23:00:00 8.63333 C 8.06 g/m*3 8.63 C 3.60833 km/h
505 23-12-2013 00:00:00 8.025 C 7.84 g/m*3 8.03 C 4.26667 km/h
506 23-12-2013 01:00:00 7.83333 C 7.39 g/m*3 5.43 C 13.675 km/h
507 23-12-2013 02:00:00 5.83333 C 6.77 g/m*3 5.83 C 4.14167 km/h
508 23-12-2013 03:00:00 5.975 C 6.82 g/m*3 5.11 C 5.20833 km/h
509 23-12-2013 04:00:00 5.9 C 6.82 g/m*3 5.9 C 4.13333 km/h
510 23-12-2013 05:00:00 7.15833 C 6.88 g/m*3 5.19 C 10.21667 km/h
511 23-12-2013 06:00:00 6.43333 C 6.73 g/m*3 5.4 C 5.9 km/h
512 23-12-2013 07:00:00 5.95 C 6.74 g/m*3 5.95 C 3.46667 km/h
513 23-12-2013 08:00:00 5.51667 C 6.58 g/m*3 5.52 C 2 km/h
514 23-12-2013 09:00:00 5.175 C 6.53 g/m*3 5.18 C 0.8 km/h
515 23-12-2013 10:00:00 6.825 C 7.14 g/m*3 5.17 C 8.4625 km/h
516 23-12-2013 11:00:00 8.99167 C 7.38 g/m*3 7.67 C 8.73333 km/h
517 23-12-2013 12:00:00 9.54167 C 7.54 g/m*3 8.54 C 7.65833 km/h
518 23-12-2013 13:00:00 10.1125 C 7.52 g/m*3 9.7 C 5.625 km/h
519 23-12-2013 14:00:00 10.69167 C 7.61 g/m*3 9.76 C 8.325 km/h
520 23-12-2013 15:00:00 10.9 C 7.6 g/m*3 9.88 C 9 km/h
521 23-12-2013 16:00:00 10.1 C 7.61 g/m*3 9.48 C 6.4 km/h
522 23-12-2013 17:00:00 10.58333 C 7.78 g/m*3 9.82 C 7.4 km/h
523 23-12-2013 18:00:00 10.55833 C 7.8 g/m*3 10.21 C 5.625 km/h
524 23-12-2013 19:00:00 9.97778 C 7.59 g/m*3 9.43 C 6.07778 km/h
525 23-12-2013 20:00:00 10.26667 C 7.46 g/m*3 9.2 C 8.58333 km/h
Sensor: Nr:Datum:Temp:Abs-Feuchte:Windchill:Wind:
Aussen-T/F 526 23-12-2013 21:00:00 10.21667 C 7.42 g/m*3 9.19 C 8.34167 km/h
527 23-12-2013 22:00:00 10.43333 C 7.42 g/m*3 9.23 C 9.54167 km/h
528 23-12-2013 23:00:00 10.25833 C 7.26 g/m*3 8.99 C 9.69167 km/h
529 24-12-2013 00:00:00 9.9 C 6.99 g/m*3 8.72 C 8.86667 km/h
530 24-12-2013 01:00:00 9.575 C 6.84 g/m*3 8.62 C 7.5 km/h
531 24-12-2013 02:00:00 8.85833 C 6.65 g/m*3 7.9 C 6.98333 km/h
532 24-12-2013 03:00:00 8.51667 C 6.66 g/m*3 7.88 C 5.61667 km/h
533 24-12-2013 04:00:00 8.625 C 6.75 g/m*3 7.96 C 5.75833 km/h
534 24-12-2013 05:00:00 9.61667 C 6.84 g/m*3 8.88 C 6.575 km/h
535 24-12-2013 06:00:00 9.81667 C 6.97 g/m*3 9.26 C 6.01667 km/h
536 24-12-2013 07:00:00 9.95833 C 7.05 g/m*3 9.12 C 7.25 km/h
537 24-12-2013 08:00:00 11.84167 C 7.24 g/m*3 11.84 C 8.05833 km/h
538 24-12-2013 09:00:00 12.26667 C 7.36 g/m*3 12.27 C 8.18333 km/h
539 24-12-2013 10:00:00 12.8 C 7.57 g/m*3 12.8 C 8.73333 km/h
540 24-12-2013 11:00:00 13.88333 C 7.48 g/m*3 13.88 C 16.10833 km/h
541 24-12-2013 12:00:00 13.96667 C 7.71 g/m*3 13.97 C 9.94167 km/h
542 24-12-2013 13:00:00 13.85833 C 7.8 g/m*3 13.86 C 10.71667 km/h
543 24-12-2013 14:00:00 13.90833 C 7.92 g/m*3 13.91 C 10.225 km/h
544 24-12-2013 15:00:00 13.08333 C 8.39 g/m*3 13.08 C 8.45833 km/h
545 24-12-2013 16:00:00 12.75 C 8.32 g/m*3 12.75 C 8.6 km/h
546 24-12-2013 17:00:00 12.74167 C 8.3 g/m*3 12.74 C 9.26667 km/h
547 24-12-2013 18:00:00 12.78333 C 8.22 g/m*3 12.78 C 6.70833 km/h
548 24-12-2013 19:00:00 12.73333 C 8.25 g/m*3 12.73 C 8.05 km/h
549 24-12-2013 20:00:00 12.58333 C 8.27 g/m*3 12.58 C 8.6 km/h
550 24-12-2013 21:00:00 11.98182 C 8.58 g/m*3 11.98 C 9.82727 km/h
Sensor: Nr:Datum:Temp:Abs-Feuchte:Windchill:Wind:
Aussen-T/F 551 24-12-2013 22:00:00 11.16 C 8.77 g/m*3 11.16 C 5.3 km/h
552 24-12-2013 23:00:00 10.575 C 8.62 g/m*3 10.58 C 4.81667 km/h
553 25-12-2013 00:00:00 10.85833 C 8.53 g/m*3 10 C 8.05833 km/h
554 25-12-2013 01:00:00 10.64167 C 8.6 g/m*3 10.14 C 6.29167 km/h
555 25-12-2013 02:00:00 10.675 C 8.56 g/m*3 9.9 C 7.50833 km/h
556 25-12-2013 03:00:00 10.8 C 8.7 g/m*3 10.22 C 6.70833 km/h
557 25-12-2013 04:00:00 10.775 C 8.85 g/m*3 10.25 C 6.44167 km/h
558 25-12-2013 05:00:00 10.53333 C 8.86 g/m*3 9.52 C 8.6 km/h
559 25-12-2013 06:00:00 10.025 C 8.58 g/m*3 9.32 C 6.71667 km/h
560 25-12-2013 07:00:00 9.425 C 8.27 g/m*3 7.91 C 10.2 km/h
561 25-12-2013 08:00:00 8.275 C 7.57 g/m*3 7.44 C 6.16667 km/h
562 25-12-2013 09:00:00 7.55 C 7.47 g/m*3 7.55 C 2.93333 km/h
563 25-12-2013 11:00:00 8.16667 C 8.08 g/m*3 8.17 C 0 km/h
564 25-12-2013 16:00:00 7.775 C 7.82 g/m*3 7.78 C 0.26667 km/h
565 25-12-2013 17:00:00 7.40833 C 7.59 g/m*3 7.41 C 0.93333 km/h
566 25-12-2013 18:00:00 6.28333 C 7.06 g/m*3 6.28 C 2.66667 km/h
567 25-12-2013 19:00:00 5.85 C 6.94 g/m*3 5.85 C 1.46667 km/h
568 25-12-2013 20:00:00 6.275 C 7.11 g/m*3 6.28 C 0.8 km/h
569 25-12-2013 21:00:00 5.65 C 6.78 g/m*3 5.65 C 1.73333 km/h
570 25-12-2013 22:00:00 6.06667 C 7.01 g/m*3 6.07 C 1.74167 km/h
571 25-12-2013 23:00:00 6.375 C 7.09 g/m*3 6.38 C 1.33333 km/h
572 26-12-2013 00:00:00 5.80833 C 6.8 g/m*3 5.81 C 2.13333 km/h
573 26-12-2013 01:00:00 5.41667 C 6.69 g/m*3 5.42 C 0.26667 km/h
574 26-12-2013 02:00:00 5.30833 C 6.66 g/m*3 5.31 C 0.13333 km/h
575 26-12-2013 03:00:00 5.50833 C 6.76 g/m*3 5.51 C 0.13333 km/h
Sensor: Nr:Datum:Temp:Abs-Feuchte:Windchill:Wind:
Aussen-T/F 576 26-12-2013 04:00:00 5.79167 C 6.87 g/m*3 5.79 C 0 km/h
577 26-12-2013 05:00:00 5.74167 C 6.85 g/m*3 5.74 C 0 km/h
578 26-12-2013 06:00:00 5.65833 C 6.81 g/m*3 5.66 C 0 km/h
579 26-12-2013 07:00:00 5.7 C 6.83 g/m*3 5.7 C 0.4 km/h
580 26-12-2013 08:00:00 5.79167 C 6.91 g/m*3 5.79 C 0 km/h
581 26-12-2013 09:00:00 5.975 C 7.03 g/m*3 5.98 C 0 km/h
582 26-12-2013 10:00:00 6.15833 C 7.11 g/m*3 6.16 C 0 km/h
583 26-12-2013 11:00:00 6.39167 C 7.2 g/m*3 6.39 C 3.33333 km/h
584 26-12-2013 12:00:00 6.5 C 7.2 g/m*3 5.58 C 5.6 km/h
585 26-12-2013 13:00:00 7.42857 C 7.33 g/m*3 7.43 C 0.68571 km/h
586 26-12-2013 14:00:00 7.65 C 7.37 g/m*3 7.65 C 0.53333 km/h
587 26-12-2013 15:00:00 7.68 C 7.36 g/m*3 7.68 C 0.16 km/h
588 26-12-2013 16:00:00 7.21818 C 7.38 g/m*3 7.22 C 0 km/h
589 26-12-2013 17:00:00 7.05833 C 7.29 g/m*3 7.06 C 1.6 km/h
590 26-12-2013 18:00:00 6.65 C 7.19 g/m*3 6.65 C 2.53333 km/h
591 26-12-2013 19:00:00 6.11667 C 6.98 g/m*3 6.12 C 2.93333 km/h
592 26-12-2013 20:00:00 5.71667 C 6.84 g/m*3 5.72 C 2.66667 km/h
593 26-12-2013 21:00:00 4.83333 C 6.36 g/m*3 4.83 C 4.40833 km/h
594 26-12-2013 22:00:00 5.18333 C 6.41 g/m*3 4.11 C 5.49167 km/h
595 26-12-2013 23:00:00 5.55833 C 6.28 g/m*3 3.96 C 7.36667 km/h
596 27-12-2013 00:00:00 4.73333 C 6.05 g/m*3 3.32 C 6.29167 km/h
597 27-12-2013 01:00:00 4.975 C 6 g/m*3 3.35 C 7.1 km/h
598 27-12-2013 02:00:00 3.525 C 5.69 g/m*3 3.53 C 3.46667 km/h
599 27-12-2013 03:00:00 2.50833 C 5.46 g/m*3 2.51 C 2.53333 km/h
600 27-12-2013 04:00:00 3.53333 C 5.84 g/m*3 3.53 C 3.73333 km/h
Sensor: Nr:Datum:Temp:Abs-Feuchte:Windchill:Wind:
Aussen-T/F 601 27-12-2013 05:00:00 5.075 C 6.02 g/m*3 3.94 C 5.625 km/h
602 27-12-2013 06:00:00 4.95833 C 5.87 g/m*3 4.96 C 3.875 km/h
603 27-12-2013 07:00:00 4.25833 C 5.84 g/m*3 4.26 C 2.13333 km/h
604 27-12-2013 08:00:00 3.90833 C 5.78 g/m*3 3.91 C 3.46667 km/h
605 27-12-2013 09:00:00 5.175 C 5.95 g/m*3 4.15 C 5.35833 km/h
606 27-12-2013 10:00:00 6.55833 C 5.82 g/m*3 4.25 C 11.40833 km/h
607 27-12-2013 11:00:00 7.125 C 5.85 g/m*3 5.59 C 8.18333 km/h
608 27-12-2013 12:00:00 7.71111 C 6 g/m*3 5.96 C 9.68889 km/h
609 27-12-2013 13:00:00 8.35 C 6.26 g/m*3 6.43 C 11.275 km/h
610 27-12-2013 14:00:00 8.8 C 6.44 g/m*3 7.59 C 8.05 km/h
611 27-12-2013 16:00:00 9.2 C 6.71 g/m*3 8.05 C 8.0625 km/h
612 27-12-2013 17:00:00 8.85 C 6.96 g/m*3 8.45 C 5.0125 km/h
613 27-12-2013 18:00:00 8.9 C 7.1 g/m*3 7.82 C 7.525 km/h
614 27-12-2013 19:00:00 9.25 C 7.29 g/m*3 8.71 C 5.625 km/h
615 27-12-2013 20:00:00 9.66667 C 7.64 g/m*3 9.35 C 5.08333 km/h
616 27-12-2013 21:00:00 9.925 C 7.85 g/m*3 9.93 C 4.28333 km/h
617 27-12-2013 22:00:00 10.03333 C 8.25 g/m*3 9.3 C 6.84167 km/h
618 27-12-2013 23:00:00 9.675 C 8.39 g/m*3 9.09 C 6.025 km/h
619 28-12-2013 00:00:00 9.71667 C 8.38 g/m*3 9.72 C 4.675 km/h
620 28-12-2013 01:00:00 9.94167 C 8.27 g/m*3 9.94 C 3.2 km/h
621 28-12-2013 02:00:00 10.85 C 8.06 g/m*3 10.37 C 6.3 km/h
622 28-12-2013 03:00:00 10.79167 C 7.87 g/m*3 10.45 C 5.74167 km/h
623 28-12-2013 04:00:00 10.54167 C 7.77 g/m*3 10.54 C 4.8 km/h
624 28-12-2013 05:00:00 9.9 C 7.99 g/m*3 9.9 C 4.275 km/h
625 28-12-2013 06:00:00 9.20833 C 7.94 g/m*3 9.21 C 4.53333 km/h
Sensor: Nr:Datum:Temp:Abs-Feuchte:Windchill:Wind:
Aussen-T/F 626 28-12-2013 07:00:00 9.35 C 7.86 g/m*3 9.35 C 4.95 km/h
627 28-12-2013 08:00:00 10.06667 C 7.96 g/m*3 9.16 C 7.64167 km/h
628 28-12-2013 09:00:00 9.95833 C 7.92 g/m*3 8.95 C 8.05833 km/h
629 28-12-2013 10:00:00 10.25 C 8.07 g/m*3 8.87 C 10.34167 km/h
630 28-12-2013 11:00:00 10.48333 C 8.19 g/m*3 9.95 C 6.30833 km/h
631 28-12-2013 12:00:00 9.84167 C 8.47 g/m*3 9.84 C 2.54167 km/h
632 28-12-2013 13:00:00 9.45 C 8.51 g/m*3 9.45 C 0.4 km/h
633 28-12-2013 14:00:00 9.36667 C 8.57 g/m*3 9.37 C 0.13333 km/h
634 28-12-2013 15:00:00 9.24167 C 8.58 g/m*3 9.24 C 0 km/h
635 28-12-2013 16:00:00 8.86667 C 8.4 g/m*3 8.87 C 0 km/h
636 28-12-2013 17:00:00 8.51667 C 8.28 g/m*3 8.52 C 0.13333 km/h
637 28-12-2013 18:00:00 8.24167 C 8.15 g/m*3 8.24 C 0 km/h
638 28-12-2013 19:00:00 7.93333 C 7.98 g/m*3 7.93 C 0.4 km/h
639 28-12-2013 20:00:00 7.73333 C 7.9 g/m*3 7.73 C 0.13333 km/h
640 28-12-2013 21:00:00 7.29167 C 7.67 g/m*3 7.29 C 4.28333 km/h
641 28-12-2013 22:00:00 6.58333 C 7.08 g/m*3 5.58 C 5.89167 km/h
642 28-12-2013 23:00:00 5.34167 C 6.43 g/m*3 2.65 C 12.09167 km/h
643 29-12-2013 00:00:00 4.66667 C 6.21 g/m*3 3.19 C 6.45 km/h
644 29-12-2013 01:00:00 4.4 C 6.2 g/m*3 4.4 C 2.13333 km/h
645 29-12-2013 02:00:00 5.075 C 6.29 g/m*3 2.3 C 12.23333 km/h
646 29-12-2013 03:00:00 5.3 C 6.27 g/m*3 3.65 C 7.375 km/h
647 29-12-2013 04:00:00 5.60833 C 6.45 g/m*3 5.61 C 4.95 km/h
648 29-12-2013 05:00:00 5.46667 C 6.59 g/m*3 5.47 C 1.6 km/h
649 29-12-2013 06:00:00 5.51667 C 6.66 g/m*3 5.52 C 3.475 km/h
650 29-12-2013 07:00:00 5.025 C 6.48 g/m*3 5.03 C 2.93333 km/h
Sensor: Nr:Datum:Temp:Abs-Feuchte:Windchill:Wind:
Aussen-T/F 651 29-12-2013 08:00:00 5.10833 C 6.57 g/m*3 5.11 C 3.75 km/h
652 29-12-2013 09:00:00 4.925 C 6.46 g/m*3 4.93 C 3.86667 km/h
653 29-12-2013 10:00:00 5.05 C 6.47 g/m*3 5.05 C 4.97 km/h
654 29-12-2013 13:00:00 7.16667 C 6.66 g/m*3 5.1 C 10.76667 km/h
655 29-12-2013 18:00:00 3.62 C 6.2 g/m*3 3.62 C 3.84 km/h
656 29-12-2013 21:00:00 2.95 C 5.57 g/m*3 2.95 C 4.8 km/h
657 29-12-2013 22:00:00 3.375 C 5.74 g/m*3 3.38 C 4.95833 km/h
658 29-12-2013 23:00:00 2.65 C 5.51 g/m*3 2.65 C 2.54167 km/h
659 30-12-2013 00:00:00 3.13333 C 5.66 g/m*3 3.13 C 3.48333 km/h
660 30-12-2013 01:00:00 3.69167 C 5.82 g/m*3 3.69 C 2.80833 km/h
661 30-12-2013 02:00:00 4.26667 C 5.86 g/m*3 4.27 C 3.6 km/h
662 30-12-2013 03:00:00 3.89167 C 5.75 g/m*3 3.89 C 3.73333 km/h
663 30-12-2013 04:00:00 4.35 C 5.8 g/m*3 4.35 C 3.60833 km/h
664 30-12-2013 05:00:00 4.66667 C 5.76 g/m*3 4.67 C 3.075 km/h
665 30-12-2013 06:00:00 4.82 C 5.68 g/m*3 4.82 C 3.2 km/h
666 30-12-2013 07:00:00 4.8 C 5.63 g/m*3 4.8 C 3.2 km/h
667 30-12-2013 13:00:00 6 C 5.81 g/m*3 4.73 C 6.45 km/h
668 30-12-2013 14:00:00 5.77143 C 5.81 g/m*3 5.77 C 3.2 km/h
669 30-12-2013 15:00:00 4.7 C 5.86 g/m*3 4.7 C 2.4 km/h
670 30-12-2013 16:00:00 4.2 C 5.8 g/m*3 4.2 C 1.6 km/h
671 30-12-2013 18:00:00 4.16667 C 5.79 g/m*3 4.17 C 2.66667 km/h
672 30-12-2013 20:00:00 3.7 C 5.73 g/m*3 3.7 C 0 km/h
673 30-12-2013 21:00:00 3.70833 C 5.74 g/m*3 3.71 C 0 km/h
674 30-12-2013 22:00:00 3.8 C 5.77 g/m*3 3.8 C 0.53333 km/h
675 31-12-2013 01:00:00 3.33333 C 5.53 g/m*3 3.33 C 3.2 km/h
Sensor: Nr:Datum:Temp:Abs-Feuchte:Windchill:Wind:
Aussen-T/F 676 31-12-2013 02:00:00 3.2 C 5.48 g/m*3 3.2 C 3.2 km/h
677 31-12-2013 07:00:00 1.02727 C 4.96 g/m*3 1.03 C 2.03636 km/h
678 31-12-2013 08:00:00 1.075 C 4.96 g/m*3 1.08 C 0.4 km/h
679 31-12-2013 09:00:00 1.15 C 5 g/m*3 1.15 C 0.13333 km/h
680 31-12-2013 10:00:00 1.78333 C 5.26 g/m*3 1.78 C 0.26667 km/h
681 31-12-2013 11:00:00 2.7 C 5.56 g/m*3 2.7 C 0.64 km/h
682 31-12-2013 12:00:00 3.1 C 5.78 g/m*3 3.1 C 2.4 km/h
683 31-12-2013 13:00:00 4.35 C 5.92 g/m*3 4.35 C 1.2 km/h
684 31-12-2013 18:00:00 4.14444 C 5.4 g/m*3 1.93 C 8.76667 km/h
685 31-12-2013 19:00:00 4.60833 C 5.38 g/m*3 2.59 C 8.325 km/h
686 31-12-2013 20:00:00 4.35833 C 5.39 g/m*3 3.11 C 5.63333 km/h
687 31-12-2013 21:00:00 3.925 C 5.39 g/m*3 3.93 C 3.20833 km/h
688 31-12-2013 22:00:00 3.8 C 5.29 g/m*3 3.8 C 4.55 km/h
689 31-12-2013 23:00:00 2.775 C 5.23 g/m*3 2.78 C 2.13333 km/h
690 01-01-2014 00:00:00 2.65 C 5.19 g/m*3 2.65 C 1.46667 km/h
691 01-01-2014 01:00:00 3 C 5.35 g/m*3 3 C 1.2 km/h
692 01-01-2014 02:00:00 3.675 C 5.46 g/m*3 3.68 C 2.80833 km/h
693 01-01-2014 03:00:00 4.36667 C 5.71 g/m*3 4.37 C 2 km/h
694 01-01-2014 04:00:00 4.60833 C 5.98 g/m*3 4.61 C 1.46667 km/h
695 01-01-2014 05:00:00 5.16667 C 6.13 g/m*3 5.17 C 1.86667 km/h
696 01-01-2014 06:00:00 5.48333 C 6.37 g/m*3 5.48 C 0.66667 km/h
697 01-01-2014 07:00:00 5.575 C 6.53 g/m*3 5.58 C 0.53333 km/h
698 01-01-2014 08:00:00 5.025 C 6.34 g/m*3 5.03 C 2.26667 km/h
699 01-01-2014 09:00:00 5.1 C 6.48 g/m*3 5.1 C 1.24444 km/h
700 01-01-2014 10:00:00 6.325 C 6.68 g/m*3 6.33 C 1.6 km/h
Sensor: Nr:Datum:Temp:Abs-Feuchte:Windchill:Wind:
Aussen-T/F 701 01-01-2014 11:00:00 7.025 C 6.8 g/m*3 7.03 C 2.54167 km/h
702 01-01-2014 12:00:00 6.95833 C 6.82 g/m*3 6.96 C 2.93333 km/h
703 01-01-2014 13:00:00 8.69167 C 6.7 g/m*3 8.69 C 4.14167 km/h
704 01-01-2014 14:00:00 8.78333 C 6.79 g/m*3 8.78 C 4.68333 km/h
705 01-01-2014 15:00:00 8.39167 C 6.83 g/m*3 8.39 C 2.8 km/h
706 01-01-2014 16:00:00 7.6 C 6.76 g/m*3 7.6 C 4.55 km/h
707 01-01-2014 17:00:00 7.8 C 6.87 g/m*3 7.01 C 5.76667 km/h
708 01-01-2014 18:00:00 7.95 C 6.98 g/m*3 6.75 C 7.38333 km/h
709 01-01-2014 19:00:00 8.15 C 6.91 g/m*3 7.29 C 6.175 km/h
710 01-01-2014 20:00:00 7.91667 C 6.93 g/m*3 7.92 C 4.81667 km/h
711 01-01-2014 21:00:00 8.5 C 6.97 g/m*3 7.59 C 6.575 km/h
712 01-01-2014 22:00:00 8.13333 C 6.98 g/m*3 7.57 C 5.21667 km/h
713 01-01-2014 23:00:00 8.04167 C 7.02 g/m*3 7.42 C 5.35 km/h
714 02-01-2014 00:00:00 8.63333 C 7.11 g/m*3 8.09 C 5.35833 km/h
715 02-01-2014 01:00:00 8.89167 C 7.19 g/m*3 8.34 C 5.49167 km/h
716 02-01-2014 02:00:00 9.375 C 7.42 g/m*3 8.51 C 6.96667 km/h
717 02-01-2014 03:00:00 8.95833 C 7.53 g/m*3 8.96 C 4.95 km/h
718 02-01-2014 04:00:00 8.1 C 7.57 g/m*3 8.1 C 4.8 km/h
719 02-01-2014 05:00:00 7.69167 C 7.57 g/m*3 7.69 C 3.46667 km/h
720 02-01-2014 06:00:00 7.7 C 7.66 g/m*3 7.7 C 3.2 km/h
721 02-01-2014 07:00:00 7.84545 C 7.78 g/m*3 7.85 C 3.64545 km/h
722 02-01-2014 08:00:00 8.8 C 8.18 g/m*3 7.47 C 8.6 km/h
723 02-01-2014 09:00:00 9.08 C 8.05 g/m*3 9.08 C 3.52 km/h
724 02-01-2014 10:00:00 9.53333 C 8.18 g/m*3 9.53 C 4.68333 km/h
725 02-01-2014 11:00:00 10.38333 C 8.52 g/m*3 10.38 C 4.66667 km/h
Sensor: Nr:Datum:Temp:Abs-Feuchte:Windchill:Wind:
Aussen-T/F 726 02-01-2014 12:00:00 11.01667 C 8.3 g/m*3 11.02 C 9.79167 km/h
727 02-01-2014 13:00:00 10.89167 C 7.94 g/m*3 8.96 C 15.43333 km/h
728 02-01-2014 14:00:00 10.54167 C 7.84 g/m*3 8.63 C 14.63333 km/h
729 02-01-2014 15:00:00 9.29167 C 7.74 g/m*3 8.13 C 8.2 km/h
730 02-01-2014 16:00:00 8.70833 C 7.31 g/m*3 7.23 C 9.275 km/h
731 02-01-2014 17:00:00 7.71111 C 7.08 g/m*3 7.71 C 4.45556 km/h
732 02-01-2014 18:00:00 6.81667 C 7.02 g/m*3 6.82 C 2.8 km/h
733 02-01-2014 19:00:00 6.80833 C 7.14 g/m*3 6.81 C 3.2 km/h
734 02-01-2014 20:00:00 6.31667 C 7.01 g/m*3 6.32 C 2.93333 km/h
735 02-01-2014 21:00:00 6.06667 C 6.88 g/m*3 6.07 C 2.66667 km/h
736 02-01-2014 22:00:00 5.85 C 6.8 g/m*3 5.85 C 2.13333 km/h
737 02-01-2014 23:00:00 4.95833 C 6.43 g/m*3 4.96 C 0.13333 km/h
738 03-01-2014 00:00:00 4.025 C 6.1 g/m*3 4.03 C 0.26667 km/h
739 03-01-2014 01:00:00 3.80833 C 6.06 g/m*3 3.81 C 0.26667 km/h
740 03-01-2014 02:00:00 4.39167 C 6.33 g/m*3 4.39 C 1.73333 km/h
741 03-01-2014 03:00:00 5.03333 C 6.63 g/m*3 5.03 C 2.26667 km/h
742 03-01-2014 04:00:00 6.08333 C 7.02 g/m*3 6.08 C 3.46667 km/h
743 03-01-2014 05:00:00 5.925 C 6.8 g/m*3 5.93 C 3.48333 km/h
744 03-01-2014 06:00:00 5.71667 C 6.81 g/m*3 5.72 C 3.33333 km/h
745 03-01-2014 07:00:00 5.91667 C 6.9 g/m*3 5.92 C 2.8 km/h
746 03-01-2014 08:00:00 6.175 C 7.05 g/m*3 6.18 C 1.2 km/h
747 03-01-2014 09:00:00 7.31667 C 7.34 g/m*3 7.32 C 4.94167 km/h
748 03-01-2014 10:00:00 9.15 C 7.83 g/m*3 8.38 C 6.43333 km/h
749 03-01-2014 11:00:00 9.28333 C 8.08 g/m*3 8.83 C 5.36667 km/h
750 03-01-2014 12:00:00 10.55 C 8.46 g/m*3 8.95 C 12.225 km/h
Sensor: Nr:Datum:Temp:Abs-Feuchte:Windchill:Wind:
Aussen-T/F 751 03-01-2014 13:00:00 11.08333 C 8.48 g/m*3 11.08 C 8.18333 km/h
752 03-01-2014 14:00:00 12.00833 C 8.41 g/m*3 12.01 C 8.59167 km/h
753 03-01-2014 15:00:00 11.86667 C 8.37 g/m*3 11.87 C 4.68333 km/h
754 03-01-2014 16:00:00 11.06667 C 8.28 g/m*3 11.07 C 4.68333 km/h
755 03-01-2014 17:00:00 10.85 C 8.18 g/m*3 10.41 C 6.16667 km/h
756 03-01-2014 18:00:00 10.96667 C 8.17 g/m*3 10.08 C 8.33333 km/h
757 03-01-2014 19:00:00 11.86667 C 8.16 g/m*3 11.87 C 11.01667 km/h
758 03-01-2014 20:00:00 12.36667 C 8.05 g/m*3 12.37 C 20.78333 km/h
759 03-01-2014 21:00:00 12.08333 C 7.84 g/m*3 12.08 C 20.375 km/h
760 03-01-2014 22:00:00 11.55 C 7.49 g/m*3 11.55 C 16.63333 km/h
761 03-01-2014 23:00:00 10.88333 C 6.91 g/m*3 8.92 C 15.7 km/h
762 04-01-2014 00:00:00 9.73333 C 6.63 g/m*3 8.23 C 10.475 km/h
763 04-01-2014 01:00:00 8.58333 C 6.7 g/m*3 8.04 C 5.35 km/h
764 04-01-2014 02:00:00 7.55833 C 6.71 g/m*3 7.56 C 4.80833 km/h
765 04-01-2014 03:00:00 7.925 C 6.75 g/m*3 7.93 C 4.54167 km/h
766 04-01-2014 04:00:00 7.38333 C 6.81 g/m*3 7.38 C 2.66667 km/h
767 04-01-2014 05:00:00 6.20833 C 6.56 g/m*3 6.21 C 3.2 km/h
768 04-01-2014 06:00:00 5.3 C 6.37 g/m*3 5.3 C 3.6 km/h
769 04-01-2014 07:00:00 6.10833 C 6.59 g/m*3 5.17 C 5.48333 km/h
770 04-01-2014 08:00:00 7.01667 C 6.74 g/m*3 5.8 C 6.85 km/h
771 04-01-2014 09:00:00 7.20833 C 6.81 g/m*3 6.1 C 6.55 km/h
772 04-01-2014 10:00:00 7.91667 C 7.07 g/m*3 6.84 C 6.85 km/h
773 04-01-2014 11:00:00 8.275 C 7.14 g/m*3 7.09 C 7.51667 km/h
774 04-01-2014 12:00:00 9.04167 C 7.23 g/m*3 8.64 C 5.075 km/h
775 04-01-2014 13:00:00 9.41667 C 7.28 g/m*3 8.46 C 7.375 km/h
Sensor: Nr:Datum:Temp:Abs-Feuchte:Windchill:Wind:
Aussen-T/F 776 04-01-2014 14:00:00 9.04167 C 7.31 g/m*3 9.04 C 2.40833 km/h
777 04-01-2014 15:00:00 7.9 C 7.63 g/m*3 7.9 C 0.13333 km/h
778 04-01-2014 16:00:00 7.28333 C 7.53 g/m*3 7.28 C 0 km/h
779 04-01-2014 17:00:00 6.71667 C 7.3 g/m*3 6.72 C 0.26667 km/h
780 04-01-2014 18:00:00 6.66667 C 7.32 g/m*3 6.67 C 1.475 km/h
781 04-01-2014 19:00:00 6.59167 C 7.31 g/m*3 6.59 C 2 km/h
782 04-01-2014 20:00:00 6.575 C 7.31 g/m*3 6.58 C 0.4 km/h
783 04-01-2014 21:00:00 7.04167 C 7.54 g/m*3 7.04 C 2.4 km/h
784 04-01-2014 22:00:00 6.89167 C 7.39 g/m*3 6.89 C 2.8 km/h
785 04-01-2014 23:00:00 6.90833 C 7.45 g/m*3 6.91 C 3.73333 km/h
786 05-01-2014 00:00:00 6.85833 C 7.45 g/m*3 6.86 C 3.06667 km/h
787 05-01-2014 01:00:00 7.225 C 7.63 g/m*3 7.23 C 2.66667 km/h
788 05-01-2014 02:00:00 7.45 C 7.68 g/m*3 7.45 C 1.33333 km/h
789 05-01-2014 03:00:00 7.74167 C 7.68 g/m*3 6.75 C 6.425 km/h
790 05-01-2014 04:00:00 7.39167 C 7.46 g/m*3 7.39 C 3.86667 km/h
791 05-01-2014 05:00:00 7.10833 C 7.45 g/m*3 7.11 C 4.01667 km/h
792 05-01-2014 06:00:00 6.94167 C 7.33 g/m*3 6.94 C 4.4 km/h
793 05-01-2014 07:00:00 6.85833 C 7.1 g/m*3 5.65 C 6.70833 km/h
794 05-01-2014 08:00:00 6.00833 C 6.62 g/m*3 5.01 C 5.61667 km/h
795 05-01-2014 09:00:00 6 C 6.52 g/m*3 5.14 C 5.20833 km/h
796 05-01-2014 10:00:00 6.15833 C 6.48 g/m*3 4.92 C 6.43333 km/h
797 05-01-2014 11:00:00 6.5875 C 6.37 g/m*3 4.8 C 8.8625 km/h
798 05-01-2014 13:00:00 6.46667 C 6.24 g/m*3 4.07 C 11.8 km/h
799 05-01-2014 16:00:00 5.76667 C 6.12 g/m*3 4.82 C 5.36667 km/h
800 05-01-2014 17:00:00 5.6 C 6.23 g/m*3 5.6 C 2.74286 km/h
Sensor: Nr:Datum:Temp:Abs-Feuchte:Windchill:Wind:
Aussen-T/F 801 05-01-2014 18:00:00 5.79167 C 6.17 g/m*3 5.79 C 1.86667 km/h
802 05-01-2014 19:00:00 5.875 C 6.13 g/m*3 5.88 C 2.53333 km/h
803 05-01-2014 20:00:00 4.34167 C 5.83 g/m*3 4.34 C 2.26667 km/h
804 05-01-2014 21:00:00 3.85 C 5.76 g/m*3 3.85 C 2.8 km/h
805 05-01-2014 22:00:00 4.71667 C 6.01 g/m*3 4.72 C 2.13333 km/h
806 05-01-2014 23:00:00 3.925 C 5.78 g/m*3 3.93 C 2.93333 km/h
807 06-01-2014 00:00:00 3.31667 C 5.65 g/m*3 3.32 C 2.4 km/h
808 06-01-2014 01:00:00 3.59167 C 5.76 g/m*3 3.59 C 2.40833 km/h
809 06-01-2014 02:00:00 3.8 C 5.87 g/m*3 3.8 C 2.8 km/h
810 06-01-2014 03:00:00 5.075 C 6.28 g/m*3 5.08 C 3.06667 km/h
811 06-01-2014 04:00:00 5.69167 C 6.44 g/m*3 5.69 C 2.4 km/h
812 06-01-2014 05:00:00 5.95 C 6.44 g/m*3 5.95 C 1.73333 km/h
813 06-01-2014 06:00:00 6.25833 C 6.57 g/m*3 6.26 C 1.2 km/h
814 06-01-2014 07:00:00 6.51667 C 6.78 g/m*3 6.52 C 1.6 km/h
815 06-01-2014 08:00:00 7.2 C 7.2 g/m*3 7.2 C 1.46667 km/h
816 06-01-2014 09:00:00 8.21667 C 7.64 g/m*3 8.22 C 1.46667 km/h
817 06-01-2014 10:00:00 8.8 C 7.88 g/m*3 8.8 C 3.06667 km/h
818 06-01-2014 11:00:00 9.80833 C 8.22 g/m*3 9.81 C 3.475 km/h
819 06-01-2014 12:00:00 11.475 C 8.68 g/m*3 11.48 C 4.66667 km/h
820 06-01-2014 13:00:00 12.00833 C 8.73 g/m*3 12.01 C 3.475 km/h
821 06-01-2014 14:00:00 11.71667 C 8.42 g/m*3 11.72 C 4.00833 km/h
822 06-01-2014 15:00:00 10.71667 C 8.23 g/m*3 10.72 C 2.26667 km/h
823 06-01-2014 16:00:00 10.475 C 7.95 g/m*3 10.48 C 4.54167 km/h
824 06-01-2014 17:00:00 9.81667 C 7.97 g/m*3 9.82 C 2.94167 km/h
825 06-01-2014 18:00:00 10.275 C 8.08 g/m*3 10.28 C 4.80833 km/h
Sensor: Nr:Datum:Temp:Abs-Feuchte:Windchill:Wind:
Aussen-T/F 826 06-01-2014 19:00:00 10.65 C 8.52 g/m*3 10.47 C 5.08333 km/h
827 06-01-2014 20:00:00 9.79167 C 8.72 g/m*3 9.79 C 4.13333 km/h
828 06-01-2014 21:00:00 9.74167 C 8.78 g/m*3 9.74 C 3.33333 km/h
829 06-01-2014 22:00:00 9.61667 C 8.68 g/m*3 9.62 C 2.66667 km/h
830 06-01-2014 23:00:00 9.60833 C 8.65 g/m*3 8.68 C 7.38333 km/h
831 07-01-2014 00:00:00 10.76667 C 9.04 g/m*3 8.7 C 16.375 km/h
832 07-01-2014 01:00:00 10.70833 C 8.68 g/m*3 9.49 C 9.94167 km/h
833 07-01-2014 02:00:00 10.325 C 8.74 g/m*3 9.38 C 8.05833 km/h
834 07-01-2014 03:00:00 9.91667 C 8.47 g/m*3 9.45 C 5.74167 km/h
835 07-01-2014 04:00:00 9.28333 C 8.36 g/m*3 9.28 C 3.74167 km/h
836 07-01-2014 05:00:00 10.30833 C 8.25 g/m*3 9.44 C 7.64167 km/h
837 07-01-2014 06:00:00 10.31667 C 8.07 g/m*3 9.83 C 6.03333 km/h
838 07-01-2014 07:00:00 9.64167 C 7.91 g/m*3 9.64 C 4.8 km/h
839 07-01-2014 08:00:00 9.66667 C 7.87 g/m*3 9.27 C 5.35 km/h
840 07-01-2014 09:00:00 10.69167 C 7.91 g/m*3 9.65 C 8.86667 km/h
841 07-01-2014 10:00:00 11.35833 C 8.12 g/m*3 11.36 C 10.46667 km/h
842 07-01-2014 11:00:00 11.81667 C 8.24 g/m*3 11.82 C 8.59167 km/h
843 07-01-2014 12:00:00 11.84167 C 8.39 g/m*3 11.84 C 6.84167 km/h
844 07-01-2014 13:00:00 11.55 C 8.66 g/m*3 11.55 C 3.34167 km/h
845 07-01-2014 14:00:00 12.93333 C 8.39 g/m*3 12.93 C 6.975 km/h
846 07-01-2014 15:00:00 13.25 C 8.11 g/m*3 13.25 C 6.7 km/h
847 07-01-2014 16:00:00 11.85833 C 8.34 g/m*3 11.86 C 3.06667 km/h
848 07-01-2014 17:00:00 10.63333 C 8.39 g/m*3 10.63 C 2 km/h
849 07-01-2014 18:00:00 10.25 C 8.35 g/m*3 10.25 C 3.06667 km/h
850 07-01-2014 19:00:00 10.4 C 8.66 g/m*3 10.4 C 2.13333 km/h
Sensor: Nr:Datum:Temp:Abs-Feuchte:Windchill:Wind:
Aussen-T/F 851 07-01-2014 20:00:00 9.63333 C 8.6 g/m*3 9.63 C 1.86667 km/h
852 07-01-2014 21:00:00 9.79167 C 8.78 g/m*3 9.79 C 2.66667 km/h
853 07-01-2014 22:00:00 10.14167 C 8.8 g/m*3 10.14 C 2.26667 km/h
854 07-01-2014 23:00:00 10.40833 C 8.92 g/m*3 10.41 C 2.93333 km/h
855 08-01-2014 00:00:00 11.3 C 9.06 g/m*3 11.3 C 5.48333 km/h
856 08-01-2014 01:00:00 11.525 C 9.06 g/m*3 11.53 C 7.38333 km/h
857 08-01-2014 02:00:00 11.525 C 9.09 g/m*3 11.53 C 5.35 km/h
858 08-01-2014 03:00:00 11.08333 C 9.06 g/m*3 11.08 C 4.28333 km/h
859 08-01-2014 04:00:00 10.84167 C 9.09 g/m*3 10.84 C 3.34167 km/h
860 08-01-2014 05:00:00 11.51667 C 9.12 g/m*3 11.52 C 10.06667 km/h
861 08-01-2014 06:00:00 12.175 C 9.02 g/m*3 12.18 C 13.56667 km/h
862 08-01-2014 07:00:00 11.95833 C 8.82 g/m*3 11.96 C 10.9 km/h
863 08-01-2014 08:00:00 11.45 C 8.61 g/m*3 11.45 C 9.28333 km/h
864 08-01-2014 09:00:00 11.33333 C 8.48 g/m*3 11.33 C 8.06667 km/h
865 08-01-2014 10:00:00 11.52 C 8.46 g/m*3 11.52 C 9.68 km/h
866 08-01-2014 11:00:00 11.175 C 8.35 g/m*3 11.18 C 7.375 km/h
867 08-01-2014 12:00:00 11.25833 C 8.27 g/m*3 11.26 C 6.43333 km/h
868 08-01-2014 13:00:00 12.45833 C 8.34 g/m*3 12.46 C 10.06667 km/h
869 08-01-2014 14:00:00 12.03333 C 8.38 g/m*3 12.03 C 8.04167 km/h
870 08-01-2014 15:00:00 11.49167 C 8.25 g/m*3 11.49 C 8.45833 km/h
871 08-01-2014 16:00:00 10.38333 C 8.09 g/m*3 10.13 C 5.20833 km/h
872 08-01-2014 17:00:00 9.00833 C 7.92 g/m*3 9.01 C 2.66667 km/h
873 08-01-2014 18:00:00 8.2 C 7.7 g/m*3 8.2 C 1.33333 km/h
874 08-01-2014 19:00:00 7.325 C 7.47 g/m*3 7.33 C 0.26667 km/h
875 08-01-2014 20:00:00 6.98333 C 7.37 g/m*3 6.98 C 0.13333 km/h
Sensor: Nr:Datum:Temp:Abs-Feuchte:Windchill:Wind:
Aussen-T/F 876 08-01-2014 21:00:00 6.63333 C 7.26 g/m*3 6.63 C 0 km/h
877 08-01-2014 22:00:00 6.26667 C 7.09 g/m*3 6.27 C 0 km/h
878 09-01-2014 01:00:00 6.5 C 7.27 g/m*3 6.5 C 0.26667 km/h
879 09-01-2014 02:00:00 6.7 C 7.37 g/m*3 6.7 C 0.26667 km/h
880 09-01-2014 03:00:00 6.68333 C 7.36 g/m*3 6.68 C 0.4 km/h
881 09-01-2014 04:00:00 6.75833 C 7.4 g/m*3 6.76 C 0.8 km/h
882 09-01-2014 05:00:00 7 C 7.59 g/m*3 7 C 1.30909 km/h
883 09-01-2014 07:00:00 9.425 C 8.45 g/m*3 9.1 C 5 km/h
884 09-01-2014 08:00:00 9.53333 C 8.16 g/m*3 9.53 C 2.54167 km/h
885 09-01-2014 09:00:00 9.33333 C 8.2 g/m*3 9.33 C 2.53333 km/h
886 09-01-2014 10:00:00 10.01667 C 8.42 g/m*3 10.02 C 2.53333 km/h
887 09-01-2014 11:00:00 11.28333 C 8.54 g/m*3 11.28 C 8.19167 km/h
888 09-01-2014 12:00:00 12.46667 C 8.55 g/m*3 12.47 C 12.23333 km/h
889 09-01-2014 13:00:00 12.7 C 8.57 g/m*3 12.7 C 13.96667 km/h
890 09-01-2014 14:00:00 12.71667 C 8.6 g/m*3 12.72 C 18.64167 km/h
891 09-01-2014 15:00:00 11.45833 C 8.59 g/m*3 11.46 C 16.1 km/h
892 09-01-2014 16:00:00 10.44167 C 8.17 g/m*3 8.19 C 17.43333 km/h
893 09-01-2014 17:00:00 9.94167 C 8.04 g/m*3 7.79 C 15.43333 km/h
894 09-01-2014 18:00:00 9.91667 C 7.84 g/m*3 7.49 C 17.83333 km/h
895 09-01-2014 19:00:00 9.71667 C 7.78 g/m*3 7.27 C 17.575 km/h
896 09-01-2014 20:00:00 9.53333 C 7.25 g/m*3 7.35 C 14.9 km/h
897 09-01-2014 21:00:00 8.49167 C 6.36 g/m*3 6.14 C 14.35833 km/h
898 09-01-2014 22:00:00 6.95 C 5.84 g/m*3 5.48 C 7.79167 km/h
899 09-01-2014 23:00:00 6.425 C 5.86 g/m*3 6.43 C 4.275 km/h
900 10-01-2014 00:00:00 5.925 C 6.16 g/m*3 5.93 C 0 km/h
Sensor: Nr:Datum:Temp:Abs-Feuchte:Windchill:Wind:
Aussen-T/F 901 10-01-2014 01:00:00 5.7 C 6.3 g/m*3 5.7 C 1.33333 km/h
902 10-01-2014 02:00:00 6.2 C 6.35 g/m*3 6.2 C 3.86667 km/h
903 10-01-2014 03:00:00 5.88333 C 6.22 g/m*3 5.88 C 4.68333 km/h
904 10-01-2014 04:00:00 4.79167 C 5.95 g/m*3 4.79 C 4.80833 km/h
905 10-01-2014 05:00:00 5 C 5.95 g/m*3 3.02 C 8.45 km/h
906 10-01-2014 06:00:00 4.74167 C 5.91 g/m*3 3.76 C 5.075 km/h
907 10-01-2014 07:00:00 5.05833 C 6.02 g/m*3 3.05 C 8.61667 km/h
908 10-01-2014 08:00:00 5.41667 C 6.04 g/m*3 3 C 10.74167 km/h
909 10-01-2014 09:00:00 5.34167 C 6.1 g/m*3 3.7 C 7.38333 km/h
910 10-01-2014 10:00:00 5.69167 C 6.26 g/m*3 4.08 C 7.50833 km/h
911 10-01-2014 11:00:00 6.675 C 6.35 g/m*3 4.14 C 12.88333 km/h
912 10-01-2014 12:00:00 7.5 C 6.5 g/m*3 5.36 C 11.55 km/h
913 10-01-2014 13:00:00 7.71667 C 6.53 g/m*3 5.43 C 12.76667 km/h
914 10-01-2014 14:00:00 7.74167 C 6.59 g/m*3 5.89 C 10.20833 km/h
915 10-01-2014 15:00:00 7.85833 C 6.64 g/m*3 6.57 C 7.65 km/h
916 10-01-2014 16:00:00 6.5 C 6.37 g/m*3 6.5 C 4.26667 km/h
917 10-01-2014 17:00:00 5.1 C 6.12 g/m*3 5.1 C 3.6 km/h
918 10-01-2014 18:00:00 5.08333 C 6.06 g/m*3 4.15 C 5.06667 km/h
919 10-01-2014 19:00:00 5.36667 C 6.08 g/m*3 4.32 C 5.475 km/h
920 10-01-2014 20:00:00 4.7 C 5.91 g/m*3 4.7 C 4 km/h
921 10-01-2014 21:00:00 4.075 C 5.81 g/m*3 4.08 C 1.46667 km/h
922 10-01-2014 22:00:00 3.25 C 5.64 g/m*3 3.25 C 0.4 km/h
923 10-01-2014 23:00:00 3.05833 C 5.64 g/m*3 3.06 C 0 km/h
924 11-01-2014 00:00:00 2.525 C 5.47 g/m*3 2.53 C 0 km/h
925 11-01-2014 01:00:00 2.08333 C 5.31 g/m*3 2.08 C 0.13333 km/h
Sensor: Nr:Datum:Temp:Abs-Feuchte:Windchill:Wind:
Aussen-T/F 926 11-01-2014 02:00:00 1.78333 C 5.25 g/m*3 1.78 C 0.4 km/h
927 11-01-2014 03:00:00 1.54167 C 5.17 g/m*3 1.54 C 0.26667 km/h
928 11-01-2014 04:00:00 1.35 C 5.11 g/m*3 1.35 C 0.4 km/h
929 11-01-2014 05:00:00 0.89167 C 4.97 g/m*3 0.89 C 0 km/h
930 11-01-2014 06:00:00 1.10833 C 5.07 g/m*3 1.11 C 0.66667 km/h
931 11-01-2014 07:00:00 1.4 C 5.17 g/m*3 1.4 C 1.73333 km/h
932 11-01-2014 08:00:00 1.86667 C 5.34 g/m*3 1.87 C 1.2 km/h
933 11-01-2014 09:00:00 2.25833 C 5.49 g/m*3 2.26 C 0 km/h
934 11-01-2014 10:00:00 2.6 C 5.61 g/m*3 2.6 C 0.26667 km/h
935 11-01-2014 11:00:00 3.79167 C 6.12 g/m*3 3.79 C 2.81667 km/h
936 11-01-2014 12:00:00 5.975 C 6.68 g/m*3 3.92 C 9.55833 km/h
937 11-01-2014 13:00:00 6.85 C 6.71 g/m*3 5.14 C 8.73333 km/h
938 11-01-2014 14:00:00 7.66667 C 6.81 g/m*3 5.41 C 12.48333 km/h
939 11-01-2014 15:00:00 7.13333 C 6.79 g/m*3 5.5 C 8.59167 km/h
940 11-01-2014 16:00:00 7.36667 C 6.99 g/m*3 5.47 C 10.09167 km/h
941 11-01-2014 17:00:00 6.41667 C 7.01 g/m*3 5.56 C 5.36667 km/h
942 11-01-2014 18:00:00 6.24167 C 6.59 g/m*3 5.02 C 6.43333 km/h
943 11-01-2014 19:00:00 5.69167 C 6.31 g/m*3 5.69 C 4.43333 km/h
944 11-01-2014 20:00:00 4.46667 C 6.04 g/m*3 4.47 C 3.06667 km/h
945 11-01-2014 21:00:00 4.33333 C 5.92 g/m*3 4.33 C 4.66667 km/h
946 11-01-2014 22:00:00 3.45833 C 5.63 g/m*3 3.46 C 2.8 km/h
947 11-01-2014 23:00:00 2.49167 C 5.41 g/m*3 2.49 C 2 km/h
948 12-01-2014 00:00:00 2 C 5.28 g/m*3 2 C 3.06667 km/h
949 12-01-2014 01:00:00 1.575 C 5.13 g/m*3 1.58 C 3.74167 km/h
950 12-01-2014 02:00:00 1.1 C 4.97 g/m*3 -1.12 C 6.99167 km/h
Sensor: Nr:Datum:Temp:Abs-Feuchte:Windchill:Wind:
Aussen-T/F 951 12-01-2014 03:00:00 0.96667 C 4.97 g/m*3 -1.86 C 8.86667 km/h
952 12-01-2014 04:00:00 1.24167 C 5.07 g/m*3 -1.54 C 8.88333 km/h
953 12-01-2014 05:00:00 1.19167 C 5.05 g/m*3 -1.01 C 6.96667 km/h
954 12-01-2014 06:00:00 0.69167 C 4.88 g/m*3 0.69 C 2.4 km/h
955 12-01-2014 07:00:00 0.54167 C 4.87 g/m*3 0.54 C 3.86667 km/h
956 12-01-2014 08:00:00 0.11667 C 4.74 g/m*3 0.12 C 3.75 km/h
957 12-01-2014 09:00:00 -0.00833 C 4.7 g/m*3 -0.01 C 2 km/h
958 12-01-2014 10:00:00 0.15 C 4.75 g/m*3 0.15 C 4.95 km/h
959 12-01-2014 11:00:00 0.25833 C 4.81 g/m*3 -1.57 C 5.625 km/h
960 12-01-2014 12:00:00 0.46667 C 4.9 g/m*3 0.47 C 2.26667 km/h
961 12-01-2014 13:00:00 0.84167 C 5.03 g/m*3 0.84 C 2.26667 km/h
962 12-01-2014 14:00:00 1.35 C 5.21 g/m*3 1.35 C 2 km/h
963 12-01-2014 15:00:00 1.28571 C 5.19 g/m*3 1.29 C 2.74286 km/h
964 12-01-2014 16:00:00 1 C 5.09 g/m*3 1 C 1.2 km/h
965 12-01-2014 17:00:00 0.1875 C 4.81 g/m*3 0.19 C 0.6 km/h
966 12-01-2014 18:00:00 -0.26667 C 4.66 g/m*3 -0.27 C 0.8 km/h
967 12-01-2014 19:00:00 -0.55833 C 4.57 g/m*3 -0.56 C 0.4 km/h
968 12-01-2014 20:00:00 -0.80833 C 4.49 g/m*3 -0.81 C 1.2 km/h
969 12-01-2014 21:00:00 -1.225 C 4.36 g/m*3 -1.23 C 2.53333 km/h
970 12-01-2014 22:00:00 -1.55 C 4.26 g/m*3 -1.55 C 2.66667 km/h
971 12-01-2014 23:00:00 -1.7 C 4.22 g/m*3 -1.7 C 2 km/h
972 13-01-2014 00:00:00 -1.7 C 4.22 g/m*3 -1.7 C 0.26667 km/h
973 13-01-2014 01:00:00 -1.68333 C 4.22 g/m*3 -1.68 C 0.26667 km/h
974 13-01-2014 02:00:00 -1.08333 C 4.4 g/m*3 -1.08 C 0.66667 km/h
975 13-01-2014 03:00:00 -0.20833 C 4.68 g/m*3 -0.21 C 2.13333 km/h
Sensor: Nr:Datum:Temp:Abs-Feuchte:Windchill:Wind:
Aussen-T/F 976 13-01-2014 04:00:00 0.24167 C 4.83 g/m*3 0.24 C 2.13333 km/h
977 13-01-2014 05:00:00 1.05833 C 5.11 g/m*3 1.06 C 0.53333 km/h
978 13-01-2014 06:00:00 1.825 C 5.38 g/m*3 1.83 C 1.2 km/h
979 13-01-2014 07:00:00 2.33333 C 5.57 g/m*3 2.33 C 0.4 km/h
980 13-01-2014 08:00:00 2.65833 C 5.69 g/m*3 2.66 C 0.53333 km/h
981 13-01-2014 09:00:00 3.18333 C 5.9 g/m*3 3.18 C 0 km/h
982 13-01-2014 10:00:00 3.83333 C 6.19 g/m*3 3.83 C 0.53333 km/h
983 13-01-2014 11:00:00 5.125 C 6.77 g/m*3 5.13 C 2.26667 km/h
984 13-01-2014 12:00:00 6.38333 C 7.31 g/m*3 4.78 C 7.91667 km/h
985 13-01-2014 13:00:00 7.875 C 7.34 g/m*3 6.8 C 6.84167 km/h
986 13-01-2014 14:00:00 8.025 C 7.13 g/m*3 6.87 C 7.24167 km/h
987 13-01-2014 15:00:00 7.38333 C 7.12 g/m*3 7.38 C 1.2 km/h
988 13-01-2014 16:00:00 6.675 C 7.05 g/m*3 6.68 C 2 km/h
989 13-01-2014 17:00:00 6.20833 C 6.97 g/m*3 6.21 C 0.26667 km/h
990 13-01-2014 18:00:00 6.14167 C 6.99 g/m*3 6.14 C 0 km/h
991 13-01-2014 19:00:00 6.025 C 6.98 g/m*3 6.03 C 0 km/h
992 13-01-2014 20:00:00 5.73333 C 6.85 g/m*3 5.73 C 0.26667 km/h
993 13-01-2014 21:00:00 5.3 C 6.63 g/m*3 5.3 C 0 km/h
994 13-01-2014 22:00:00 4.29167 C 6.22 g/m*3 4.29 C 0.13333 km/h
995 13-01-2014 23:00:00 3.94167 C 6.12 g/m*3 3.94 C 1.2 km/h
996 14-01-2014 00:00:00 3.875 C 6.08 g/m*3 3.88 C 2.13333 km/h
997 14-01-2014 01:00:00 3.5 C 5.96 g/m*3 3.5 C 2 km/h
998 14-01-2014 02:00:00 3.3 C 5.88 g/m*3 3.3 C 1.46667 km/h
999 14-01-2014 03:00:00 4.01667 C 6.2 g/m*3 4.02 C 0.26667 km/h
1000 14-01-2014 04:00:00 4.325 C 6.32 g/m*3 4.33 C 1.06667 km/h
Sensor: Nr:Datum:Temp:Abs-Feuchte:Windchill:Wind:
Aussen-T/F 1001 14-01-2014 05:00:00 5.35 C 6.65 g/m*3 3.99 C 6.41667 km/h
1002 14-01-2014 06:00:00 5.18333 C 6.47 g/m*3 5.18 C 4.54167 km/h
1003 14-01-2014 07:00:00 4.65 C 6.31 g/m*3 4.65 C 2.54167 km/h
1004 14-01-2014 08:00:00 4.275 C 6.22 g/m*3 4.28 C 2.54167 km/h
1005 14-01-2014 09:00:00 4.975 C 6.56 g/m*3 4.97 C 2.53333 km/h
1006 14-01-2014 10:00:00 5.8 C 6.71 g/m*3 5.8 C 2.93333 km/h
1007 14-01-2014 11:00:00 5.88 C 6.77 g/m*3 5.88 C 2.88 km/h
1008 14-01-2014 12:00:00 6.9 C 7 g/m*3 6.9 C 2.62727 km/h
1009 14-01-2014 13:00:00 7.55833 C 7.16 g/m*3 7.56 C 3.33333 km/h
1010 14-01-2014 14:00:00 7.975 C 7.18 g/m*3 7.98 C 2.93333 km/h
1011 14-01-2014 15:00:00 7.38333 C 7.13 g/m*3 7.38 C 1.73333 km/h
1012 14-01-2014 16:00:00 7.23333 C 6.93 g/m*3 7.23 C 3.2 km/h
1013 14-01-2014 17:00:00 6.34167 C 6.82 g/m*3 6.34 C 2.26667 km/h
1014 14-01-2014 18:00:00 5.20833 C 6.54 g/m*3 5.21 C 1.33333 km/h
1015 14-01-2014 19:00:00 3.575 C 5.93 g/m*3 3.58 C 1.73333 km/h
1016 14-01-2014 20:00:00 3.21667 C 5.84 g/m*3 3.22 C 0 km/h
1017 14-01-2014 21:00:00 3.36667 C 5.91 g/m*3 3.37 C 0.53333 km/h
1018 14-01-2014 22:00:00 3.81667 C 6.12 g/m*3 3.82 C 0.26667 km/h
1019 14-01-2014 23:00:00 4.375 C 6.35 g/m*3 4.38 C 2.13333 km/h
1020 15-01-2014 00:00:00 4.8 C 6.48 g/m*3 4.8 C 2.26667 km/h
1021 15-01-2014 01:00:00 4.9 C 6.45 g/m*3 4.9 C 2.53333 km/h
1022 15-01-2014 02:00:00 4.8 C 6.31 g/m*3 4.8 C 2.53333 km/h
1023 15-01-2014 03:00:00 4.75833 C 6.1 g/m*3 3.62 C 5.49167 km/h
1024 15-01-2014 04:00:00 4.04167 C 5.61 g/m*3 2.91 C 5.225 km/h
1025 15-01-2014 05:00:00 3.16667 C 5.48 g/m*3 3.17 C 2.66667 km/h
Sensor: Nr:Datum:Temp:Abs-Feuchte:Windchill:Wind:
Aussen-T/F 1026 15-01-2014 06:00:00 2.10833 C 5.22 g/m*3 2.11 C 1.46667 km/h
1027 15-01-2014 07:00:00 1.56667 C 5.11 g/m*3 1.57 C 2.53333 km/h
1028 15-01-2014 08:00:00 1.74167 C 5.2 g/m*3 1.74 C 0.4 km/h
1029 15-01-2014 09:00:00 2.275 C 5.42 g/m*3 2.28 C 0 km/h
1030 15-01-2014 10:00:00 3.45833 C 5.67 g/m*3 3.46 C 1.2 km/h
1031 15-01-2014 11:00:00 4.61667 C 5.77 g/m*3 4.62 C 1.86667 km/h
1032 15-01-2014 12:00:00 5.55 C 5.91 g/m*3 5.55 C 4.40833 km/h
1033 15-01-2014 13:00:00 5.89167 C 5.94 g/m*3 4.1 C 8.31667 km/h
1034 15-01-2014 14:00:00 5.35833 C 6.01 g/m*3 4.26 C 5.625 km/h
1035 15-01-2014 15:00:00 4.81667 C 6.12 g/m*3 4.82 C 1.86667 km/h
1036 15-01-2014 16:00:00 4.46667 C 6.08 g/m*3 4.47 C 1.06667 km/h
1037 15-01-2014 17:00:00 4.44167 C 6.09 g/m*3 4.44 C 1.86667 km/h
1038 15-01-2014 18:00:00 4.725 C 6.04 g/m*3 4.72 C 2 km/h
1039 15-01-2014 19:00:00 4.81667 C 6.11 g/m*3 4.82 C 1.6 km/h
1040 15-01-2014 20:00:00 4.775 C 6.21 g/m*3 4.78 C 0.53333 km/h
1041 15-01-2014 21:00:00 4.65 C 6.29 g/m*3 4.65 C 0.66667 km/h
1042 15-01-2014 22:00:00 4.45833 C 6.29 g/m*3 4.46 C 0 km/h
1043 15-01-2014 23:00:00 4.45833 C 6.36 g/m*3 4.46 C 0 km/h
1044 16-01-2014 00:00:00 4.5 C 6.38 g/m*3 4.5 C 0 km/h
1045 16-01-2014 01:00:00 4.65 C 6.44 g/m*3 4.65 C 0 km/h
1046 16-01-2014 02:00:00 4.9 C 6.55 g/m*3 4.9 C 0 km/h
1047 16-01-2014 03:00:00 5.11667 C 6.71 g/m*3 5.12 C 0.13333 km/h
1048 16-01-2014 04:00:00 5.275 C 6.78 g/m*3 5.28 C 0 km/h
1049 16-01-2014 05:00:00 5.4 C 6.84 g/m*3 5.4 C 0.13333 km/h
1050 16-01-2014 06:00:00 5.54167 C 6.9 g/m*3 5.54 C 0 km/h
Sensor: Nr:Datum:Temp:Abs-Feuchte:Windchill:Wind:
Aussen-T/F 1051 16-01-2014 07:00:00 5.64167 C 6.95 g/m*3 5.64 C 0.13333 km/h
1052 16-01-2014 08:00:00 5.44167 C 6.86 g/m*3 5.44 C 0.53333 km/h
1053 16-01-2014 09:00:00 5.63333 C 6.94 g/m*3 5.63 C 0.53333 km/h
1054 16-01-2014 10:00:00 6.10833 C 7.16 g/m*3 6.11 C 0.26667 km/h
1055 16-01-2014 11:00:00 6.46667 C 7.13 g/m*3 6.47 C 2.8 km/h
1056 16-01-2014 12:00:00 7.55 C 7.36 g/m*3 7.55 C 0.93333 km/h
1057 16-01-2014 13:00:00 8.31667 C 7.28 g/m*3 8.32 C 2.26667 km/h
1058 16-01-2014 14:00:00 8.075 C 7.41 g/m*3 8.07 C 1.2 km/h
1059 16-01-2014 15:00:00 7.94167 C 7.25 g/m*3 7.94 C 3.2 km/h
1060 16-01-2014 16:00:00 8.38333 C 7.23 g/m*3 8.38 C 4.825 km/h
1061 16-01-2014 17:00:00 8.19167 C 7.28 g/m*3 8.19 C 3.06667 km/h
1062 16-01-2014 18:00:00 8.10833 C 7.3 g/m*3 8.11 C 4.95 km/h
1063 16-01-2014 19:00:00 8.7 C 7.35 g/m*3 7.97 C 6.01667 km/h
1064 16-01-2014 20:00:00 7.54167 C 7.22 g/m*3 7.54 C 2.53333 km/h
1065 16-01-2014 21:00:00 7.01667 C 7.19 g/m*3 7.02 C 2 km/h
1066 16-01-2014 22:00:00 6.79167 C 7.11 g/m*3 6.79 C 1.33333 km/h
1067 16-01-2014 23:00:00 5.60833 C 6.61 g/m*3 5.61 C 3.2 km/h
1068 17-01-2014 00:00:00 5.76667 C 6.8 g/m*3 5.77 C 2.66667 km/h
1069 17-01-2014 01:00:00 6.59167 C 7.05 g/m*3 6.59 C 1.46667 km/h
1070 17-01-2014 02:00:00 6.875 C 7.1 g/m*3 6.88 C 0.8 km/h
1071 17-01-2014 03:00:00 6.8 C 7.22 g/m*3 6.8 C 1.46667 km/h
1072 17-01-2014 04:00:00 6.725 C 7.33 g/m*3 6.73 C 0.66667 km/h
1073 17-01-2014 05:00:00 6.51667 C 7.28 g/m*3 6.52 C 1.06667 km/h
1074 17-01-2014 06:00:00 6.41667 C 7.24 g/m*3 6.42 C 1.46667 km/h
1075 17-01-2014 07:00:00 6.1 C 7.07 g/m*3 6.1 C 2.26667 km/h
Sensor: Nr:Datum:Temp:Abs-Feuchte:Windchill:Wind:
Aussen-T/F 1076 17-01-2014 08:00:00 5.48333 C 6.81 g/m*3 5.48 C 2.8 km/h
1077 17-01-2014 09:00:00 6.00833 C 7.04 g/m*3 6.01 C 1.86667 km/h
1078 17-01-2014 10:00:00 6.625 C 7.29 g/m*3 6.63 C 2 km/h
1079 17-01-2014 11:00:00 8.075 C 7.62 g/m*3 8.07 C 2.66667 km/h
1080 17-01-2014 12:00:00 9.18333 C 7.63 g/m*3 9.18 C 4.41667 km/h
1081 17-01-2014 13:00:00 9.93333 C 7.76 g/m*3 9.93 C 0.8 km/h
1082 17-01-2014 14:00:00 10.025 C 7.94 g/m*3 10.03 C 1.2 km/h
1083 17-01-2014 15:00:00 9.28333 C 8.02 g/m*3 9.28 C 2 km/h
1084 17-01-2014 16:00:00 8.51667 C 7.54 g/m*3 8.52 C 3.2 km/h
1085 17-01-2014 17:00:00 6.68333 C 6.89 g/m*3 6.68 C 3.46667 km/h
1086 17-01-2014 18:00:00 6.01667 C 6.76 g/m*3 6.02 C 2.93333 km/h
1087 17-01-2014 19:00:00 5.55833 C 6.6 g/m*3 5.56 C 3.06667 km/h
1088 17-01-2014 20:00:00 5.21667 C 6.44 g/m*3 5.22 C 3.33333 km/h
1089 17-01-2014 21:00:00 4.85833 C 6.28 g/m*3 4.86 C 3.6 km/h
1090 17-01-2014 22:00:00 4.54167 C 6.2 g/m*3 4.54 C 3.33333 km/h
1091 17-01-2014 23:00:00 4.2 C 6.08 g/m*3 4.2 C 2.66667 km/h
1092 18-01-2014 00:00:00 3.775 C 5.93 g/m*3 3.78 C 2.53333 km/h
1093 18-01-2014 01:00:00 3.525 C 5.85 g/m*3 3.53 C 1.73333 km/h
1094 18-01-2014 02:00:00 3.00833 C 5.65 g/m*3 3.01 C 0.66667 km/h
1095 18-01-2014 03:00:00 2.825 C 5.64 g/m*3 2.83 C 0.13333 km/h
1096 18-01-2014 04:00:00 2.60833 C 5.56 g/m*3 2.61 C 0.53333 km/h
1097 18-01-2014 05:00:00 1.90833 C 5.3 g/m*3 1.91 C 0.4 km/h
1098 18-01-2014 06:00:00 1.93333 C 5.36 g/m*3 1.93 C 1.74167 km/h
1099 18-01-2014 07:00:00 2.675 C 5.62 g/m*3 2.68 C 1.06667 km/h
1100 18-01-2014 08:00:00 4.2 C 6 g/m*3 2.07 C 8.46667 km/h
Sensor: Nr:Datum:Temp:Abs-Feuchte:Windchill:Wind:
Aussen-T/F 1101 18-01-2014 09:00:00 4.78333 C 5.96 g/m*3 3.46 C 6.03333 km/h
1102 18-01-2014 10:00:00 4.98333 C 6.02 g/m*3 3.6 C 6.30833 km/h
1103 18-01-2014 11:00:00 5.91667 C 6.79 g/m*3 4.72 C 6.16667 km/h
1104 18-01-2014 12:00:00 6.9 C 6.54 g/m*3 6.9 C 2.4 km/h
1105 18-01-2014 13:00:00 7.56667 C 6.59 g/m*3 7.57 C 3.33333 km/h
1106 18-01-2014 14:00:00 7.95556 C 6.64 g/m*3 7.96 C 4.44444 km/h
1107 18-01-2014 15:00:00 7.825 C 6.72 g/m*3 7.83 C 2.14167 km/h
1108 18-01-2014 16:00:00 6.875 C 6.53 g/m*3 6.88 C 2 km/h
1109 18-01-2014 17:00:00 5.79167 C 6.18 g/m*3 5.79 C 3.06667 km/h
1110 18-01-2014 18:00:00 5.80833 C 6.04 g/m*3 5.81 C 3.46667 km/h
1111 18-01-2014 19:00:00 6.04167 C 6.03 g/m*3 5.19 C 5.2 km/h
1112 18-01-2014 20:00:00 5.04167 C 5.96 g/m*3 5.04 C 2.93333 km/h
1113 18-01-2014 21:00:00 3.34167 C 5.58 g/m*3 3.34 C 1.2 km/h
1114 18-01-2014 22:00:00 2.9 C 5.57 g/m*3 2.9 C 1.46667 km/h
1115 18-01-2014 23:00:00 3.70833 C 5.88 g/m*3 3.71 C 0.13333 km/h
1116 19-01-2014 00:00:00 4.18333 C 6.05 g/m*3 4.18 C 0.26667 km/h
1117 19-01-2014 01:00:00 4.41667 C 6.13 g/m*3 4.42 C 0 km/h
1118 19-01-2014 02:00:00 4.65833 C 6.13 g/m*3 4.66 C 1.2 km/h
1119 19-01-2014 03:00:00 4.46667 C 5.99 g/m*3 4.47 C 1.86667 km/h
1120 19-01-2014 04:00:00 4.2 C 5.94 g/m*3 4.2 C 0.13333 km/h
1121 19-01-2014 05:00:00 4.15 C 5.97 g/m*3 4.15 C 0 km/h
1122 19-01-2014 06:00:00 4.125 C 5.96 g/m*3 4.13 C 0.4 km/h
1123 19-01-2014 07:00:00 3.99167 C 5.9 g/m*3 3.99 C 0.13333 km/h
1124 19-01-2014 08:00:00 3.68333 C 5.82 g/m*3 3.68 C 0 km/h
1125 19-01-2014 09:00:00 4.06667 C 6 g/m*3 4.07 C 0.53333 km/h
Sensor: Nr:Datum:Temp:Abs-Feuchte:Windchill:Wind:
Aussen-T/F 1126 19-01-2014 10:00:00 5.025 C 6.18 g/m*3 3.61 C 6.43333 km/h
1127 19-01-2014 11:00:00 5.625 C 6.31 g/m*3 4.39 C 6.16667 km/h
1128 19-01-2014 12:00:00 6.2 C 6.4 g/m*3 6.2 C 3.46667 km/h
1129 19-01-2014 13:00:00 6.775 C 6.59 g/m*3 6.78 C 0.93333 km/h
1130 19-01-2014 14:00:00 7.1 C 6.65 g/m*3 5.93 C 6.7 km/h
1131 19-01-2014 15:00:00 7.24167 C 6.64 g/m*3 7.24 C 4.40833 km/h
1132 19-01-2014 16:00:00 5.74 C 6.92 g/m*3 5.74 C 0.32 km/h
1133 19-01-2014 17:00:00 4.20833 C 6 g/m*3 4.21 C 0.8 km/h
1134 19-01-2014 18:00:00 3.81667 C 5.93 g/m*3 3.82 C 0.13333 km/h
1135 19-01-2014 19:00:00 3.68333 C 5.91 g/m*3 3.68 C 0.13333 km/h
1136 19-01-2014 20:00:00 3.41667 C 5.81 g/m*3 3.42 C 1.06667 km/h
1137 19-01-2014 21:00:00 3.38333 C 5.8 g/m*3 3.38 C 0 km/h
1138 19-01-2014 22:00:00 3.60833 C 5.88 g/m*3 3.61 C 0 km/h
1139 19-01-2014 23:00:00 3.79167 C 5.96 g/m*3 3.79 C 0 km/h
1140 20-01-2014 00:00:00 4.06667 C 6.07 g/m*3 4.07 C 0 km/h
1141 20-01-2014 01:00:00 4.2 C 6.12 g/m*3 4.2 C 0.26667 km/h
1142 20-01-2014 02:00:00 4.2 C 6.06 g/m*3 4.2 C 0.4 km/h
1143 20-01-2014 03:00:00 4.2 C 6.06 g/m*3 4.2 C 0 km/h
1144 20-01-2014 04:00:00 4.275 C 6.14 g/m*3 4.28 C 0 km/h
1145 20-01-2014 05:00:00 4.3 C 6.1 g/m*3 4.3 C 0 km/h
1146 20-01-2014 06:00:00 4.3 C 6.1 g/m*3 4.3 C 0 km/h
1147 20-01-2014 07:00:00 4.29167 C 6.15 g/m*3 4.29 C 0 km/h
1148 20-01-2014 08:00:00 4.2 C 6.12 g/m*3 4.2 C 0 km/h
1149 20-01-2014 09:00:00 4.2625 C 6.21 g/m*3 4.26 C 0 km/h
1150 20-01-2014 10:00:00 4.36667 C 6.3 g/m*3 4.37 C 0 km/h
Sensor: Nr:Datum:Temp:Abs-Feuchte:Windchill:Wind:
Aussen-T/F 1151 20-01-2014 11:00:00 4.61 C 6.42 g/m*3 4.61 C 0.48 km/h
1152 20-01-2014 12:00:00 4.8 C 6.44 g/m*3 4.8 C 1.14286 km/h
1153 20-01-2014 13:00:00 4.79167 C 6.43 g/m*3 4.79 C 1.33333 km/h
1154 20-01-2014 14:00:00 4.7 C 6.32 g/m*3 4.7 C 2.93333 km/h
1155 20-01-2014 15:00:00 4.61667 C 6.23 g/m*3 4.62 C 1.73333 km/h
1156 20-01-2014 16:00:00 4.58333 C 6.21 g/m*3 4.58 C 0.66667 km/h
1157 20-01-2014 17:00:00 4.55 C 6.16 g/m*3 4.55 C 1.86667 km/h
1158 20-01-2014 18:00:00 4.61667 C 6.13 g/m*3 4.62 C 1.73333 km/h
1159 20-01-2014 19:00:00 4.425 C 6.04 g/m*3 3.2 C 5.60833 km/h
1160 20-01-2014 20:00:00 4.125 C 5.99 g/m*3 4.13 C 0.8 km/h
1161 20-01-2014 21:00:00 3.95 C 5.99 g/m*3 3.95 C 0.13333 km/h
1162 20-01-2014 22:00:00 3.80833 C 6.02 g/m*3 3.81 C 0.53333 km/h
1163 20-01-2014 23:00:00 3.76667 C 6.01 g/m*3 3.77 C 3.06667 km/h
1164 21-01-2014 00:00:00 3.61667 C 5.95 g/m*3 3.62 C 1.33333 km/h
1165 21-01-2014 01:00:00 3.49167 C 5.88 g/m*3 3.49 C 2.93333 km/h
1166 21-01-2014 02:00:00 3.4 C 5.67 g/m*3 1.06 C 8.74167 km/h
1167 21-01-2014 03:00:00 3.16667 C 5.58 g/m*3 1.12 C 7.51667 km/h
1168 21-01-2014 04:00:00 2.94167 C 5.51 g/m*3 1.2 C 6.43333 km/h
1169 21-01-2014 05:00:00 2.88333 C 5.46 g/m*3 2.88 C 4.13333 km/h
1170 21-01-2014 06:00:00 2.88333 C 5.4 g/m*3 2.88 C 3.875 km/h
1171 21-01-2014 07:00:00 2.83333 C 5.39 g/m*3 2.83 C 4.55833 km/h
1172 21-01-2014 08:00:00 2.7 C 5.42 g/m*3 2.7 C 3.88333 km/h
1173 21-01-2014 09:00:00 2.80833 C 5.52 g/m*3 2.81 C 1.86667 km/h
1174 21-01-2014 10:00:00 3.11667 C 5.55 g/m*3 3.12 C 2.66667 km/h
1175 21-01-2014 11:00:00 3.3 C 5.63 g/m*3 3.3 C 2.80833 km/h
Sensor: Nr:Datum:Temp:Abs-Feuchte:Windchill:Wind:
Aussen-T/F 1176 21-01-2014 12:00:00 3.38333 C 5.68 g/m*3 3.38 C 0.4 km/h
1177 21-01-2014 13:00:00 3.875 C 5.76 g/m*3 3.88 C 0.93333 km/h
1178 21-01-2014 14:00:00 4.175 C 5.85 g/m*3 4.18 C 0.93333 km/h
1179 21-01-2014 15:00:00 4.23333 C 5.87 g/m*3 4.23 C 0.53333 km/h
1180 21-01-2014 16:00:00 4.01667 C 5.9 g/m*3 4.02 C 0 km/h
1181 21-01-2014 17:00:00 3.83333 C 5.94 g/m*3 3.83 C 0 km/h
1182 21-01-2014 18:00:00 3.8 C 6.01 g/m*3 3.8 C 0 km/h
1183 21-01-2014 19:00:00 3.9 C 6.06 g/m*3 3.9 C 0 km/h
1184 21-01-2014 20:00:00 3.975 C 6.09 g/m*3 3.98 C 0 km/h
1185 21-01-2014 21:00:00 3.9 C 6.06 g/m*3 3.9 C 0 km/h
1186 21-01-2014 22:00:00 3.9 C 6.06 g/m*3 3.9 C 0 km/h
1187 21-01-2014 23:00:00 3.81667 C 6.03 g/m*3 3.82 C 0 km/h
1188 22-01-2014 00:00:00 3.825 C 6.04 g/m*3 3.83 C 0 km/h
1189 22-01-2014 01:00:00 3.91667 C 6.07 g/m*3 3.92 C 0 km/h
1190 22-01-2014 02:00:00 4 C 6.17 g/m*3 4 C 0 km/h
1191 22-01-2014 03:00:00 4.025 C 6.18 g/m*3 4.03 C 0 km/h
1192 22-01-2014 04:00:00 4.05833 C 6.18 g/m*3 4.06 C 0.66667 km/h
1193 22-01-2014 05:00:00 3.825 C 6.02 g/m*3 3.83 C 1.33333 km/h
1194 22-01-2014 06:00:00 3.58333 C 5.77 g/m*3 2.34 C 5.35 km/h
1195 22-01-2014 07:00:00 3.41667 C 5.64 g/m*3 3.42 C 4.28333 km/h
1196 22-01-2014 08:00:00 3.35 C 5.64 g/m*3 3.35 C 2 km/h
1197 22-01-2014 12:00:00 4.8 C 5.9 g/m*3 3.73 C 5.33333 km/h
1198 22-01-2014 16:00:00 3.4 C 5.8 g/m*3 3.4 C 0.8 km/h
1199 22-01-2014 17:00:00 2.975 C 5.63 g/m*3 2.98 C 2.26667 km/h
1200 22-01-2014 18:00:00 2.66667 C 5.52 g/m*3 2.67 C 2.4 km/h
Sensor: Nr:Datum:Temp:Abs-Feuchte:Windchill:Wind:
Aussen-T/F 1201 22-01-2014 19:00:00 2.25 C 5.41 g/m*3 2.25 C 1.33333 km/h
1202 22-01-2014 20:00:00 1.73333 C 5.24 g/m*3 1.73 C 0 km/h
1203 22-01-2014 21:00:00 1.55833 C 5.21 g/m*3 1.56 C 0.26667 km/h
1204 22-01-2014 22:00:00 1.82222 C 5.33 g/m*3 1.82 C 0 km/h
1205 23-01-2014 09:00:00 3.48 C 5.71 g/m*3 2.31 C 5.12 km/h
1206 23-01-2014 10:00:00 3.65714 C 5.72 g/m*3 1.54 C 8.05714 km/h
1207 23-01-2014 11:00:00 3.8 C 5.65 g/m*3 0.78 C 12.1 km/h
1208 23-01-2014 12:00:00 4.26667 C 5.65 g/m*3 1.32 C 12.23333 km/h
1209 23-01-2014 13:00:00 4.38333 C 5.62 g/m*3 2.33 C 8.31667 km/h
1210 23-01-2014 14:00:00 4.325 C 5.55 g/m*3 2.63 C 6.975 km/h
1211 23-01-2014 15:00:00 4.59167 C 5.69 g/m*3 3.39 C 5.61667 km/h
1212 23-01-2014 16:00:00 4.24167 C 5.85 g/m*3 4.24 C 3.06667 km/h
1213 23-01-2014 17:00:00 3.28333 C 5.68 g/m*3 3.28 C 0.4 km/h
1214 23-01-2014 18:00:00 2.83333 C 5.61 g/m*3 2.83 C 0.26667 km/h
1215 23-01-2014 19:00:00 3.14167 C 5.79 g/m*3 3.14 C 0.66667 km/h
1216 23-01-2014 20:00:00 3.3 C 5.88 g/m*3 3.3 C 1.06667 km/h
1217 23-01-2014 21:00:00 3.35 C 5.9 g/m*3 3.35 C 0 km/h
1218 23-01-2014 22:00:00 3.54167 C 5.98 g/m*3 3.54 C 0.26667 km/h
1219 23-01-2014 23:00:00 3.59167 C 6 g/m*3 3.59 C 0.53333 km/h
1220 24-01-2014 00:00:00 3.05833 C 5.75 g/m*3 1.63 C 5.625 km/h
1221 24-01-2014 01:00:00 3.025 C 5.72 g/m*3 3.03 C 3.33333 km/h
1222 24-01-2014 02:00:00 3.85 C 5.95 g/m*3 1.27 C 10.05833 km/h
1223 24-01-2014 03:00:00 4.25 C 5.99 g/m*3 2.46 C 7.25833 km/h
1224 24-01-2014 04:00:00 4.3 C 5.96 g/m*3 3.11 C 5.475 km/h
1225 24-01-2014 05:00:00 4.29167 C 5.92 g/m*3 3 C 5.75 km/h
Sensor: Nr:Datum:Temp:Abs-Feuchte:Windchill:Wind:
Aussen-T/F 1226 24-01-2014 06:00:00 4.275 C 5.9 g/m*3 2.75 C 6.43333 km/h
1227 24-01-2014 07:00:00 3.825 C 5.8 g/m*3 3.83 C 4.4 km/h
1228 24-01-2014 08:00:00 3.83333 C 5.76 g/m*3 3.83 C 4.275 km/h
1229 24-01-2014 09:00:00 3.95 C 5.84 g/m*3 3.95 C 0.93333 km/h
1230 24-01-2014 10:00:00 4.23636 C 5.96 g/m*3 4.24 C 1.01818 km/h
1231 24-01-2014 12:00:00 4.8 C 5.98 g/m*3 4.8 C 1.6 km/h
1232 24-01-2014 13:00:00 4.8 C 6.04 g/m*3 4.8 C 1.6 km/h
1233 24-01-2014 14:00:00 4.7 C 6 g/m*3 4.7 C 1.2 km/h
1234 24-01-2014 15:00:00 4.7 C 6 g/m*3 4.7 C 1.92 km/h
1235 24-01-2014 17:00:00 4.1 C 6.08 g/m*3 4.1 C 0.32 km/h
1236 24-01-2014 18:00:00 4.1 C 6.08 g/m*3 4.1 C 0 km/h
1237 24-01-2014 19:00:00 3.94167 C 6.02 g/m*3 3.94 C 0 km/h
1238 24-01-2014 20:00:00 3.85833 C 6 g/m*3 3.86 C 0 km/h
1239 24-01-2014 21:00:00 3.66667 C 5.95 g/m*3 3.67 C 0 km/h
1240 24-01-2014 22:00:00 3.5 C 5.9 g/m*3 3.5 C 0 km/h
1241 24-01-2014 23:00:00 3.20833 C 5.79 g/m*3 3.21 C 0 km/h
1242 25-01-2014 00:00:00 3.14167 C 5.76 g/m*3 3.14 C 0 km/h
1243 25-01-2014 01:00:00 3.1 C 5.75 g/m*3 3.1 C 0.13333 km/h
1244 25-01-2014 02:00:00 3.18333 C 5.78 g/m*3 3.18 C 0 km/h
1245 25-01-2014 03:00:00 2.575 C 5.54 g/m*3 2.58 C 0.66667 km/h
1246 25-01-2014 04:00:00 1.5 C 5.16 g/m*3 1.5 C 0.8 km/h
1247 25-01-2014 05:00:00 1.80833 C 5.32 g/m*3 1.81 C 1.2 km/h
1248 25-01-2014 06:00:00 2.325 C 5.51 g/m*3 2.33 C 0.13333 km/h
1249 25-01-2014 07:00:00 2.29167 C 5.5 g/m*3 2.29 C 0.13333 km/h
1250 25-01-2014 08:00:00 1.93333 C 5.36 g/m*3 1.93 C 0 km/h
Sensor: Nr:Datum:Temp:Abs-Feuchte:Windchill:Wind:
Aussen-T/F 1251 25-01-2014 09:00:00 2.175 C 5.44 g/m*3 2.17 C 3.6 km/h
1252 25-01-2014 10:00:00 2.525 C 5.5 g/m*3 2.53 C 1.2 km/h
1253 25-01-2014 11:00:00 3.18333 C 5.66 g/m*3 3.18 C 2.26667 km/h
1254 25-01-2014 12:00:00 3.775 C 5.78 g/m*3 3.78 C 3.33333 km/h
1255 25-01-2014 13:00:00 4.41667 C 5.88 g/m*3 4.42 C 4.66667 km/h
1256 25-01-2014 14:00:00 4.8 C 5.97 g/m*3 4.8 C 4.4 km/h
1257 25-01-2014 17:00:00 3.22 C 5.62 g/m*3 3.22 C 2.88 km/h
1258 25-01-2014 18:00:00 3.2375 C 5.6 g/m*3 3.24 C 0.8 km/h
1259 25-01-2014 22:00:00 3.6 C 5.36 g/m*3 1.06 C 9.66667 km/h
1260 25-01-2014 23:00:00 3.00833 C 5.44 g/m*3 -0.38 C 13.15 km/h
1261 26-01-2014 00:00:00 3.01667 C 5.52 g/m*3 -0.54 C 14.1 km/h
1262 26-01-2014 01:00:00 3.4 C 5.71 g/m*3 0.82 C 9.675 km/h
1263 26-01-2014 02:00:00 4.28333 C 5.9 g/m*3 1.91 C 9.54167 km/h
1264 26-01-2014 03:00:00 5.04167 C 5.9 g/m*3 1.5 C 17.03333 km/h
1265 26-01-2014 04:00:00 5.35833 C 5.89 g/m*3 1.84 C 17.44167 km/h
1266 26-01-2014 05:00:00 5.9 C 5.76 g/m*3 2.07 C 21.16667 km/h
1267 26-01-2014 06:00:00 6.01667 C 5.77 g/m*3 2.1 C 22.25833 km/h
1268 26-01-2014 07:00:00 6.025 C 5.76 g/m*3 2.95 C 15.43333 km/h
1269 26-01-2014 08:00:00 5.8 C 5.74 g/m*3 3.68 C 9.68333 km/h
1270 26-01-2014 09:00:00 5.65 C 5.71 g/m*3 2.77 C 13.56667 km/h
1271 26-01-2014 10:00:00 5.65833 C 5.72 g/m*3 2.66 C 14.36667 km/h
1272 26-01-2014 11:00:00 5.83333 C 5.68 g/m*3 3 C 13.56667 km/h
1273 26-01-2014 12:00:00 6.06 C 5.58 g/m*3 3.55 C 11.94 km/h
1274 26-01-2014 13:00:00 6.15 C 5.56 g/m*3 3.63 C 12.09167 km/h
1275 26-01-2014 14:00:00 6.2 C 5.47 g/m*3 3.99 C 10.48333 km/h
Sensor: Nr:Datum:Temp:Abs-Feuchte:Windchill:Wind:
Aussen-T/F 1276 26-01-2014 15:00:00 6.16667 C 5.45 g/m*3 4.52 C 7.93333 km/h
1277 26-01-2014 16:00:00 5.78333 C 5.34 g/m*3 5.78 C 4.14167 km/h
1278 26-01-2014 17:00:00 5.5 C 5.38 g/m*3 4.42 C 5.625 km/h
1279 26-01-2014 18:00:00 5.2 C 5.51 g/m*3 5.2 C 1.86667 km/h
1280 26-01-2014 19:00:00 4.84167 C 5.68 g/m*3 4.84 C 3.06667 km/h
1281 26-01-2014 20:00:00 4.3 C 5.9 g/m*3 4.3 C 4.13333 km/h
1282 26-01-2014 21:00:00 3.75833 C 5.85 g/m*3 3.76 C 2.66667 km/h
1283 26-01-2014 22:00:00 3.66667 C 5.84 g/m*3 3.67 C 3.2 km/h
1284 26-01-2014 23:00:00 3.78333 C 5.9 g/m*3 3.78 C 4.41667 km/h
1285 27-01-2014 00:00:00 4.1 C 5.97 g/m*3 4.1 C 4.83333 km/h
1286 27-01-2014 01:00:00 4.24167 C 6.13 g/m*3 4.24 C 3.2 km/h
1287 27-01-2014 02:00:00 4.31667 C 6.16 g/m*3 3.03 C 5.75 km/h
1288 27-01-2014 03:00:00 5 C 6.25 g/m*3 2.73 C 9.68333 km/h
1289 27-01-2014 04:00:00 4.19167 C 5.94 g/m*3 4.19 C 4.55833 km/h
1290 27-01-2014 05:00:00 4.28333 C 5.93 g/m*3 2.8 C 6.3 km/h
1291 27-01-2014 06:00:00 4.11667 C 5.77 g/m*3 4.12 C 4 km/h
1292 27-01-2014 07:00:00 3.14167 C 5.54 g/m*3 3.14 C 3.2 km/h
1293 27-01-2014 08:00:00 3.94167 C 5.5 g/m*3 1.73 C 8.59167 km/h
1294 27-01-2014 09:00:00 4.1 C 5.5 g/m*3 4.1 C 4.8 km/h
1295 27-01-2014 12:00:00 5.12727 C 5.43 g/m*3 2.41 C 12.00909 km/h
1296 27-01-2014 13:00:00 4.45833 C 5.64 g/m*3 2.52 C 7.91667 km/h
1297 27-01-2014 14:00:00 5.08333 C 5.36 g/m*3 2.63 C 10.60833 km/h
1298 27-01-2014 15:00:00 5.30833 C 5.31 g/m*3 3.7 C 7.25 km/h
1299 27-01-2014 16:00:00 5.04167 C 5.33 g/m*3 5.04 C 4.55833 km/h
1300 27-01-2014 17:00:00 4.25833 C 5.39 g/m*3 4.26 C 2.94167 km/h
Sensor: Nr:Datum:Temp:Abs-Feuchte:Windchill:Wind:
Aussen-T/F 1301 27-01-2014 18:00:00 4.06364 C 5.33 g/m*3 4.06 C 2.47273 km/h
1302 27-01-2014 21:00:00 4.4 C 6.53 g/m*3 2.53 C 7.65 km/h
1303 28-01-2014 08:00:00 1.4 C 4.96 g/m*3 1.4 C 2.13333 km/h
1304 28-01-2014 10:00:00 3.63333 C 5.25 g/m*3 3.63 C 4.3 km/h
1305 28-01-2014 11:00:00 3.85833 C 5.3 g/m*3 2.5 C 5.75833 km/h
1306 28-01-2014 12:00:00 5.125 C 5.28 g/m*3 3.02 C 9.0625 km/h
1307 28-01-2014 16:00:00 6.6 C 5.66 g/m*3 5.78 C 5.33333 km/h
1308 28-01-2014 17:00:00 3.7 C 5.42 g/m*3 3.7 C 3.2 km/h
1309 28-01-2014 18:00:00 2.69167 C 5.21 g/m*3 2.69 C 3.46667 km/h
1310 28-01-2014 19:00:00 1.925 C 5.02 g/m*3 1.93 C 3.33333 km/h
1311 28-01-2014 20:00:00 1.46667 C 4.93 g/m*3 1.47 C 2.93333 km/h
1312 28-01-2014 21:00:00 1.04167 C 4.84 g/m*3 1.04 C 2.66667 km/h
1313 28-01-2014 22:00:00 0.80833 C 4.77 g/m*3 0.81 C 3.06667 km/h
1314 28-01-2014 23:00:00 0.38333 C 4.72 g/m*3 0.38 C 3.2 km/h
1315 29-01-2014 00:00:00 0.11667 C 4.62 g/m*3 0.12 C 2.8 km/h
1316 29-01-2014 01:00:00 -0.20833 C 4.53 g/m*3 -0.21 C 3.06667 km/h
1317 29-01-2014 02:00:00 0.20833 C 4.69 g/m*3 0.21 C 2.53333 km/h
1318 29-01-2014 03:00:00 0.2 C 4.67 g/m*3 0.2 C 3.2 km/h
1319 29-01-2014 04:00:00 1.2 C 4.87 g/m*3 1.2 C 2.66667 km/h
1320 29-01-2014 05:00:00 1.36667 C 4.84 g/m*3 1.37 C 2.66667 km/h
1321 29-01-2014 07:00:00 1.62222 C 4.73 g/m*3 1.62 C 2.66667 km/h
1322 29-01-2014 08:00:00 1.76667 C 4.74 g/m*3 1.77 C 2.53333 km/h
1323 29-01-2014 09:00:00 2.05 C 4.74 g/m*3 0.17 C 6.43333 km/h
1324 29-01-2014 13:00:00 4.06667 C 4.81 g/m*3 1.75 C 9.13333 km/h
1325 29-01-2014 14:00:00 3.86667 C 4.64 g/m*3 2.65 C 5.36667 km/h
Sensor: Nr:Datum:Temp:Abs-Feuchte:Windchill:Wind:
Aussen-T/F 1326 29-01-2014 15:00:00 3.8 C 4.64 g/m*3 3.8 C 3.2 km/h
1327 29-01-2014 16:00:00 2.9 C 4.49 g/m*3 -0.46 C 12.9 km/h
1328 29-01-2014 17:00:00 2.625 C 4.48 g/m*3 2.63 C 3.6 km/h
1329 29-01-2014 18:00:00 2.01667 C 4.54 g/m*3 2.02 C 1.06667 km/h
1330 29-01-2014 19:00:00 1.78333 C 4.54 g/m*3 1.78 C 3.33333 km/h
1331 29-01-2014 20:00:00 2.23333 C 4.5 g/m*3 2.23 C 4.025 km/h
1332 29-01-2014 21:00:00 1.925 C 4.48 g/m*3 1.93 C 2.53333 km/h
1333 29-01-2014 22:00:00 1.86667 C 4.52 g/m*3 1.87 C 1.86667 km/h
1334 29-01-2014 23:00:00 1.475 C 4.55 g/m*3 1.48 C 1.6 km/h
1335 30-01-2014 00:00:00 2.03333 C 4.57 g/m*3 2.03 C 1.86667 km/h
1336 30-01-2014 01:00:00 1.79167 C 4.6 g/m*3 1.79 C 0.26667 km/h
1337 30-01-2014 02:00:00 1.875 C 4.61 g/m*3 1.88 C 0.8 km/h
1338 30-01-2014 03:00:00 1.9 C 4.56 g/m*3 1.9 C 0.8 km/h
1339 30-01-2014 04:00:00 1.89167 C 4.53 g/m*3 1.89 C 1.86667 km/h
1340 30-01-2014 05:00:00 1.89167 C 4.56 g/m*3 1.89 C 0.13333 km/h
1341 30-01-2014 06:00:00 1.35833 C 4.51 g/m*3 1.36 C 0.66667 km/h
1342 30-01-2014 07:00:00 0.18333 C 4.31 g/m*3 0.18 C 1.46667 km/h
1343 30-01-2014 08:00:00 0.56667 C 4.45 g/m*3 0.57 C 0.26667 km/h
1344 30-01-2014 09:00:00 1.225 C 4.48 g/m*3 1.23 C 0.93333 km/h
1345 30-01-2014 10:00:00 2.10833 C 4.54 g/m*3 2.11 C 2.93333 km/h
1346 30-01-2014 11:00:00 3.06667 C 4.63 g/m*3 3.07 C 4 km/h
1347 30-01-2014 12:00:00 3.35 C 4.74 g/m*3 3.35 C 3.46667 km/h
1348 30-01-2014 13:00:00 4.10833 C 4.95 g/m*3 4.11 C 4.41667 km/h
1349 30-01-2014 14:00:00 5.35833 C 5.1 g/m*3 5.36 C 3.6 km/h
1350 30-01-2014 15:00:00 4.78333 C 5.36 g/m*3 4.78 C 1.06667 km/h
Sensor: Nr:Datum:Temp:Abs-Feuchte:Windchill:Wind:
Aussen-T/F 1351 30-01-2014 16:00:00 4.33333 C 5.37 g/m*3 4.33 C 1.2 km/h
1352 30-01-2014 17:00:00 2.51667 C 4.97 g/m*3 2.52 C 2.4 km/h
1353 30-01-2014 18:00:00 1.54167 C 4.78 g/m*3 1.54 C 2.93333 km/h
1354 30-01-2014 19:00:00 0.91667 C 4.64 g/m*3 0.92 C 2.93333 km/h
1355 30-01-2014 20:00:00 0.58333 C 4.54 g/m*3 0.58 C 2.53333 km/h
1356 30-01-2014 21:00:00 0.225 C 4.43 g/m*3 0.23 C 1.46667 km/h
1357 30-01-2014 22:00:00 0 C 4.41 g/m*3 0 C 1.06667 km/h
1358 30-01-2014 23:00:00 0.05833 C 4.48 g/m*3 0.06 C 0 km/h
1359 31-01-2014 00:00:00 0.23333 C 4.53 g/m*3 0.23 C 0 km/h
1360 31-01-2014 01:00:00 0.33333 C 4.53 g/m*3 0.33 C 0 km/h
1361 31-01-2014 02:00:00 0.225 C 4.49 g/m*3 0.23 C 0 km/h
1362 31-01-2014 03:00:00 -0.01667 C 4.42 g/m*3 -0.02 C 0 km/h
1363 31-01-2014 04:00:00 0.275 C 4.49 g/m*3 0.28 C 0 km/h
1364 31-01-2014 05:00:00 0.13333 C 4.45 g/m*3 0.13 C 0.26667 km/h
1365 31-01-2014 06:00:00 -0.28333 C 4.36 g/m*3 -0.28 C 0.26667 km/h
1366 31-01-2014 07:00:00 -0.95 C 4.23 g/m*3 -0.95 C 0.13333 km/h
1367 31-01-2014 08:00:00 -1.15 C 4.18 g/m*3 -1.15 C 0 km/h
1368 31-01-2014 09:00:00 -1.06667 C 4.23 g/m*3 -1.07 C 0 km/h
1369 31-01-2014 10:00:00 -0.5 C 4.41 g/m*3 -0.5 C 0 km/h
1370 31-01-2014 11:00:00 0.35 C 4.65 g/m*3 0.35 C 1.2 km/h
1371 31-01-2014 12:00:00 1.35833 C 4.88 g/m*3 1.36 C 1.6 km/h
1372 31-01-2014 13:00:00 2.15833 C 5.06 g/m*3 2.16 C 1.86667 km/h
1373 31-01-2014 14:00:00 2.91667 C 5.29 g/m*3 2.92 C 2.53333 km/h
1374 31-01-2014 15:00:00 3.65833 C 5.45 g/m*3 3.66 C 2.8 km/h
1375 31-01-2014 16:00:00 3.95833 C 5.43 g/m*3 3.96 C 4.275 km/h
Sensor: Nr:Datum:Temp:Abs-Feuchte:Windchill:Wind:
Aussen-T/F 1376 31-01-2014 17:00:00 3.3 C 5.21 g/m*3 3.3 C 4.95833 km/h
1377 31-01-2014 18:00:00 1.95833 C 4.99 g/m*3 1.96 C 3.33333 km/h
1378 31-01-2014 19:00:00 1.39167 C 4.9 g/m*3 1.39 C 2.93333 km/h
1379 31-01-2014 20:00:00 1.64167 C 5 g/m*3 1.64 C 4.28333 km/h
1380 31-01-2014 21:00:00 2.63333 C 5.12 g/m*3 0.75 C 6.71667 km/h
1381 31-01-2014 22:00:00 1.425 C 4.89 g/m*3 1.43 C 2.66667 km/h
1382 31-01-2014 23:00:00 0.93333 C 4.82 g/m*3 0.93 C 1.6 km/h
1383 01-02-2014 00:00:00 1.06667 C 4.89 g/m*3 1.07 C 0.93333 km/h
1384 01-02-2014 01:00:00 1.29167 C 4.97 g/m*3 1.29 C 1.46667 km/h
1385 01-02-2014 02:00:00 1.9 C 5.09 g/m*3 1.9 C 3.60833 km/h
1386 01-02-2014 03:00:00 2.20833 C 5.14 g/m*3 2.21 C 2.53333 km/h
1387 01-02-2014 04:00:00 2.98333 C 5.32 g/m*3 2.98 C 4.53333 km/h
1388 01-02-2014 05:00:00 3.48333 C 5.4 g/m*3 3.48 C 4.14167 km/h
1389 01-02-2014 06:00:00 3.68333 C 5.49 g/m*3 3.68 C 3.6 km/h
1390 01-02-2014 07:00:00 4.29167 C 5.54 g/m*3 4.29 C 4.275 km/h
1391 01-02-2014 08:00:00 4.90833 C 5.56 g/m*3 3.84 C 5.35833 km/h
1392 01-02-2014 09:00:00 5.66667 C 5.75 g/m*3 4.31 C 6.56667 km/h
1393 01-02-2014 10:00:00 4.95833 C 6.18 g/m*3 4.96 C 2.8 km/h
1394 01-02-2014 11:00:00 4.49167 C 6.14 g/m*3 4.49 C 2.26667 km/h
1395 01-02-2014 12:00:00 5.28333 C 6.65 g/m*3 5.28 C 1.6 km/h
1396 01-02-2014 13:00:00 6.35 C 6.75 g/m*3 4.04 C 11.15833 km/h
1397 01-02-2014 14:00:00 6.58333 C 6.65 g/m*3 4.28 C 11.41667 km/h
1398 01-02-2014 15:00:00 7 C 6.69 g/m*3 5 C 10.21667 km/h
1399 01-02-2014 16:00:00 6.90833 C 6.7 g/m*3 6.22 C 5.08333 km/h
1400 01-02-2014 17:00:00 6.45833 C 6.66 g/m*3 5.71 C 5.08333 km/h
Sensor: Nr:Datum:Temp:Abs-Feuchte:Windchill:Wind:
Aussen-T/F 1401 01-02-2014 18:00:00 6.25 C 6.59 g/m*3 5.47 C 5.09167 km/h
1402 01-02-2014 19:00:00 5.88333 C 6.55 g/m*3 5.88 C 1.73333 km/h
1403 01-02-2014 20:00:00 5.65833 C 6.51 g/m*3 5.66 C 1.33333 km/h
1404 01-02-2014 21:00:00 5.125 C 6.31 g/m*3 5.13 C 1.2 km/h
1405 01-02-2014 22:00:00 4.70833 C 6.12 g/m*3 4.71 C 2.26667 km/h
1406 01-02-2014 23:00:00 4.175 C 6 g/m*3 4.18 C 1.86667 km/h
1407 02-02-2014 00:00:00 3.80833 C 5.9 g/m*3 3.81 C 0.13333 km/h
1408 02-02-2014 01:00:00 3.79167 C 5.96 g/m*3 3.79 C 0.13333 km/h
1409 02-02-2014 02:00:00 3.70833 C 5.92 g/m*3 3.71 C 0 km/h
1410 02-02-2014 03:00:00 3.70833 C 5.94 g/m*3 3.71 C 0.4 km/h
1411 02-02-2014 04:00:00 3.86667 C 5.99 g/m*3 3.87 C 0.93333 km/h
1412 02-02-2014 05:00:00 4.70833 C 6.23 g/m*3 4.71 C 3.75 km/h
1413 02-02-2014 06:00:00 5.2 C 6.26 g/m*3 5.2 C 1.73333 km/h
1414 02-02-2014 07:00:00 4.44167 C 6.07 g/m*3 4.44 C 1.33333 km/h
1415 02-02-2014 08:00:00 3.3 C 5.73 g/m*3 3.3 C 1.6 km/h
1416 02-02-2014 09:00:00 3.96667 C 6.05 g/m*3 3.97 C 0.66667 km/h
1417 02-02-2014 10:00:00 4.41667 C 6.13 g/m*3 4.42 C 0.93333 km/h
1418 02-02-2014 11:00:00 5.53333 C 6.14 g/m*3 4.24 C 6.31667 km/h
1419 02-02-2014 12:00:00 5.84167 C 6.09 g/m*3 5.84 C 4.40833 km/h
1420 02-02-2014 13:00:00 6.18333 C 6.13 g/m*3 5.03 C 6.15833 km/h
1421 02-02-2014 14:00:00 7.48333 C 6.14 g/m*3 5.61 C 10.08333 km/h
1422 02-02-2014 15:00:00 7.84167 C 6.08 g/m*3 6.11 C 9.7 km/h
1423 02-02-2014 16:00:00 6.43333 C 5.92 g/m*3 5.44 C 5.775 km/h
1424 02-02-2014 17:00:00 4.48333 C 5.6 g/m*3 4.48 C 3.6 km/h
1425 02-02-2014 18:00:00 3.20833 C 5.37 g/m*3 3.21 C 3.73333 km/h
Sensor: Nr:Datum:Temp:Abs-Feuchte:Windchill:Wind:
Aussen-T/F 1426 02-02-2014 19:00:00 2.53333 C 5.27 g/m*3 2.53 C 1.86667 km/h
1427 02-02-2014 20:00:00 1.975 C 5.15 g/m*3 1.98 C 0.53333 km/h
1428 02-02-2014 21:00:00 1.69167 C 5.09 g/m*3 1.69 C 0.8 km/h
1429 02-02-2014 22:00:00 1.00833 C 4.88 g/m*3 1.01 C 0 km/h
1430 02-02-2014 23:00:00 0.3 C 4.68 g/m*3 0.3 C 0.4 km/h
1431 03-02-2014 00:00:00 -0.03333 C 4.59 g/m*3 -0.03 C 0.4 km/h
1432 03-02-2014 01:00:00 -0.49167 C 4.47 g/m*3 -0.49 C 0.26667 km/h
1433 03-02-2014 02:00:00 -0.99167 C 4.34 g/m*3 -0.99 C 0 km/h
1434 03-02-2014 03:00:00 -1.24167 C 4.27 g/m*3 -1.24 C 0 km/h
1435 03-02-2014 04:00:00 -1.40833 C 4.22 g/m*3 -1.41 C 0.13333 km/h
1436 03-02-2014 05:00:00 -1.70833 C 4.14 g/m*3 -1.71 C 0.4 km/h
1437 03-02-2014 06:00:00 -1.8 C 4.15 g/m*3 -1.8 C 0.13333 km/h
1438 03-02-2014 07:00:00 -1.80833 C 4.14 g/m*3 -1.81 C 0.8 km/h
1439 03-02-2014 08:00:00 -1.86667 C 4.13 g/m*3 -1.87 C 0.13333 km/h
1440 03-02-2014 09:00:00 -0.84167 C 4.46 g/m*3 -0.84 C 0.13333 km/h
1441 03-02-2014 10:00:00 0.3 C 4.84 g/m*3 0.3 C 1.46667 km/h
1442 03-02-2014 11:00:00 0.9 C 5.05 g/m*3 0.9 C 0.4 km/h
1443 03-02-2014 12:00:00 1.80833 C 5.38 g/m*3 1.81 C 1.86667 km/h
1444 03-02-2014 13:00:00 2.525 C 5.62 g/m*3 2.53 C 0.4 km/h
1445 03-02-2014 14:00:00 2.91667 C 5.68 g/m*3 2.92 C 0 km/h
1446 03-02-2014 15:00:00 3.23333 C 5.7 g/m*3 3.23 C 0.13333 km/h
1447 03-02-2014 16:00:00 3.34167 C 5.72 g/m*3 3.34 C 0.13333 km/h
1448 03-02-2014 17:00:00 3.25 C 5.72 g/m*3 3.25 C 0.13333 km/h
1449 03-02-2014 18:00:00 3.25 C 5.74 g/m*3 3.25 C 0 km/h
1450 03-02-2014 19:00:00 3.35833 C 5.77 g/m*3 3.36 C 0.4 km/h
Sensor: Nr:Datum:Temp:Abs-Feuchte:Windchill:Wind:
Aussen-T/F 1451 03-02-2014 20:00:00 2.74167 C 5.47 g/m*3 2.74 C 2.53333 km/h
1452 03-02-2014 21:00:00 2.41667 C 5.37 g/m*3 2.42 C 2.13333 km/h
1453 03-02-2014 22:00:00 3.43333 C 5.58 g/m*3 1.96 C 5.9 km/h
1454 03-02-2014 23:00:00 2.94167 C 5.39 g/m*3 2.94 C 3.34167 km/h
1455 04-02-2014 00:00:00 2.73333 C 5.4 g/m*3 2.73 C 3.34167 km/h
1456 04-02-2014 01:00:00 2.575 C 5.34 g/m*3 2.58 C 4.01667 km/h
1457 04-02-2014 02:00:00 2.4 C 5.34 g/m*3 2.4 C 2 km/h
1458 04-02-2014 03:00:00 2.44167 C 5.34 g/m*3 2.44 C 2.66667 km/h
1459 04-02-2014 04:00:00 1.96667 C 5.22 g/m*3 1.97 C 2.8 km/h
1460 04-02-2014 05:00:00 1.675 C 5.17 g/m*3 1.68 C 2.53333 km/h
1461 04-02-2014 06:00:00 2.36667 C 5.43 g/m*3 2.37 C 2.53333 km/h
1462 04-02-2014 07:00:00 2.825 C 5.58 g/m*3 2.83 C 2.80833 km/h
1463 04-02-2014 08:00:00 3.3 C 5.7 g/m*3 3.3 C 1.86667 km/h
1464 04-02-2014 09:00:00 4.95 C 5.87 g/m*3 4.95 C 4.80833 km/h
1465 04-02-2014 10:00:00 5.95833 C 6.01 g/m*3 4.95 C 5.61667 km/h
1466 04-02-2014 11:00:00 6.24167 C 6.08 g/m*3 5.02 C 6.43333 km/h
1467 04-02-2014 12:00:00 6.84167 C 6.22 g/m*3 6.84 C 4.26667 km/h
1468 04-02-2014 13:00:00 7.5 C 6.36 g/m*3 7.5 C 3.73333 km/h
1469 04-02-2014 14:00:00 8.14167 C 6.56 g/m*3 8.14 C 2.8 km/h
1470 04-02-2014 15:00:00 7.26667 C 6.73 g/m*3 7.27 C 1.6 km/h
1471 04-02-2014 16:00:00 7.175 C 6.63 g/m*3 7.18 C 2 km/h
1472 04-02-2014 17:00:00 5.8 C 6.28 g/m*3 5.8 C 3.33333 km/h
1473 04-02-2014 18:00:00 5.26667 C 6.21 g/m*3 5.27 C 1.33333 km/h
1474 04-02-2014 19:00:00 4.28333 C 5.88 g/m*3 4.28 C 2.40833 km/h
1475 04-02-2014 20:00:00 3.48333 C 5.73 g/m*3 3.48 C 1.86667 km/h
Sensor: Nr:Datum:Temp:Abs-Feuchte:Windchill:Wind:
Aussen-T/F 1476 04-02-2014 21:00:00 2.925 C 5.57 g/m*3 2.93 C 2.8 km/h
1477 04-02-2014 22:00:00 2.51667 C 5.47 g/m*3 2.52 C 3.2 km/h
1478 04-02-2014 23:00:00 2.275 C 5.42 g/m*3 2.28 C 2.66667 km/h
1479 05-02-2014 00:00:00 2.25 C 5.43 g/m*3 2.25 C 2.8 km/h
1480 05-02-2014 01:00:00 2.13333 C 5.38 g/m*3 2.13 C 2.66667 km/h
1481 05-02-2014 02:00:00 2.1 C 5.37 g/m*3 2.1 C 3.33333 km/h
1482 05-02-2014 03:00:00 2.66667 C 5.51 g/m*3 2.67 C 4.28333 km/h
1483 05-02-2014 04:00:00 2.8 C 5.47 g/m*3 2.8 C 3.875 km/h
1484 05-02-2014 05:00:00 3.05833 C 5.52 g/m*3 0.99 C 7.51667 km/h
1485 05-02-2014 06:00:00 3.56667 C 5.5 g/m*3 1.18 C 9.00833 km/h
1486 05-02-2014 07:00:00 3.44167 C 5.4 g/m*3 1.92 C 6.03333 km/h
1487 05-02-2014 08:00:00 3.325 C 5.38 g/m*3 3.33 C 3.06667 km/h
1488 05-02-2014 09:00:00 3.20833 C 5.61 g/m*3 3.21 C 1.46667 km/h
1489 05-02-2014 10:00:00 3.89167 C 5.94 g/m*3 3.89 C 2 km/h
1490 05-02-2014 11:00:00 4.93333 C 6.3 g/m*3 4.93 C 2.66667 km/h
1491 05-02-2014 12:00:00 5.58333 C 6.36 g/m*3 5.58 C 3.6 km/h
1492 05-02-2014 13:00:00 6.69167 C 6.46 g/m*3 5.71 C 5.875 km/h
1493 05-02-2014 14:00:00 6.95 C 6.55 g/m*3 5.95 C 6.03333 km/h
1494 05-02-2014 15:00:00 6.25 C 6.46 g/m*3 6.25 C 4.53333 km/h
1495 05-02-2014 16:00:00 6.025 C 6.28 g/m*3 5.16 C 5.225 km/h
1496 05-02-2014 17:00:00 5.80833 C 6.32 g/m*3 5.81 C 4.14167 km/h
1497 05-02-2014 18:00:00 5.95 C 6.51 g/m*3 5.95 C 1.86667 km/h
1498 05-02-2014 19:00:00 5.64167 C 6.42 g/m*3 5.64 C 1.86667 km/h
1499 05-02-2014 20:00:00 5.43333 C 6.39 g/m*3 5.43 C 1.73333 km/h
1500 05-02-2014 21:00:00 6.44167 C 6.49 g/m*3 5.63 C 5.23333 km/h
Sensor: Nr:Datum:Temp:Abs-Feuchte:Windchill:Wind:
Aussen-T/F 1501 05-02-2014 22:00:00 7.8 C 6.43 g/m*3 6.12 C 9.39167 km/h
1502 05-02-2014 23:00:00 7.86667 C 6.48 g/m*3 5.51 C 13.43333 km/h
1503 06-02-2014 00:00:00 7.725 C 6.62 g/m*3 5.44 C 12.75833 km/h
1504 06-02-2014 01:00:00 7.79167 C 6.77 g/m*3 5.42 C 13.41667 km/h
1505 06-02-2014 02:00:00 8.125 C 6.86 g/m*3 6.01 C 12.21667 km/h
1506 06-02-2014 03:00:00 8.29167 C 6.84 g/m*3 6.08 C 13.03333 km/h
1507 06-02-2014 04:00:00 8.26667 C 6.84 g/m*3 6.04 C 13.15833 km/h
1508 06-02-2014 05:00:00 8.05833 C 6.73 g/m*3 5.82 C 12.89167 km/h
1509 06-02-2014 06:00:00 7.66667 C 6.45 g/m*3 5.16 C 14.09167 km/h
1510 06-02-2014 07:00:00 7.05 C 6.28 g/m*3 5.09 C 10.08333 km/h
1511 06-02-2014 08:00:00 6.73333 C 6.18 g/m*3 5.36 C 7.23333 km/h
1512 06-02-2014 09:00:00 7.79167 C 6.38 g/m*3 6.53 C 7.51667 km/h
1513 06-02-2014 10:00:00 8.44167 C 6.51 g/m*3 6.68 C 10.475 km/h
1514 06-02-2014 11:00:00 8.85 C 6.51 g/m*3 6.17 C 17.7 km/h
1515 06-02-2014 12:00:00 9.24167 C 6.48 g/m*3 6.81 C 16.36667 km/h
1516 06-02-2014 13:00:00 9.93333 C 6.4 g/m*3 8.18 C 12.36667 km/h
1517 06-02-2014 14:00:00 10.41667 C 6.46 g/m*3 9.38 C 8.59167 km/h
1518 06-02-2014 15:00:00 10.20833 C 6.32 g/m*3 9.38 C 7.39167 km/h
1519 06-02-2014 16:00:00 9.06667 C 6.51 g/m*3 9.07 C 2.53333 km/h
1520 06-02-2014 17:00:00 8.66667 C 6.47 g/m*3 8.67 C 4.00833 km/h
1521 06-02-2014 18:00:00 8.40833 C 6.54 g/m*3 8.41 C 4.15 km/h
1522 06-02-2014 19:00:00 8.75 C 6.46 g/m*3 8.75 C 3.46667 km/h
1523 06-02-2014 20:00:00 8.05 C 6.57 g/m*3 8.05 C 2.8 km/h
1524 06-02-2014 21:00:00 8.45 C 6.19 g/m*3 7.57 C 6.43333 km/h
1525 06-02-2014 22:00:00 8.04167 C 6.13 g/m*3 8.04 C 3.74167 km/h
Sensor: Nr:Datum:Temp:Abs-Feuchte:Windchill:Wind:
Aussen-T/F 1526 06-02-2014 23:00:00 8.15833 C 6.45 g/m*3 8.16 C 4.40833 km/h
1527 07-02-2014 00:00:00 7.64167 C 6.9 g/m*3 7.64 C 4.4 km/h
1528 07-02-2014 01:00:00 7.76667 C 6.91 g/m*3 7.77 C 3.6 km/h
1529 07-02-2014 02:00:00 8.025 C 6.82 g/m*3 8.03 C 4.14167 km/h
1530 07-02-2014 03:00:00 8.2 C 6.84 g/m*3 8.2 C 4.55 km/h
1531 07-02-2014 04:00:00 7.83333 C 6.96 g/m*3 7.83 C 3.6 km/h
1532 07-02-2014 05:00:00 7.71667 C 6.97 g/m*3 7.72 C 3.60833 km/h
1533 07-02-2014 06:00:00 9.13333 C 7.36 g/m*3 8.13 C 7.38333 km/h
1534 07-02-2014 07:00:00 10.63333 C 7.43 g/m*3 9.56 C 9.00833 km/h
1535 07-02-2014 08:00:00 11.35833 C 7.46 g/m*3 11.36 C 9.40833 km/h
1536 07-02-2014 09:00:00 12.48333 C 7.51 g/m*3 12.48 C 15.03333 km/h
1537 07-02-2014 10:00:00 13.06667 C 7.54 g/m*3 13.07 C 21.575 km/h
1538 07-02-2014 11:00:00 11.65833 C 7.64 g/m*3 11.66 C 28.83333 km/h
1539 07-02-2014 12:00:00 10.76667 C 6.89 g/m*3 7.49 C 31.25833 km/h
1540 07-02-2014 13:00:00 10.35833 C 6.86 g/m*3 7.25 C 27.08333 km/h
1541 07-02-2014 14:00:00 10.54167 C 6.6 g/m*3 7.08 C 33.25 km/h
1542 07-02-2014 15:00:00 9.85833 C 6.65 g/m*3 6.29 C 31.51667 km/h
1543 07-02-2014 16:00:00 9.25833 C 6.53 g/m*3 6.02 C 24.66667 km/h
1544 07-02-2014 17:00:00 8.64167 C 6.61 g/m*3 6.1 C 16.1 km/h
1545 07-02-2014 18:00:00 7.60833 C 6.6 g/m*3 4.3 C 20.51667 km/h
1546 07-02-2014 19:00:00 6.99167 C 6.36 g/m*3 4.42 C 13.56667 km/h
1547 07-02-2014 20:00:00 6.64167 C 6.22 g/m*3 4.21 C 12.23333 km/h
1548 07-02-2014 21:00:00 5.99167 C 6.14 g/m*3 4.09 C 8.86667 km/h
1549 07-02-2014 22:00:00 5.075 C 5.94 g/m*3 4.08 C 5.225 km/h
1550 07-02-2014 23:00:00 3.74167 C 5.64 g/m*3 3.74 C 2.4 km/h
Sensor: Nr:Datum:Temp:Abs-Feuchte:Windchill:Wind:
Aussen-T/F 1551 08-02-2014 00:00:00 2.86667 C 5.46 g/m*3 2.87 C 2.66667 km/h
1552 08-02-2014 01:00:00 2.275 C 5.27 g/m*3 2.28 C 1.33333 km/h
1553 08-02-2014 02:00:00 2.45833 C 5.3 g/m*3 2.46 C 1.6 km/h
1554 08-02-2014 03:00:00 3.55 C 5.53 g/m*3 3.55 C 3.73333 km/h
1555 08-02-2014 04:00:00 5.33333 C 5.86 g/m*3 4 C 6.31667 km/h
1556 08-02-2014 05:00:00 5.925 C 5.98 g/m*3 5.93 C 4.40833 km/h
1557 08-02-2014 06:00:00 6.025 C 6.07 g/m*3 4.94 C 5.88333 km/h
1558 08-02-2014 07:00:00 6.53333 C 6.09 g/m*3 5.02 C 7.64167 km/h
1559 08-02-2014 08:00:00 7.2 C 6.06 g/m*3 5.74 C 7.91667 km/h
1560 08-02-2014 09:00:00 7.78333 C 6.05 g/m*3 6.24 C 8.725 km/h
1561 08-02-2014 10:00:00 8.275 C 6.14 g/m*3 7.03 C 7.79167 km/h
1562 08-02-2014 11:00:00 9.25 C 6.25 g/m*3 8.12 C 8.05 km/h
1563 08-02-2014 12:00:00 9.59167 C 6.55 g/m*3 8.15 C 9.95833 km/h
1564 08-02-2014 13:00:00 8.79167 C 6.91 g/m*3 7.7 C 7.50833 km/h
1565 08-02-2014 14:00:00 8.46667 C 6.95 g/m*3 7.38 C 7.25 km/h
1566 08-02-2014 15:00:00 7.71667 C 7.05 g/m*3 6.84 C 6.025 km/h
1567 08-02-2014 16:00:00 7.16667 C 7.1 g/m*3 7.17 C 3.34167 km/h
1568 08-02-2014 17:00:00 6.475 C 6.91 g/m*3 6.48 C 2.93333 km/h
1569 08-02-2014 18:00:00 6.05 C 6.79 g/m*3 6.05 C 4.28333 km/h
1570 08-02-2014 19:00:00 6.78333 C 6.83 g/m*3 5.81 C 5.89167 km/h
1571 08-02-2014 20:00:00 7.1 C 6.82 g/m*3 5.72 C 7.525 km/h
1572 08-02-2014 21:00:00 7.125 C 6.52 g/m*3 5.65 C 7.93333 km/h
1573 08-02-2014 22:00:00 7.01667 C 6.33 g/m*3 5.28 C 8.98333 km/h
1574 08-02-2014 23:00:00 6.98333 C 6.06 g/m*3 4.76 C 11.425 km/h
1575 09-02-2014 00:00:00 6.35833 C 6.01 g/m*3 3.16 C 16.90833 km/h
Sensor: Nr:Datum:Temp:Abs-Feuchte:Windchill:Wind:
Aussen-T/F 1576 09-02-2014 01:00:00 4.44167 C 5.82 g/m*3 2.1 C 9.525 km/h
1577 09-02-2014 02:00:00 4.44167 C 5.75 g/m*3 2.81 C 6.83333 km/h
1578 09-02-2014 03:00:00 5.75 C 5.8 g/m*3 4.22 C 7.23333 km/h
1579 09-02-2014 04:00:00 5.79167 C 5.84 g/m*3 4.54 C 6.29167 km/h
1580 09-02-2014 05:00:00 5.91667 C 5.88 g/m*3 3.71 C 10.19167 km/h
1581 09-02-2014 06:00:00 5.68333 C 5.86 g/m*3 3.09 C 11.95833 km/h
1582 09-02-2014 07:00:00 5.65 C 5.8 g/m*3 2.73 C 13.825 km/h
1583 09-02-2014 08:00:00 5.725 C 5.78 g/m*3 3.48 C 10.225 km/h
1584 09-02-2014 09:00:00 5.9 C 5.78 g/m*3 3.15 C 13.15 km/h
1585 09-02-2014 10:00:00 6.30833 C 5.79 g/m*3 3.3 C 15.43333 km/h
1586 09-02-2014 11:00:00 6.575 C 5.83 g/m*3 3.36 C 17.43333 km/h
1587 09-02-2014 12:00:00 7.15833 C 5.7 g/m*3 3.66 C 21.175 km/h
1588 09-02-2014 13:00:00 7.725 C 5.55 g/m*3 4.67 C 18.50833 km/h
1589 09-02-2014 14:00:00 6.875 C 5.8 g/m*3 3.82 C 16.775 km/h
1590 09-02-2014 15:00:00 7.31667 C 5.55 g/m*3 4.74 C 14.09167 km/h
1591 09-02-2014 16:00:00 6.80833 C 5.43 g/m*3 4.55 C 11.425 km/h
1592 09-02-2014 17:00:00 6.25833 C 5.33 g/m*3 4.29 C 9.4 km/h
1593 09-02-2014 18:00:00 4.16667 C 5.26 g/m*3 4.17 C 2.26667 km/h
1594 09-02-2014 19:00:00 3.84167 C 5.35 g/m*3 3.84 C 3.34167 km/h
1595 09-02-2014 20:00:00 2.775 C 5.18 g/m*3 2.78 C 3.06667 km/h
1596 09-02-2014 21:00:00 2.7 C 5.24 g/m*3 2.7 C 2.8 km/h
1597 09-02-2014 22:00:00 2.325 C 5.2 g/m*3 2.33 C 1.33333 km/h
1598 09-02-2014 23:00:00 1.75833 C 5.07 g/m*3 1.76 C 0.4 km/h
1599 10-02-2014 00:00:00 1.425 C 5 g/m*3 1.43 C 0.8 km/h
1600 10-02-2014 01:00:00 1.175 C 4.93 g/m*3 1.18 C 0.93333 km/h
Sensor: Nr:Datum:Temp:Abs-Feuchte:Windchill:Wind:
Aussen-T/F 1601 10-02-2014 02:00:00 1.15 C 4.94 g/m*3 1.15 C 2.94167 km/h
1602 10-02-2014 03:00:00 2.84167 C 5.23 g/m*3 0.74 C 7.51667 km/h
1603 10-02-2014 04:00:00 1.50833 C 4.91 g/m*3 1.51 C 2.13333 km/h
1604 10-02-2014 05:00:00 1.775 C 5.05 g/m*3 1.78 C 4.95 km/h
1605 10-02-2014 06:00:00 3.05833 C 5.13 g/m*3 3.06 C 4.96667 km/h
1606 10-02-2014 07:00:00 2.24167 C 5.06 g/m*3 2.24 C 0.93333 km/h
1607 10-02-2014 08:00:00 1.91667 C 5.04 g/m*3 1.92 C 0.26667 km/h
1608 10-02-2014 09:00:00 2.31667 C 5.18 g/m*3 2.32 C 0.13333 km/h
1609 10-02-2014 10:00:00 3.80833 C 5.32 g/m*3 1.95 C 7.25 km/h
1610 10-02-2014 11:00:00 5.95833 C 5.3 g/m*3 3.9 C 9.55 km/h
1611 10-02-2014 12:00:00 6.5 C 4.92 g/m*3 5.44 C 6.025 km/h
1612 10-02-2014 13:00:00 6.66667 C 4.85 g/m*3 5.94 C 5.08333 km/h
1613 10-02-2014 14:00:00 6.78333 C 4.9 g/m*3 6.78 C 4.93333 km/h
1614 10-02-2014 15:00:00 6.01667 C 5.44 g/m*3 6.02 C 4.15833 km/h
1615 10-02-2014 16:00:00 4.5 C 5.92 g/m*3 4.5 C 0.26667 km/h
1616 10-02-2014 17:00:00 3.775 C 5.87 g/m*3 3.78 C 0 km/h
1617 10-02-2014 18:00:00 3.48333 C 5.83 g/m*3 3.48 C 0 km/h
1618 10-02-2014 19:00:00 3.3 C 5.79 g/m*3 3.3 C 0 km/h
1619 10-02-2014 20:00:00 3.14167 C 5.75 g/m*3 3.14 C 0.8 km/h
1620 10-02-2014 21:00:00 2.63333 C 5.51 g/m*3 2.63 C 1.86667 km/h
1621 10-02-2014 22:00:00 2.63333 C 5.52 g/m*3 2.63 C 2.8 km/h
1622 10-02-2014 23:00:00 2.70833 C 5.53 g/m*3 2.71 C 4.40833 km/h
1623 11-02-2014 00:00:00 2.95 C 5.63 g/m*3 2.95 C 4.275 km/h
1624 11-02-2014 01:00:00 3.64167 C 5.7 g/m*3 0.95 C 10.36667 km/h
1625 11-02-2014 02:00:00 4.10833 C 5.77 g/m*3 1.4 C 10.88333 km/h
Sensor: Nr:Datum:Temp:Abs-Feuchte:Windchill:Wind:
Aussen-T/F 1626 11-02-2014 03:00:00 3.875 C 5.75 g/m*3 1.52 C 9.13333 km/h
1627 11-02-2014 04:00:00 3.99167 C 5.78 g/m*3 2.38 C 6.55833 km/h
1628 11-02-2014 05:00:00 3.86667 C 5.76 g/m*3 2.32 C 6.29167 km/h
1629 11-02-2014 06:00:00 4.78333 C 5.94 g/m*3 3.05 C 7.375 km/h
1630 11-02-2014 07:00:00 5.325 C 5.92 g/m*3 2.71 C 11.69167 km/h
1631 11-02-2014 08:00:00 5.425 C 5.81 g/m*3 3.01 C 10.75833 km/h
1632 11-02-2014 09:00:00 5.69167 C 5.64 g/m*3 3.61 C 9.4 km/h
1633 11-02-2014 10:00:00 5.94167 C 5.84 g/m*3 3.88 C 9.54167 km/h
1634 11-02-2014 11:00:00 6.43333 C 6.05 g/m*3 3.67 C 13.96667 km/h
1635 11-02-2014 12:00:00 6.61667 C 5.88 g/m*3 4.07 C 12.89167 km/h
1636 11-02-2014 13:00:00 7.31667 C 5.83 g/m*3 5.6 C 9.14167 km/h
1637 11-02-2014 14:00:00 7.98333 C 5.68 g/m*3 6.66 C 7.9 km/h
1638 11-02-2014 15:00:00 8.38333 C 5.5 g/m*3 6.98 C 8.59167 km/h
1639 11-02-2014 16:00:00 7.3 C 5.54 g/m*3 6.66 C 5.08333 km/h
1640 11-02-2014 17:00:00 5.775 C 5.61 g/m*3 5.78 C 3.2 km/h
1641 11-02-2014 18:00:00 4.575 C 5.61 g/m*3 4.58 C 3.06667 km/h
1642 11-02-2014 19:00:00 4.65 C 5.64 g/m*3 4.65 C 3.075 km/h
1643 11-02-2014 20:00:00 4.68333 C 5.64 g/m*3 4.68 C 2.26667 km/h
1644 11-02-2014 21:00:00 5.225 C 5.57 g/m*3 5.23 C 3.2 km/h
1645 11-02-2014 22:00:00 5.625 C 5.61 g/m*3 5.63 C 2.53333 km/h
1646 11-02-2014 23:00:00 5.75833 C 5.71 g/m*3 5.76 C 2.66667 km/h
1647 12-02-2014 00:00:00 5.45 C 5.93 g/m*3 5.45 C 2.94167 km/h
1648 12-02-2014 01:00:00 5.31667 C 5.99 g/m*3 3.99 C 6.31667 km/h
1649 12-02-2014 02:00:00 5.15 C 6.02 g/m*3 2.68 C 10.74167 km/h
1650 12-02-2014 03:00:00 5.00833 C 5.98 g/m*3 2.2 C 12.36667 km/h
Sensor: Nr:Datum:Temp:Abs-Feuchte:Windchill:Wind:
Aussen-T/F 1651 12-02-2014 04:00:00 4.225 C 5.77 g/m*3 2.6 C 6.71667 km/h
1652 12-02-2014 05:00:00 3.73333 C 5.66 g/m*3 2.07 C 6.58333 km/h
1653 12-02-2014 06:00:00 3.61667 C 5.55 g/m*3 1.85 C 6.84167 km/h
1654 12-02-2014 07:00:00 3.88333 C 5.64 g/m*3 1.81 C 8.05 km/h
1655 12-02-2014 08:00:00 3.55 C 5.55 g/m*3 3.55 C 3.61667 km/h
1656 12-02-2014 09:00:00 3.69167 C 5.62 g/m*3 3.69 C 4.68333 km/h
1657 12-02-2014 10:00:00 5.475 C 5.69 g/m*3 3.1 C 10.61667 km/h
1658 12-02-2014 11:00:00 6.29167 C 5.59 g/m*3 3.46 C 14.225 km/h
1659 12-02-2014 12:00:00 6.75833 C 5.63 g/m*3 4.22 C 13.03333 km/h
1660 12-02-2014 13:00:00 7.95833 C 5.54 g/m*3 5.8 C 12.225 km/h
1661 12-02-2014 14:00:00 8.14167 C 5.5 g/m*3 6.18 C 11.3 km/h
1662 12-02-2014 15:00:00 8.34167 C 5.35 g/m*3 6.56 C 10.48333 km/h
1663 12-02-2014 16:00:00 7.31667 C 5.42 g/m*3 7.32 C 4.275 km/h
1664 12-02-2014 17:00:00 5.75833 C 5.38 g/m*3 4.91 C 5.08333 km/h
1665 12-02-2014 18:00:00 4.54167 C 5.37 g/m*3 4.54 C 2.8 km/h
1666 12-02-2014 19:00:00 4.33333 C 5.48 g/m*3 4.33 C 1.86667 km/h
1667 12-02-2014 20:00:00 4.58333 C 5.58 g/m*3 4.58 C 3.2 km/h
1668 12-02-2014 21:00:00 4.89167 C 5.64 g/m*3 4.89 C 2.93333 km/h
1669 12-02-2014 22:00:00 6.475 C 5.58 g/m*3 4.76 C 8.45 km/h
1670 12-02-2014 23:00:00 6.075 C 6.02 g/m*3 4.91 C 6.15833 km/h
1671 13-02-2014 00:00:00 5.625 C 6.03 g/m*3 3.63 C 8.99167 km/h
1672 13-02-2014 01:00:00 5.98333 C 6.14 g/m*3 3.63 C 11.025 km/h
1673 13-02-2014 02:00:00 5.925 C 6.32 g/m*3 5.93 C 3.075 km/h
1674 13-02-2014 03:00:00 5.80833 C 6.56 g/m*3 5.81 C 3.08333 km/h
1675 13-02-2014 04:00:00 6.2 C 6.66 g/m*3 4.74 C 7.24167 km/h
Sensor: Nr:Datum:Temp:Abs-Feuchte:Windchill:Wind:
Aussen-T/F 1676 13-02-2014 05:00:00 6.16667 C 6.43 g/m*3 4.24 C 9.125 km/h
1677 13-02-2014 06:00:00 5.43333 C 6.23 g/m*3 5.43 C 4.93333 km/h
1678 13-02-2014 07:00:00 5.425 C 6.21 g/m*3 5.43 C 4.81667 km/h
1679 13-02-2014 08:00:00 5.88333 C 6.37 g/m*3 5.88 C 2.8 km/h
1680 13-02-2014 09:00:00 6.30833 C 6.48 g/m*3 6.31 C 2.675 km/h
1681 13-02-2014 10:00:00 7.5 C 6.58 g/m*3 7.5 C 4.14167 km/h
1682 13-02-2014 11:00:00 7.90833 C 6.78 g/m*3 7.91 C 2.13333 km/h
1683 13-02-2014 12:00:00 7.28333 C 7 g/m*3 7.28 C 2.41667 km/h
1684 13-02-2014 13:00:00 5.91667 C 6.6 g/m*3 5.09 C 5.1 km/h
1685 13-02-2014 14:00:00 4.95833 C 6.25 g/m*3 3.85 C 5.49167 km/h
1686 13-02-2014 15:00:00 4.61667 C 6.19 g/m*3 4.62 C 0.4 km/h
1687 13-02-2014 16:00:00 4.55 C 6.19 g/m*3 4.55 C 4.69167 km/h
1688 13-02-2014 17:00:00 4.59167 C 6.18 g/m*3 2.9 C 7.10833 km/h
1689 13-02-2014 18:00:00 5.1 C 6.27 g/m*3 3.24 C 8.05833 km/h
1690 13-02-2014 19:00:00 5.59167 C 6.38 g/m*3 3.29 C 10.34167 km/h
1691 13-02-2014 20:00:00 5.64167 C 6.29 g/m*3 3.22 C 11.025 km/h
1692 13-02-2014 21:00:00 5.41667 C 5.94 g/m*3 2.49 C 13.56667 km/h
1693 13-02-2014 22:00:00 4.96667 C 5.63 g/m*3 2.75 C 9.40833 km/h
1694 13-02-2014 23:00:00 4.425 C 5.55 g/m*3 2.63 C 7.375 km/h
1695 14-02-2014 00:00:00 4.45833 C 5.6 g/m*3 3 C 6.3 km/h
1696 14-02-2014 01:00:00 4.36667 C 5.58 g/m*3 2.01 C 9.54167 km/h
1697 14-02-2014 02:00:00 4.91667 C 5.62 g/m*3 2.54 C 10.08333 km/h
1698 14-02-2014 03:00:00 4.98333 C 5.59 g/m*3 2.77 C 9.425 km/h
1699 14-02-2014 04:00:00 4.69167 C 5.48 g/m*3 2.83 C 7.8 km/h
1700 14-02-2014 05:00:00 4.19167 C 5.4 g/m*3 2.17 C 8.05 km/h
Sensor: Nr:Datum:Temp:Abs-Feuchte:Windchill:Wind:
Aussen-T/F 1701 14-02-2014 06:00:00 3.925 C 5.35 g/m*3 1.89 C 7.91667 km/h
1702 14-02-2014 07:00:00 2.825 C 5.28 g/m*3 2.83 C 2.8 km/h
1703 14-02-2014 08:00:00 3.64167 C 5.6 g/m*3 3.64 C 2.13333 km/h
1704 14-02-2014 09:00:00 5.19167 C 5.8 g/m*3 5.19 C 4.13333 km/h
1705 14-02-2014 10:00:00 5.89167 C 5.89 g/m*3 5.89 C 4.28333 km/h
1706 14-02-2014 11:00:00 6.64167 C 6.05 g/m*3 6.64 C 4.81667 km/h
1707 14-02-2014 12:00:00 7.78333 C 6.27 g/m*3 6.87 C 6.16667 km/h
1708 14-02-2014 13:00:00 8.16667 C 6.34 g/m*3 6.48 C 9.81667 km/h
1709 14-02-2014 14:00:00 8.19167 C 6.41 g/m*3 7.27 C 6.45 km/h
1710 14-02-2014 15:00:00 8.3 C 6.54 g/m*3 8.3 C 4.94167 km/h
1711 14-02-2014 16:00:00 7.83333 C 6.77 g/m*3 7.83 C 3.60833 km/h
1712 14-02-2014 17:00:00 6.25833 C 6.77 g/m*3 6.26 C 2.8 km/h
1713 14-02-2014 18:00:00 5.89167 C 6.5 g/m*3 4.38 C 7.25 km/h
1714 14-02-2014 19:00:00 5.56667 C 6.54 g/m*3 5.57 C 2.53333 km/h
1715 14-02-2014 20:00:00 5.09167 C 6.45 g/m*3 5.09 C 3.86667 km/h
1716 14-02-2014 21:00:00 5.09167 C 6.51 g/m*3 5.09 C 4.4 km/h
1717 14-02-2014 22:00:00 5.88333 C 6.84 g/m*3 5.88 C 4 km/h
1718 14-02-2014 23:00:00 5.75 C 6.74 g/m*3 5.75 C 3.46667 km/h
1719 15-02-2014 00:00:00 5.76667 C 6.72 g/m*3 5.77 C 4.54167 km/h
1720 15-02-2014 01:00:00 6.44167 C 6.95 g/m*3 6.44 C 4.94167 km/h
1721 15-02-2014 02:00:00 7.75 C 7.38 g/m*3 7.09 C 5.35 km/h
1722 15-02-2014 03:00:00 7.78333 C 7.26 g/m*3 7.78 C 4.54167 km/h
1723 15-02-2014 04:00:00 7.5 C 7.26 g/m*3 7.5 C 4.8 km/h
1724 15-02-2014 05:00:00 8.41667 C 7.65 g/m*3 8.42 C 4.4 km/h
1725 15-02-2014 06:00:00 9.55833 C 7.91 g/m*3 8.48 C 8.05 km/h
Sensor: Nr:Datum:Temp:Abs-Feuchte:Windchill:Wind:
Aussen-T/F 1726 15-02-2014 07:00:00 10.88333 C 7.81 g/m*3 9.2 C 13.41667 km/h
1727 15-02-2014 08:00:00 11.34167 C 7.47 g/m*3 11.34 C 13.83333 km/h
1728 15-02-2014 09:00:00 11.79167 C 7.35 g/m*3 11.79 C 22.10833 km/h
1729 15-02-2014 10:00:00 12 C 7.31 g/m*3 12 C 23.76667 km/h
1730 15-02-2014 11:00:00 12.23 C 7.18 g/m*3 12.23 C 23.16 km/h
1731 15-02-2014 12:00:00 12.16667 C 7.03 g/m*3 12.17 C 19.96667 km/h
1732 15-02-2014 13:00:00 12.13333 C 7.19 g/m*3 12.13 C 17.16667 km/h
1733 15-02-2014 14:00:00 12.30833 C 7.45 g/m*3 12.31 C 16.23333 km/h
1734 15-02-2014 15:00:00 11.94167 C 7.26 g/m*3 11.94 C 16.1 km/h
1735 15-02-2014 16:00:00 11.35333 C 7.11 g/m*3 11.35 C 14.28667 km/h
1736 15-02-2014 17:00:00 10.59167 C 7.02 g/m*3 9.07 C 11.7 km/h
1737 15-02-2014 18:00:00 9.96667 C 6.97 g/m*3 8.42 C 11.01667 km/h
1738 15-02-2014 19:00:00 9.16667 C 7.34 g/m*3 7.55 C 10.475 km/h
1739 15-02-2014 20:00:00 7.5 C 7.42 g/m*3 7.5 C 4.275 km/h
1740 15-02-2014 21:00:00 7.81667 C 7.26 g/m*3 6.09 C 9.66667 km/h
1741 15-02-2014 22:00:00 8.64167 C 7.07 g/m*3 6.47 C 13.29167 km/h
1742 15-02-2014 23:00:00 8.80833 C 6.84 g/m*3 6.24 C 16.63333 km/h
1743 16-02-2014 00:00:00 8.40833 C 6.76 g/m*3 6.09 C 13.975 km/h
1744 16-02-2014 01:00:00 8.45 C 6.63 g/m*3 5.76 C 16.90833 km/h
1745 16-02-2014 02:00:00 8.275 C 6.57 g/m*3 5.82 C 14.76667 km/h
1746 16-02-2014 03:00:00 7.95833 C 6.41 g/m*3 5.78 C 12.36667 km/h
1747 16-02-2014 04:00:00 8.125 C 6.3 g/m*3 5.86 C 13.15833 km/h
1748 16-02-2014 05:00:00 7.775 C 6.31 g/m*3 5.5 C 12.75833 km/h
1749 16-02-2014 06:00:00 7.69167 C 6.37 g/m*3 5.19 C 14.1 km/h
1750 16-02-2014 07:00:00 7.575 C 6.42 g/m*3 5.23 C 12.9 km/h
Sensor: Nr:Datum:Temp:Abs-Feuchte:Windchill:Wind:
Aussen-T/F 1751 16-02-2014 08:00:00 7.35833 C 6.37 g/m*3 5.08 C 12.23333 km/h
1752 16-02-2014 09:00:00 7.49167 C 6.53 g/m*3 5.17 C 12.625 km/h
1753 16-02-2014 10:00:00 8.00833 C 6.57 g/m*3 5.6 C 13.96667 km/h
1754 16-02-2014 11:00:00 8.56667 C 6.6 g/m*3 6.14 C 15.04167 km/h
1755 16-02-2014 12:00:00 8.45833 C 6.84 g/m*3 6.33 C 12.75833 km/h
1756 16-02-2014 13:00:00 8.68333 C 6.88 g/m*3 6.32 C 14.76667 km/h
1757 16-02-2014 14:00:00 9.21667 C 6.74 g/m*3 6.84 C 15.83333 km/h
1758 16-02-2014 15:00:00 9.325 C 6.58 g/m*3 7.18 C 14.23333 km/h
1759 16-02-2014 16:00:00 9.625 C 6.6 g/m*3 7.66 C 13.425 km/h
1760 16-02-2014 17:00:00 8.8 C 6.38 g/m*3 7.59 C 8.05 km/h
1761 16-02-2014 18:00:00 6.19167 C 6.26 g/m*3 6.19 C 3.86667 km/h
1762 16-02-2014 19:00:00 5.24167 C 6.1 g/m*3 5.24 C 3.86667 km/h
1763 16-02-2014 20:00:00 4.5 C 5.92 g/m*3 4.5 C 3.06667 km/h
1764 16-02-2014 21:00:00 3.86667 C 5.79 g/m*3 3.87 C 2.8 km/h
1765 16-02-2014 22:00:00 3.81667 C 5.68 g/m*3 3.82 C 3.46667 km/h
1766 16-02-2014 23:00:00 3.35 C 5.53 g/m*3 3.35 C 2.26667 km/h
1767 17-02-2014 00:00:00 2.775 C 5.39 g/m*3 2.78 C 1.86667 km/h
1768 17-02-2014 01:00:00 1.69167 C 5.11 g/m*3 1.69 C 0.13333 km/h
1769 17-02-2014 02:00:00 1.24167 C 5.01 g/m*3 1.24 C 0.66667 km/h
1770 17-02-2014 03:00:00 0.55833 C 4.79 g/m*3 0.56 C 0 km/h
1771 17-02-2014 04:00:00 0.16667 C 4.71 g/m*3 0.17 C 0 km/h
1772 17-02-2014 05:00:00 -0.04167 C 4.64 g/m*3 -0.04 C 0 km/h
1773 17-02-2014 06:00:00 0.13333 C 4.72 g/m*3 0.13 C 0.26667 km/h
1774 17-02-2014 07:00:00 0.49167 C 4.86 g/m*3 0.49 C 0.13333 km/h
1775 17-02-2014 08:00:00 1.25 C 5.12 g/m*3 1.25 C 2 km/h
Sensor: Nr:Datum:Temp:Abs-Feuchte:Windchill:Wind:
Aussen-T/F 1776 17-02-2014 09:00:00 2.24167 C 5.48 g/m*3 2.24 C 1.2 km/h
1777 17-02-2014 10:00:00 3.51667 C 5.95 g/m*3 3.52 C 4.44167 km/h
1778 17-02-2014 11:00:00 4.99167 C 6.36 g/m*3 3.98 C 5.23333 km/h
1779 17-02-2014 12:00:00 6.93333 C 6.79 g/m*3 4.67 C 11.56667 km/h
1780 17-02-2014 13:00:00 7.65833 C 6.75 g/m*3 5.25 C 13.43333 km/h
1781 17-02-2014 14:00:00 8.71667 C 6.81 g/m*3 6.68 C 12.5 km/h
1782 17-02-2014 15:00:00 9.35833 C 6.76 g/m*3 7.6 C 11.56667 km/h
1783 17-02-2014 16:00:00 8.59167 C 6.75 g/m*3 8 C 5.5 km/h
1784 17-02-2014 17:00:00 6.51667 C 6.54 g/m*3 6.52 C 4 km/h
1785 17-02-2014 18:00:00 5.03333 C 6.23 g/m*3 5.03 C 4.13333 km/h
1786 17-02-2014 19:00:00 4.21667 C 6 g/m*3 4.22 C 1.6 km/h
1787 17-02-2014 20:00:00 3.65833 C 5.85 g/m*3 3.66 C 0.26667 km/h
1788 17-02-2014 21:00:00 2.95 C 5.6 g/m*3 2.95 C 0 km/h
1789 17-02-2014 22:00:00 2.09167 C 5.33 g/m*3 2.09 C 0 km/h
1790 17-02-2014 23:00:00 1.625 C 5.2 g/m*3 1.63 C 0 km/h
1791 18-02-2014 00:00:00 1.3 C 5.09 g/m*3 1.3 C 0.13333 km/h
1792 18-02-2014 01:00:00 0.9 C 4.95 g/m*3 0.9 C 0 km/h
1793 18-02-2014 02:00:00 0.675 C 4.92 g/m*3 0.68 C 0 km/h
1794 18-02-2014 03:00:00 0.51667 C 4.87 g/m*3 0.52 C 0 km/h
1795 18-02-2014 04:00:00 0.425 C 4.84 g/m*3 0.43 C 1.06667 km/h
1796 18-02-2014 05:00:00 0.31667 C 4.8 g/m*3 0.32 C 1.6 km/h
1797 18-02-2014 06:00:00 0.21667 C 4.77 g/m*3 0.22 C 1.2 km/h
1798 18-02-2014 07:00:00 0.1 C 4.73 g/m*3 0.1 C 0 km/h
1799 18-02-2014 08:00:00 0.13333 C 4.76 g/m*3 0.13 C 0.8 km/h
1800 18-02-2014 09:00:00 0.28333 C 4.82 g/m*3 0.28 C 0.13333 km/h
Sensor: Nr:Datum:Temp:Abs-Feuchte:Windchill:Wind:
Aussen-T/F 1801 18-02-2014 10:00:00 0.925 C 5.06 g/m*3 0.93 C 1.33333 km/h
1802 18-02-2014 11:00:00 2.46667 C 5.62 g/m*3 2.47 C 1.6 km/h
1803 18-02-2014 12:00:00 3.35 C 5.96 g/m*3 3.35 C 1.46667 km/h
1804 18-02-2014 13:00:00 4.79167 C 6.34 g/m*3 4.79 C 0.93333 km/h
1805 18-02-2014 14:00:00 6.64167 C 6.67 g/m*3 6.64 C 0.66667 km/h
1806 18-02-2014 15:00:00 7.79167 C 6.85 g/m*3 7.79 C 0.8 km/h
1807 18-02-2014 16:00:00 7.85833 C 7.11 g/m*3 7.86 C 0 km/h
1808 18-02-2014 17:00:00 6.95833 C 6.99 g/m*3 6.96 C 0 km/h
1809 18-02-2014 18:00:00 6.54167 C 6.82 g/m*3 6.54 C 1.2 km/h
1810 18-02-2014 19:00:00 6.075 C 6.65 g/m*3 6.08 C 0 km/h
1811 18-02-2014 20:00:00 5.76667 C 6.58 g/m*3 5.77 C 0.66667 km/h
1812 18-02-2014 21:00:00 5.65 C 6.58 g/m*3 5.65 C 0.13333 km/h
1813 18-02-2014 22:00:00 5.75833 C 6.6 g/m*3 5.76 C 0.26667 km/h
1814 18-02-2014 23:00:00 5.85 C 6.56 g/m*3 5.85 C 0.13333 km/h
1815 19-02-2014 00:00:00 5.50833 C 6.51 g/m*3 5.51 C 0 km/h
1816 19-02-2014 01:00:00 5.3 C 6.44 g/m*3 5.3 C 0.13333 km/h
1817 19-02-2014 02:00:00 5.075 C 6.35 g/m*3 5.08 C 0.4 km/h
1818 19-02-2014 03:00:00 5.06667 C 6.35 g/m*3 5.07 C 1.06667 km/h
1819 19-02-2014 04:00:00 5.45833 C 6.5 g/m*3 5.46 C 0.66667 km/h
1820 19-02-2014 05:00:00 6.9 C 6.78 g/m*3 6.9 C 3.75833 km/h
1821 19-02-2014 06:00:00 6.99167 C 6.91 g/m*3 5.96 C 6.175 km/h
1822 19-02-2014 07:00:00 7.175 C 6.91 g/m*3 6.17 C 6.16667 km/h
1823 19-02-2014 08:00:00 7 C 6.97 g/m*3 6.28 C 5.21667 km/h
1824 19-02-2014 09:00:00 7.83333 C 7.16 g/m*3 7.83 C 4.81667 km/h
1825 19-02-2014 10:00:00 8.63333 C 7.21 g/m*3 6.48 C 13.15833 km/h
Sensor: Nr:Datum:Temp:Abs-Feuchte:Windchill:Wind:
Aussen-T/F 1826 19-02-2014 11:00:00 9.175 C 7.15 g/m*3 6.91 C 14.9 km/h
1827 19-02-2014 12:00:00 10.31667 C 7.12 g/m*3 8.4 C 14.23333 km/h
1828 19-02-2014 13:00:00 11.53333 C 7.04 g/m*3 11.53 C 13.16667 km/h
1829 19-02-2014 14:00:00 11.525 C 6.98 g/m*3 11.53 C 13.425 km/h
1830 19-02-2014 15:00:00 10.83333 C 7.06 g/m*3 9.31 C 12.08333 km/h
1831 19-02-2014 16:00:00 9.59167 C 7.44 g/m*3 9.15 C 5.48333 km/h
1832 19-02-2014 17:00:00 9.25833 C 7.29 g/m*3 8.4 C 6.85 km/h
1833 19-02-2014 18:00:00 8.85833 C 7.24 g/m*3 8.15 C 6.025 km/h
1834 19-02-2014 19:00:00 8.19167 C 7.09 g/m*3 8.19 C 4.14167 km/h
1835 19-02-2014 20:00:00 7.76667 C 7.08 g/m*3 7.77 C 3.73333 km/h
1836 19-02-2014 21:00:00 6.825 C 6.83 g/m*3 6.83 C 3.73333 km/h
1837 19-02-2014 22:00:00 6.2 C 6.72 g/m*3 6.2 C 3.6 km/h
1838 19-02-2014 23:00:00 6.78333 C 6.83 g/m*3 6.78 C 3.6 km/h
1839 20-02-2014 00:00:00 6.96667 C 6.81 g/m*3 6.19 C 5.35 km/h
1840 20-02-2014 01:00:00 6.55 C 6.73 g/m*3 5.81 C 5.08333 km/h
1841 20-02-2014 02:00:00 6.48333 C 6.8 g/m*3 6.48 C 4.01667 km/h
1842 20-02-2014 03:00:00 6.38333 C 6.77 g/m*3 6.38 C 3.61667 km/h
1843 20-02-2014 04:00:00 6.425 C 6.71 g/m*3 6.43 C 3.61667 km/h
1844 20-02-2014 05:00:00 5.86667 C 6.67 g/m*3 5.87 C 1.06667 km/h
1845 20-02-2014 06:00:00 5.96667 C 6.74 g/m*3 5.97 C 0.4 km/h
1846 20-02-2014 07:00:00 6.09167 C 6.79 g/m*3 6.09 C 1.33333 km/h
1847 20-02-2014 08:00:00 6.75 C 6.94 g/m*3 6.75 C 1.73333 km/h
1848 20-02-2014 09:00:00 7.98333 C 7.05 g/m*3 7.98 C 3.60833 km/h
1849 20-02-2014 10:00:00 8.88333 C 7.14 g/m*3 8.88 C 4.275 km/h
1850 20-02-2014 11:00:00 9.73333 C 7.07 g/m*3 8.68 C 8.05 km/h
Sensor: Nr:Datum:Temp:Abs-Feuchte:Windchill:Wind:
Aussen-T/F 1851 20-02-2014 12:00:00 10.76667 C 6.9 g/m*3 9.4 C 10.9 km/h
1852 20-02-2014 13:00:00 11.35 C 6.88 g/m*3 11.35 C 10.89167 km/h
1853 20-02-2014 14:00:00 11.225 C 7.08 g/m*3 11.23 C 8.74167 km/h
1854 20-02-2014 15:00:00 11.15 C 7.35 g/m*3 11.15 C 6.30833 km/h
1855 20-02-2014 16:00:00 11.25833 C 7.42 g/m*3 11.26 C 3.075 km/h
1856 20-02-2014 17:00:00 10.875 C 7.51 g/m*3 10.88 C 2.8 km/h
1857 20-02-2014 18:00:00 9.95 C 7.47 g/m*3 9.95 C 1.73333 km/h
1858 20-02-2014 19:00:00 9.75 C 7.35 g/m*3 9.75 C 2.66667 km/h
1859 20-02-2014 20:00:00 9.475 C 7.4 g/m*3 9.48 C 2.53333 km/h
1860 20-02-2014 21:00:00 9.6 C 7.53 g/m*3 9.6 C 2.53333 km/h
1861 20-02-2014 22:00:00 9.65 C 7.67 g/m*3 9.65 C 1.46667 km/h
1862 20-02-2014 23:00:00 9.41667 C 7.81 g/m*3 9.42 C 2.93333 km/h
1863 21-02-2014 00:00:00 9.38333 C 7.94 g/m*3 9.38 C 4.15 km/h
1864 21-02-2014 01:00:00 9.65 C 8.08 g/m*3 9.65 C 2.26667 km/h
1865 21-02-2014 02:00:00 9.73333 C 8.15 g/m*3 9.73 C 4.425 km/h
1866 21-02-2014 03:00:00 9.45 C 8.05 g/m*3 9.02 C 5.35833 km/h
1867 21-02-2014 04:00:00 9.525 C 7.89 g/m*3 8.52 C 7.65833 km/h
1868 21-02-2014 05:00:00 9.38333 C 7.52 g/m*3 7.98 C 9.53333 km/h
1869 21-02-2014 06:00:00 8.21667 C 7.41 g/m*3 8.22 C 2.94167 km/h
1870 21-02-2014 07:00:00 7.95833 C 7.24 g/m*3 7.41 C 5.075 km/h
1871 21-02-2014 08:00:00 8.25833 C 7.09 g/m*3 6.86 C 8.46667 km/h
1872 21-02-2014 09:00:00 8.9 C 7 g/m*3 6.57 C 14.9 km/h
1873 21-02-2014 10:00:00 9.28333 C 6.98 g/m*3 7.2 C 13.7 km/h
1874 21-02-2014 11:00:00 8.90833 C 6.95 g/m*3 6.55 C 15.175 km/h
1875 21-02-2014 12:00:00 7.91667 C 7.06 g/m*3 5.41 C 14.5 km/h
Sensor: Nr:Datum:Temp:Abs-Feuchte:Windchill:Wind:
Aussen-T/F 1876 21-02-2014 13:00:00 8.575 C 6.68 g/m*3 5.71 C 18.775 km/h
1877 21-02-2014 14:00:00 9.03333 C 6.69 g/m*3 6.65 C 15.56667 km/h
1878 21-02-2014 15:00:00 9.21667 C 6.35 g/m*3 6.56 C 18.36667 km/h
1879 21-02-2014 16:00:00 7.69167 C 6.31 g/m*3 5.16 C 14.36667 km/h
1880 21-02-2014 17:00:00 7.125 C 6.2 g/m*3 5.1 C 10.5 km/h
1881 21-02-2014 18:00:00 5.64167 C 6.05 g/m*3 5.64 C 4.4 km/h
1882 21-02-2014 19:00:00 5.1 C 5.95 g/m*3 5.1 C 4.80833 km/h
1883 21-02-2014 20:00:00 4.11667 C 5.82 g/m*3 4.12 C 3.2 km/h
1884 21-02-2014 21:00:00 3.55 C 5.69 g/m*3 3.55 C 2.93333 km/h
1885 21-02-2014 22:00:00 3.225 C 5.63 g/m*3 3.23 C 1.46667 km/h
1886 21-02-2014 23:00:00 3.53333 C 5.73 g/m*3 3.53 C 1.46667 km/h
1887 22-02-2014 00:00:00 2.86667 C 5.5 g/m*3 2.87 C 3.46667 km/h
1888 22-02-2014 01:00:00 2.35 C 5.37 g/m*3 2.35 C 2.4 km/h
1889 22-02-2014 02:00:00 1.96667 C 5.27 g/m*3 1.97 C 1.73333 km/h
1890 22-02-2014 03:00:00 1.675 C 5.16 g/m*3 1.68 C 1.6 km/h
1891 22-02-2014 04:00:00 1.33333 C 5.04 g/m*3 1.33 C 1.46667 km/h
1892 22-02-2014 05:00:00 1.19167 C 5.02 g/m*3 1.19 C 1.2 km/h
1893 22-02-2014 06:00:00 2.05 C 5.34 g/m*3 2.05 C 2.95 km/h
1894 22-02-2014 07:00:00 3.3 C 5.64 g/m*3 3.3 C 2.66667 km/h
1895 22-02-2014 08:00:00 3.93333 C 5.77 g/m*3 3.93 C 0.8 km/h
1896 22-02-2014 09:00:00 5.05 C 5.96 g/m*3 5.05 C 4.41667 km/h
1897 22-02-2014 10:00:00 6.24167 C 6.11 g/m*3 4.83 C 7.10833 km/h
1898 22-02-2014 11:00:00 7.00833 C 6.16 g/m*3 5.01 C 10.21667 km/h
1899 22-02-2014 12:00:00 7.48333 C 6.35 g/m*3 5.39 C 11.29167 km/h
1900 22-02-2014 13:00:00 7.28333 C 6.36 g/m*3 5.01 C 12.1 km/h
Sensor: Nr:Datum:Temp:Abs-Feuchte:Windchill:Wind:
Aussen-T/F 1901 22-02-2014 14:00:00 7.56667 C 6.41 g/m*3 5.35 C 12.08333 km/h
1902 22-02-2014 15:00:00 7.76667 C 6.43 g/m*3 5.85 C 10.625 km/h
1903 22-02-2014 16:00:00 7.775 C 6.45 g/m*3 6.41 C 7.925 km/h
1904 22-02-2014 17:00:00 7.36667 C 6.41 g/m*3 6.21 C 6.84167 km/h
1905 22-02-2014 18:00:00 6.74167 C 6.32 g/m*3 6.74 C 4.00833 km/h
1906 22-02-2014 19:00:00 6.34167 C 6.19 g/m*3 4.94 C 7.11667 km/h
1907 22-02-2014 20:00:00 6.10833 C 6.21 g/m*3 6.11 C 2.53333 km/h
1908 22-02-2014 21:00:00 5.75 C 6.24 g/m*3 5.75 C 1.2 km/h
1909 22-02-2014 22:00:00 5.53333 C 6.21 g/m*3 5.53 C 0.26667 km/h
1910 22-02-2014 23:00:00 5.28333 C 6.13 g/m*3 5.28 C 0.53333 km/h
1911 23-02-2014 00:00:00 5.55 C 6.07 g/m*3 5.55 C 1.86667 km/h
1912 23-02-2014 01:00:00 4.35 C 5.71 g/m*3 4.35 C 2.66667 km/h
1913 23-02-2014 02:00:00 3.04167 C 5.43 g/m*3 3.04 C 3.33333 km/h
1914 23-02-2014 03:00:00 2.88333 C 5.35 g/m*3 2.88 C 4 km/h
1915 23-02-2014 04:00:00 2.19167 C 5.17 g/m*3 2.19 C 0.66667 km/h
1916 23-02-2014 05:00:00 2.06667 C 5.2 g/m*3 2.07 C 0.8 km/h
1917 23-02-2014 06:00:00 2.91667 C 5.47 g/m*3 2.92 C 2.53333 km/h
1918 23-02-2014 07:00:00 3.725 C 5.63 g/m*3 3.73 C 2.8 km/h
1919 23-02-2014 08:00:00 4.51 C 5.96 g/m*3 4.51 C 0.64 km/h
1920 23-02-2014 09:00:00 6 C 6.1 g/m*3 6 C 1.06667 km/h
1921 23-02-2014 12:00:00 10.125 C 7.13 g/m*3 9.32 C 7.225 km/h
1922 23-02-2014 13:00:00 10.40833 C 6.48 g/m*3 9.04 C 10.49167 km/h
1923 23-02-2014 14:00:00 10.35 C 6.72 g/m*3 8.71 C 12.225 km/h
1924 23-02-2014 15:00:00 9.74167 C 6.78 g/m*3 8.66 C 8.20833 km/h
1925 23-02-2014 16:00:00 9.98333 C 6.61 g/m*3 9.98 C 4.81667 km/h
Sensor: Nr:Datum:Temp:Abs-Feuchte:Windchill:Wind:
Aussen-T/F 1926 23-02-2014 17:00:00 9.40833 C 6.71 g/m*3 9.41 C 0.66667 km/h
1927 23-02-2014 18:00:00 8.38333 C 6.5 g/m*3 8.38 C 2 km/h
1928 23-02-2014 19:00:00 7.50833 C 6.55 g/m*3 7.51 C 3.86667 km/h
1929 23-02-2014 20:00:00 6.3 C 6.25 g/m*3 6.3 C 4.53333 km/h
1930 23-02-2014 21:00:00 5.4 C 6.04 g/m*3 5.4 C 4.66667 km/h
1931 23-02-2014 22:00:00 4.675 C 5.87 g/m*3 4.68 C 4.26667 km/h
1932 23-02-2014 23:00:00 3.8 C 5.68 g/m*3 3.8 C 3.2 km/h
1933 24-02-2014 00:00:00 3.28333 C 5.58 g/m*3 3.28 C 3.33333 km/h
1934 24-02-2014 01:00:00 2.84167 C 5.47 g/m*3 2.84 C 4.13333 km/h
1935 24-02-2014 02:00:00 2.05833 C 5.21 g/m*3 2.06 C 0.26667 km/h
1936 24-02-2014 03:00:00 1.29167 C 4.99 g/m*3 1.29 C 0 km/h
1937 24-02-2014 04:00:00 0.61667 C 4.8 g/m*3 0.62 C 0 km/h
1938 24-02-2014 05:00:00 0.15833 C 4.69 g/m*3 0.16 C 0 km/h
1939 24-02-2014 06:00:00 -0.29167 C 4.56 g/m*3 -0.29 C 0.8 km/h
1940 24-02-2014 07:00:00 -0.55833 C 4.47 g/m*3 -0.56 C 0.4 km/h
1941 24-02-2014 08:00:00 0.64167 C 4.91 g/m*3 0.64 C 4.00833 km/h
1942 24-02-2014 09:00:00 4.45833 C 5.66 g/m*3 2.55 C 7.79167 km/h
1943 24-02-2014 10:00:00 6.31667 C 5.82 g/m*3 4.87 C 7.25833 km/h
1944 24-02-2014 11:00:00 7.65 C 6.17 g/m*3 6.84 C 5.75833 km/h
1945 24-02-2014 12:00:00 10.65833 C 6.33 g/m*3 10.22 C 6.03333 km/h
1946 24-02-2014 13:00:00 12.98333 C 6.4 g/m*3 12.98 C 7.78333 km/h
1947 24-02-2014 14:00:00 13.59167 C 6.36 g/m*3 13.59 C 7.38333 km/h
1948 24-02-2014 15:00:00 13.99167 C 6.4 g/m*3 13.99 C 9.11667 km/h
1949 24-02-2014 16:00:00 13.34167 C 6.38 g/m*3 13.34 C 5.46667 km/h
1950 24-02-2014 17:00:00 11.69167 C 6.39 g/m*3 11.69 C 4.81667 km/h
Sensor: Nr:Datum:Temp:Abs-Feuchte:Windchill:Wind:
Aussen-T/F 1951 24-02-2014 18:00:00 7.9 C 6.39 g/m*3 7.9 C 4.66667 km/h
1952 24-02-2014 19:00:00 6.80833 C 6.27 g/m*3 5.76 C 6.15 km/h
1953 24-02-2014 20:00:00 6.30833 C 6.21 g/m*3 5.49 C 5.2 km/h
1954 24-02-2014 21:00:00 5.775 C 6.06 g/m*3 5.78 C 3.46667 km/h
1955 24-02-2014 22:00:00 4.89167 C 5.93 g/m*3 4.89 C 0.53333 km/h
1956 24-02-2014 23:00:00 4.325 C 5.75 g/m*3 4.33 C 0.53333 km/h
1957 25-02-2014 00:00:00 3.79167 C 5.64 g/m*3 3.79 C 1.06667 km/h
1958 25-02-2014 01:00:00 3.24167 C 5.52 g/m*3 3.24 C 0 km/h
1959 25-02-2014 02:00:00 2.725 C 5.4 g/m*3 2.73 C 0.4 km/h
1960 25-02-2014 03:00:00 2.175 C 5.26 g/m*3 2.17 C 0.13333 km/h
1961 25-02-2014 04:00:00 1.75 C 5.16 g/m*3 1.75 C 0 km/h
1962 25-02-2014 05:00:00 1.55833 C 5.12 g/m*3 1.56 C 0 km/h
1963 25-02-2014 06:00:00 1.26667 C 5.03 g/m*3 1.27 C 0 km/h
1964 25-02-2014 07:00:00 1.5 C 5.16 g/m*3 1.5 C 0.4 km/h
1965 25-02-2014 08:00:00 1.96667 C 5.32 g/m*3 1.97 C 0.4 km/h
1966 25-02-2014 09:00:00 3.30833 C 5.85 g/m*3 3.31 C 0.93333 km/h
1967 25-02-2014 10:00:00 7.58333 C 6.79 g/m*3 7.58 C 3.34167 km/h
1968 25-02-2014 11:00:00 10.35 C 6.55 g/m*3 9.83 C 6.15833 km/h
1969 25-02-2014 12:00:00 11.55833 C 6.71 g/m*3 11.56 C 7.49167 km/h
1970 25-02-2014 13:00:00 10.98333 C 6.78 g/m*3 10.98 C 4 km/h
1971 25-02-2014 14:00:00 11.525 C 6.85 g/m*3 11.53 C 5.75833 km/h
1972 25-02-2014 15:00:00 11.575 C 6.89 g/m*3 11.58 C 7.38333 km/h
1973 25-02-2014 16:00:00 12 C 6.96 g/m*3 12 C 7.79167 km/h
1974 25-02-2014 17:00:00 11.475 C 6.94 g/m*3 11.48 C 6.025 km/h
1975 25-02-2014 18:00:00 9.71667 C 6.78 g/m*3 9.72 C 3.46667 km/h
Sensor: Nr:Datum:Temp:Abs-Feuchte:Windchill:Wind:
Aussen-T/F 1976 25-02-2014 19:00:00 8.45833 C 6.69 g/m*3 8.46 C 2.93333 km/h
1977 25-02-2014 20:00:00 8.25833 C 6.81 g/m*3 8.26 C 1.73333 km/h
1978 25-02-2014 21:00:00 7.98333 C 6.76 g/m*3 7.98 C 3.06667 km/h
1979 25-02-2014 22:00:00 7.86667 C 6.77 g/m*3 7.87 C 3.2 km/h
1980 25-02-2014 23:00:00 7.86667 C 6.91 g/m*3 7.87 C 3.46667 km/h
1981 26-02-2014 00:00:00 7.35 C 6.79 g/m*3 7.35 C 4 km/h
1982 26-02-2014 01:00:00 7.55833 C 6.91 g/m*3 7.56 C 2.66667 km/h
1983 26-02-2014 02:00:00 8.13333 C 7.07 g/m*3 8.13 C 2.4 km/h
1984 26-02-2014 03:00:00 7.71667 C 6.97 g/m*3 7.72 C 3.6 km/h
1985 26-02-2014 04:00:00 7.9 C 7.03 g/m*3 7.9 C 2.8 km/h
1986 26-02-2014 05:00:00 8.50833 C 7.03 g/m*3 7.9 C 5.5 km/h
1987 26-02-2014 06:00:00 8.125 C 7.02 g/m*3 8.13 C 4.14167 km/h
1988 26-02-2014 07:00:00 6.85 C 6.72 g/m*3 6.85 C 1.33333 km/h
1989 26-02-2014 08:00:00 7.39167 C 6.95 g/m*3 7.39 C 2.54167 km/h
1990 26-02-2014 09:00:00 7.41667 C 6.93 g/m*3 7.42 C 1.2 km/h
1991 26-02-2014 10:00:00 8.55 C 7.2 g/m*3 7.35 C 7.8 km/h
1992 26-02-2014 11:00:00 9.675 C 7.06 g/m*3 8.4 C 9.14167 km/h
1993 26-02-2014 12:00:00 10.25833 C 7.12 g/m*3 9.38 C 7.64167 km/h
1994 26-02-2014 13:00:00 10.83333 C 7.03 g/m*3 10.2 C 6.975 km/h
1995 26-02-2014 14:00:00 11.28333 C 7.01 g/m*3 11.28 C 7.79167 km/h
1996 26-02-2014 15:00:00 10.71667 C 6.92 g/m*3 10.29 C 6.03333 km/h
1997 26-02-2014 16:00:00 10.40833 C 7 g/m*3 10.41 C 2.8 km/h
1998 26-02-2014 17:00:00 9.825 C 7.17 g/m*3 9.82 C 0.66667 km/h
1999 26-02-2014 18:00:00 8.73333 C 7.1 g/m*3 8.73 C 3.33333 km/h
2000 26-02-2014 19:00:00 8.09167 C 6.98 g/m*3 8.09 C 3.33333 km/h
Sensor: Nr:Datum:Temp:Abs-Feuchte:Windchill:Wind:
Aussen-T/F 2001 26-02-2014 20:00:00 7.50909 C 6.89 g/m*3 7.51 C 1.30909 km/h
2002 26-02-2014 22:00:00 7.49167 C 6.84 g/m*3 7.49 C 1.86667 km/h
2003 26-02-2014 23:00:00 6.96667 C 6.7 g/m*3 6.97 C 2 km/h
2004 27-02-2014 00:00:00 5.95 C 6.46 g/m*3 5.95 C 2.4 km/h
2005 27-02-2014 01:00:00 5 C 6.19 g/m*3 5 C 1.33333 km/h
2006 27-02-2014 02:00:00 4.03333 C 5.92 g/m*3 4.03 C 0.8 km/h
2007 27-02-2014 03:00:00 3.25833 C 5.68 g/m*3 3.26 C 0.13333 km/h
2008 27-02-2014 04:00:00 2.65833 C 5.51 g/m*3 2.66 C 1.2 km/h
2009 27-02-2014 05:00:00 1.91667 C 5.25 g/m*3 1.92 C 0.93333 km/h
2010 27-02-2014 06:00:00 1.575 C 5.18 g/m*3 1.58 C 0.93333 km/h
2011 27-02-2014 07:00:00 1.31667 C 5.09 g/m*3 1.32 C 1.20833 km/h
2012 27-02-2014 08:00:00 1.1 C 5.02 g/m*3 1.1 C 0 km/h
2013 27-02-2014 09:00:00 1.6 C 5.25 g/m*3 1.6 C 1.06667 km/h
2014 27-02-2014 11:00:00 7.525 C 6.85 g/m*3 6.23 C 7.45 km/h
2015 27-02-2014 12:00:00 9.85 C 6.43 g/m*3 8.29 C 11.00833 km/h
2016 27-02-2014 13:00:00 9.825 C 6.24 g/m*3 8.15 C 11.69167 km/h
2017 27-02-2014 14:00:00 10.04167 C 6.26 g/m*3 8.94 C 8.6 km/h
2018 27-02-2014 15:00:00 10.6 C 6.09 g/m*3 9.43 C 9.54167 km/h
2019 27-02-2014 16:00:00 9.875 C 5.69 g/m*3 9.18 C 6.575 km/h
2020 27-02-2014 17:00:00 9.3 C 5.84 g/m*3 9.3 C 4.54167 km/h
2021 27-02-2014 18:00:00 7.76667 C 6.24 g/m*3 6.31 C 8.325 km/h
2022 27-02-2014 19:00:00 6.35833 C 6.35 g/m*3 6.36 C 4.29167 km/h
2023 27-02-2014 20:00:00 5.475 C 6.4 g/m*3 5.48 C 1.46667 km/h
2024 27-02-2014 21:00:00 4.96667 C 6.41 g/m*3 4.97 C 0.8 km/h
2025 27-02-2014 22:00:00 4.625 C 6.28 g/m*3 4.63 C 1.6 km/h
Sensor: Nr:Datum:Temp:Abs-Feuchte:Windchill:Wind:
Aussen-T/F 2026 27-02-2014 23:00:00 4.40833 C 6.08 g/m*3 4.41 C 3.86667 km/h
2027 28-02-2014 00:00:00 4.48333 C 6.1 g/m*3 2.99 C 6.43333 km/h
2028 28-02-2014 01:00:00 4.775 C 6.2 g/m*3 3.5 C 5.88333 km/h
2029 28-02-2014 02:00:00 4.85 C 6.09 g/m*3 2.71 C 9.00833 km/h
2030 28-02-2014 03:00:00 4.1 C 5.88 g/m*3 2.42 C 6.825 km/h
2031 28-02-2014 04:00:00 3.91667 C 5.93 g/m*3 3.92 C 3.73333 km/h
2032 28-02-2014 05:00:00 3.58333 C 5.88 g/m*3 3.58 C 1.6 km/h
2033 28-02-2014 06:00:00 3.86667 C 6.03 g/m*3 3.87 C 1.06667 km/h
2034 28-02-2014 07:00:00 4.125 C 6.14 g/m*3 4.13 C 0.66667 km/h
2035 28-02-2014 08:00:00 4.69167 C 6.28 g/m*3 4.69 C 1.2 km/h
2036 28-02-2014 09:00:00 5.68333 C 6.42 g/m*3 5.68 C 3.06667 km/h
2037 28-02-2014 10:00:00 6.75833 C 6.61 g/m*3 6.76 C 3.73333 km/h
2038 28-02-2014 11:00:00 7.78333 C 6.73 g/m*3 6.55 C 7.38333 km/h
2039 28-02-2014 12:00:00 7.99167 C 6.78 g/m*3 7.15 C 6.03333 km/h
2040 28-02-2014 13:00:00 8.48333 C 6.86 g/m*3 7.43 C 7.10833 km/h
2041 28-02-2014 14:00:00 9.43333 C 6.71 g/m*3 8.51 C 7.23333 km/h
2042 28-02-2014 15:00:00 9.225 C 6.55 g/m*3 9.23 C 4 km/h
2043 28-02-2014 16:00:00 9.3 C 6.53 g/m*3 8.86 C 5.33333 km/h
2044 28-02-2014 17:00:00 9.07273 C 6.65 g/m*3 9.07 C 4.66364 km/h
2045 28-02-2014 18:00:00 8.1 C 6.74 g/m*3 8.1 C 1.86667 km/h
2046 28-02-2014 19:00:00 7.00833 C 6.61 g/m*3 7.01 C 3.33333 km/h
2047 28-02-2014 20:00:00 6.63333 C 6.66 g/m*3 6.63 C 3.6 km/h
2048 28-02-2014 21:00:00 6.89167 C 6.84 g/m*3 6.89 C 0.8 km/h
2049 28-02-2014 22:00:00 6.3 C 6.88 g/m*3 6.3 C 3.08333 km/h
2050 28-02-2014 23:00:00 5.65 C 6.7 g/m*3 5.65 C 1.86667 km/h
Sensor: Nr:Datum:Temp:Abs-Feuchte:Windchill:Wind:
Aussen-T/F 2051 01-03-2014 00:00:00 5.29167 C 6.63 g/m*3 5.29 C 1.06667 km/h
2052 01-03-2014 01:00:00 4.825 C 6.45 g/m*3 4.83 C 0.4 km/h
2053 01-03-2014 02:00:00 4.85 C 6.49 g/m*3 4.85 C 0.66667 km/h
2054 01-03-2014 03:00:00 4.19167 C 6.18 g/m*3 4.19 C 1.6 km/h
2055 01-03-2014 04:00:00 3.675 C 5.97 g/m*3 3.68 C 2.66667 km/h
2056 01-03-2014 05:00:00 2.64167 C 5.57 g/m*3 2.64 C 0.66667 km/h
2057 01-03-2014 06:00:00 2.56667 C 5.58 g/m*3 2.57 C 0 km/h
2058 01-03-2014 07:00:00 2.75 C 5.67 g/m*3 2.75 C 0.26667 km/h
2059 01-03-2014 08:00:00 3.13333 C 5.82 g/m*3 3.13 C 0.13333 km/h
2060 01-03-2014 09:00:00 3.8 C 6.09 g/m*3 3.8 C 0.26667 km/h
2061 01-03-2014 10:00:00 5.41667 C 6.63 g/m*3 5.42 C 1.86667 km/h
2062 01-03-2014 11:00:00 7.21667 C 6.65 g/m*3 7.22 C 2.93333 km/h
2063 01-03-2014 12:00:00 8.25 C 6.78 g/m*3 7.58 C 5.60833 km/h
2064 01-03-2014 13:00:00 8.975 C 6.65 g/m*3 8.01 C 7.10833 km/h
2065 01-03-2014 14:00:00 9.29167 C 6.27 g/m*3 8.76 C 5.625 km/h
2066 01-03-2014 15:00:00 9.40833 C 6.17 g/m*3 9.02 C 5.21667 km/h
2067 01-03-2014 16:00:00 9.05833 C 6.1 g/m*3 9.06 C 4.01667 km/h
2068 01-03-2014 17:00:00 7.95833 C 6.28 g/m*3 6.69 C 7.66667 km/h
2069 01-03-2014 18:00:00 6.96667 C 6.46 g/m*3 6.97 C 0.66667 km/h
2070 01-03-2014 19:00:00 6.15833 C 6.47 g/m*3 6.16 C 0.53333 km/h
2071 01-03-2014 20:00:00 5.2 C 6.16 g/m*3 5.2 C 1.86667 km/h
2072 01-03-2014 21:00:00 3.575 C 5.66 g/m*3 3.58 C 1.46667 km/h
2073 01-03-2014 22:00:00 2.85833 C 5.51 g/m*3 2.86 C 1.86667 km/h
2074 01-03-2014 23:00:00 2.59167 C 5.42 g/m*3 2.59 C 0.8 km/h
2075 02-03-2014 00:00:00 1.825 C 5.19 g/m*3 1.83 C 0.26667 km/h
Sensor: Nr:Datum:Temp:Abs-Feuchte:Windchill:Wind:
Aussen-T/F 2076 02-03-2014 01:00:00 1.50833 C 5.12 g/m*3 1.51 C 0.93333 km/h
2077 02-03-2014 02:00:00 1.425 C 5.11 g/m*3 1.43 C 0.53333 km/h
2078 02-03-2014 03:00:00 1.95833 C 5.32 g/m*3 1.96 C 0.26667 km/h
2079 02-03-2014 04:00:00 1.69167 C 5.2 g/m*3 1.69 C 0.93333 km/h
2080 02-03-2014 05:00:00 0.86667 C 4.93 g/m*3 0.87 C 0.13333 km/h
2081 02-03-2014 06:00:00 0.375 C 4.77 g/m*3 0.38 C 0 km/h
2082 02-03-2014 07:00:00 0.28333 C 4.76 g/m*3 0.28 C 0.93333 km/h
2083 02-03-2014 08:00:00 0.55833 C 4.88 g/m*3 0.56 C 1.6 km/h
2084 02-03-2014 09:00:00 1.23333 C 5.12 g/m*3 1.23 C 0.66667 km/h
2085 02-03-2014 10:00:00 2.81667 C 5.75 g/m*3 2.82 C 2.13333 km/h
2086 02-03-2014 11:00:00 4.40833 C 6.16 g/m*3 3.22 C 5.5 km/h
2087 02-03-2014 12:00:00 6.25833 C 5.79 g/m*3 3.63 C 12.9 km/h
2088 02-03-2014 13:00:00 7.16667 C 5.68 g/m*3 5.36 C 9.41667 km/h
2089 02-03-2014 14:00:00 8.03333 C 5.69 g/m*3 6.56 C 8.61667 km/h
2090 02-03-2014 15:00:00 8.98333 C 5.78 g/m*3 8.15 C 6.56667 km/h
2091 02-03-2014 16:00:00 9.10833 C 5.7 g/m*3 8.63 C 5.35 km/h
2092 02-03-2014 17:00:00 7.90833 C 5.86 g/m*3 7.91 C 2.93333 km/h
2093 02-03-2014 18:00:00 4.98333 C 5.68 g/m*3 4.98 C 4.93333 km/h
2094 02-03-2014 19:00:00 3.58333 C 5.31 g/m*3 2.34 C 5.33333 km/h
2095 02-03-2014 20:00:00 2.98333 C 5.2 g/m*3 2.98 C 4.4 km/h
2096 02-03-2014 21:00:00 2.65833 C 5.16 g/m*3 2.66 C 4.13333 km/h
2097 02-03-2014 22:00:00 2.525 C 5.22 g/m*3 2.53 C 3.33333 km/h
2098 02-03-2014 23:00:00 2.075 C 5.14 g/m*3 2.08 C 3.33333 km/h
2099 03-03-2014 00:00:00 2.16667 C 5.17 g/m*3 2.17 C 3.33333 km/h
2100 03-03-2014 01:00:00 2.80833 C 5.33 g/m*3 2.81 C 3.6 km/h
Sensor: Nr:Datum:Temp:Abs-Feuchte:Windchill:Wind:
Aussen-T/F 2101 03-03-2014 02:00:00 3.41667 C 5.43 g/m*3 3.42 C 4.28333 km/h
2102 03-03-2014 03:00:00 3.14167 C 5.37 g/m*3 3.14 C 3.06667 km/h
2103 03-03-2014 04:00:00 3.325 C 5.53 g/m*3 2.1 C 5.20833 km/h
2104 03-03-2014 05:00:00 4.04167 C 5.64 g/m*3 2.47 C 6.44167 km/h
2105 03-03-2014 06:00:00 3.95833 C 5.61 g/m*3 2.81 C 5.21667 km/h
2106 03-03-2014 07:00:00 4.325 C 5.61 g/m*3 2.06 C 9.125 km/h
2107 03-03-2014 08:00:00 4.80833 C 5.69 g/m*3 4.81 C 3.875 km/h
2108 03-03-2014 09:00:00 5.39167 C 5.86 g/m*3 5.39 C 3.6 km/h
2109 03-03-2014 10:00:00 5.99167 C 6.19 g/m*3 5.03 C 5.48333 km/h
2110 03-03-2014 11:00:00 7.06667 C 6.47 g/m*3 6.17 C 5.75833 km/h
2111 03-03-2014 12:00:00 7.35833 C 6.54 g/m*3 7.36 C 4.54167 km/h
2112 03-03-2014 13:00:00 7.79167 C 6.93 g/m*3 7.79 C 4.80833 km/h
2113 03-03-2014 14:00:00 7.98333 C 7.21 g/m*3 7.98 C 3.2 km/h
2114 03-03-2014 15:00:00 8.86667 C 7.03 g/m*3 8.39 C 5.23333 km/h
2115 03-03-2014 16:00:00 9.29167 C 6.64 g/m*3 9.29 C 3.34167 km/h
2116 03-03-2014 17:00:00 8.425 C 6.88 g/m*3 8.43 C 2.4 km/h
2117 03-03-2014 18:00:00 6.74167 C 6.55 g/m*3 6.74 C 3.86667 km/h
2118 03-03-2014 19:00:00 5.175 C 6.09 g/m*3 5.18 C 4.26667 km/h
2119 03-03-2014 20:00:00 4.325 C 5.85 g/m*3 4.33 C 4.66667 km/h
2120 03-03-2014 21:00:00 4.09167 C 5.73 g/m*3 4.09 C 4 km/h
2121 03-03-2014 22:00:00 3.575 C 5.6 g/m*3 3.58 C 4.66667 km/h
2122 03-03-2014 23:00:00 2.59167 C 5.34 g/m*3 2.59 C 1.33333 km/h
2123 04-03-2014 00:00:00 1.725 C 5.11 g/m*3 1.73 C 0.26667 km/h
2124 04-03-2014 01:00:00 0.95833 C 4.87 g/m*3 0.96 C 0 km/h
2125 04-03-2014 02:00:00 0.41667 C 4.74 g/m*3 0.42 C 0 km/h
Sensor: Nr:Datum:Temp:Abs-Feuchte:Windchill:Wind:
Aussen-T/F 2126 04-03-2014 03:00:00 0.21667 C 4.71 g/m*3 0.22 C 0.4 km/h
2127 04-03-2014 04:00:00 -0.175 C 4.6 g/m*3 -0.18 C 0.26667 km/h
2128 04-03-2014 05:00:00 -0.66667 C 4.44 g/m*3 -0.67 C 0 km/h
2129 04-03-2014 06:00:00 -0.80833 C 4.41 g/m*3 -0.81 C 0.53333 km/h
2130 04-03-2014 07:00:00 -0.88333 C 4.41 g/m*3 -0.88 C 0.26667 km/h
2131 04-03-2014 08:00:00 -0.85833 C 4.43 g/m*3 -0.86 C 0.93333 km/h
2132 04-03-2014 09:00:00 -0.61667 C 4.5 g/m*3 -0.62 C 1.6 km/h
2133 04-03-2014 10:00:00 0.375 C 4.83 g/m*3 0.38 C 0.13333 km/h
2134 04-03-2014 11:00:00 1.85833 C 5.38 g/m*3 1.86 C 0.8 km/h
2135 04-03-2014 12:00:00 5.63333 C 6.64 g/m*3 5.63 C 1.46667 km/h
2136 04-03-2014 13:00:00 9.93333 C 6.99 g/m*3 9.93 C 1.86667 km/h
2137 04-03-2014 14:00:00 11.40833 C 6.43 g/m*3 11.41 C 4.55 km/h
2138 04-03-2014 15:00:00 12.14167 C 5.9 g/m*3 12.14 C 4.81667 km/h
2139 04-03-2014 16:00:00 9.85833 C 6.67 g/m*3 9.86 C 2.8 km/h
2140 04-03-2014 17:00:00 8.95833 C 6.8 g/m*3 8.96 C 2.93333 km/h
2141 04-03-2014 18:00:00 7.35 C 6.39 g/m*3 7.35 C 4.4 km/h
2142 04-03-2014 19:00:00 7.55833 C 6.43 g/m*3 7.56 C 4.66667 km/h
2143 04-03-2014 20:00:00 8.05 C 6.5 g/m*3 8.05 C 3.73333 km/h
2144 04-03-2014 21:00:00 7.09167 C 6.41 g/m*3 7.09 C 2.66667 km/h
2145 04-03-2014 22:00:00 6.20833 C 6.29 g/m*3 6.21 C 2.8 km/h
2146 04-03-2014 23:00:00 5.475 C 6.08 g/m*3 5.48 C 0.66667 km/h
2147 05-03-2014 00:00:00 4.74167 C 5.88 g/m*3 4.74 C 1.33333 km/h
2148 05-03-2014 01:00:00 3.51667 C 5.57 g/m*3 3.52 C 0.26667 km/h
2149 05-03-2014 02:00:00 2.51667 C 5.35 g/m*3 2.52 C 0.53333 km/h
2150 05-03-2014 03:00:00 2.01667 C 5.22 g/m*3 2.02 C 1.33333 km/h
Sensor: Nr:Datum:Temp:Abs-Feuchte:Windchill:Wind:
Aussen-T/F 2151 05-03-2014 04:00:00 1.76667 C 5.16 g/m*3 1.77 C 1.86667 km/h
2152 05-03-2014 05:00:00 1.9 C 5.18 g/m*3 1.9 C 2.26667 km/h
2153 05-03-2014 06:00:00 1.5 C 5.08 g/m*3 1.5 C 0.66667 km/h
2154 05-03-2014 07:00:00 2.19167 C 5.28 g/m*3 2.19 C 4.41667 km/h
2155 05-03-2014 08:00:00 2.23333 C 5.22 g/m*3 2.23 C 4.275 km/h
2156 05-03-2014 09:00:00 2.85833 C 5.48 g/m*3 2.86 C 1.33333 km/h
2157 05-03-2014 10:00:00 4.92 C 6.12 g/m*3 4.92 C 3.06 km/h
2158 05-03-2014 11:00:00 8.6 C 6.79 g/m*3 7.75 C 6.4 km/h
2159 05-03-2014 12:00:00 9.30833 C 6.71 g/m*3 8.4 C 7.10833 km/h
2160 05-03-2014 13:00:00 10.66667 C 7.06 g/m*3 9.48 C 9.7 km/h
2161 05-03-2014 14:00:00 10.1 C 6.34 g/m*3 8.8 C 9.7 km/h
2162 05-03-2014 15:00:00 10.51667 C 6.38 g/m*3 8.83 C 12.76667 km/h
2163 05-03-2014 16:00:00 9.89167 C 6.35 g/m*3 9.2 C 6.575 km/h
2164 05-03-2014 17:00:00 9.56667 C 6.2 g/m*3 8.7 C 7.10833 km/h
2165 05-03-2014 18:00:00 7.45 C 6.06 g/m*3 7.45 C 3.46667 km/h
2166 05-03-2014 19:00:00 5.46667 C 6.02 g/m*3 4.54 C 5.2 km/h
2167 05-03-2014 20:00:00 4.875 C 5.96 g/m*3 4.88 C 4.8 km/h
2168 05-03-2014 21:00:00 3.75833 C 5.71 g/m*3 3.76 C 1.33333 km/h
2169 05-03-2014 22:00:00 2.925 C 5.51 g/m*3 2.93 C 0.4 km/h
2170 05-03-2014 23:00:00 2.175 C 5.3 g/m*3 2.17 C 0 km/h
2171 06-03-2014 00:00:00 1.71667 C 5.17 g/m*3 1.72 C 0.26667 km/h
2172 06-03-2014 01:00:00 1.25833 C 5.02 g/m*3 1.26 C 0 km/h
2173 06-03-2014 02:00:00 0.675 C 4.85 g/m*3 0.68 C 0.13333 km/h
2174 06-03-2014 03:00:00 0.16667 C 4.71 g/m*3 0.17 C 0.13333 km/h
2175 06-03-2014 04:00:00 -0.2 C 4.59 g/m*3 -0.2 C 0 km/h
Sensor: Nr:Datum:Temp:Abs-Feuchte:Windchill:Wind:
Aussen-T/F 2176 06-03-2014 05:00:00 -0.61667 C 4.46 g/m*3 -0.62 C 0 km/h
2177 06-03-2014 06:00:00 -0.24167 C 4.62 g/m*3 -0.24 C 1.6 km/h
2178 06-03-2014 07:00:00 -0.10833 C 4.66 g/m*3 -0.11 C 1.06667 km/h
2179 06-03-2014 08:00:00 0.29167 C 4.8 g/m*3 0.29 C 1.06667 km/h
2180 06-03-2014 09:00:00 0.75833 C 4.95 g/m*3 0.76 C 1.46667 km/h
2181 06-03-2014 10:00:00 1.475 C 5.22 g/m*3 1.48 C 1.86667 km/h
2182 06-03-2014 11:00:00 2.41667 C 5.6 g/m*3 2.42 C 2.4 km/h
2183 06-03-2014 12:00:00 4.25 C 6.34 g/m*3 4.25 C 2.26667 km/h
2184 06-03-2014 13:00:00 7.75 C 7.28 g/m*3 7.75 C 4.26667 km/h
2185 06-03-2014 14:00:00 10.26667 C 7.44 g/m*3 10.27 C 4.54167 km/h
2186 06-03-2014 15:00:00 12.58333 C 7.3 g/m*3 12.58 C 6.41667 km/h
2187 06-03-2014 16:00:00 12.3 C 6.9 g/m*3 12.3 C 5.75833 km/h
2188 06-03-2014 17:00:00 10.175 C 7.01 g/m*3 10.18 C 4.80833 km/h
2189 06-03-2014 18:00:00 7.48333 C 6.47 g/m*3 6.5 C 6.26667 km/h
2190 06-03-2014 19:00:00 6.275 C 6.26 g/m*3 5.32 C 5.6 km/h
2191 06-03-2014 20:00:00 5.275 C 5.97 g/m*3 5.28 C 4.66667 km/h
2192 06-03-2014 21:00:00 4.05833 C 5.65 g/m*3 4.06 C 1.46667 km/h
2193 06-03-2014 22:00:00 3.10833 C 5.35 g/m*3 3.11 C 0.13333 km/h
2194 06-03-2014 23:00:00 1.99167 C 5.07 g/m*3 1.99 C 0 km/h
2195 07-03-2014 00:00:00 1.275 C 4.93 g/m*3 1.27 C 0 km/h
2196 07-03-2014 01:00:00 0.80833 C 4.82 g/m*3 0.81 C 0 km/h
2197 07-03-2014 02:00:00 0.20833 C 4.67 g/m*3 0.21 C 0 km/h
2198 07-03-2014 03:00:00 -0.15 C 4.56 g/m*3 -0.15 C 0 km/h
2199 07-03-2014 04:00:00 -0.36 C 4.52 g/m*3 -0.36 C 0 km/h
2200 07-03-2014 07:00:00 -0.9 C 4.42 g/m*3 -0.9 C 1.6 km/h
Sensor: Nr:Datum:Temp:Abs-Feuchte:Windchill:Wind:
Aussen-T/F 2201 07-03-2014 08:00:00 -0.78333 C 4.45 g/m*3 -0.78 C 0.53333 km/h
2202 07-03-2014 09:00:00 -0.15 C 4.65 g/m*3 -0.15 C 0.8 km/h
2203 07-03-2014 10:00:00 0.99 C 5.04 g/m*3 0.99 C 0.8 km/h
2204 07-03-2014 13:00:00 12.16667 C 7.53 g/m*3 12.17 C 3.73333 km/h
2205 07-03-2014 14:00:00 13.80833 C 7.17 g/m*3 13.81 C 4.275 km/h
2206 07-03-2014 15:00:00 15.15833 C 5.97 g/m*3 15.16 C 7.79167 km/h
2207 07-03-2014 16:00:00 13.975 C 6.67 g/m*3 13.98 C 5.225 km/h
2208 07-03-2014 17:00:00 11.40833 C 7.15 g/m*3 11.41 C 4.26667 km/h
2209 07-03-2014 18:00:00 10.03333 C 6.91 g/m*3 10.03 C 4.93333 km/h
2210 07-03-2014 19:00:00 9.18889 C 6.76 g/m*3 9.19 C 3.91111 km/h
2211 07-03-2014 20:00:00 8.30833 C 6.56 g/m*3 8.31 C 4.14167 km/h
2212 07-03-2014 21:00:00 7.76667 C 6.51 g/m*3 6.86 C 6.15833 km/h
2213 07-03-2014 22:00:00 7.33333 C 6.46 g/m*3 7.33 C 3.6 km/h
2214 07-03-2014 23:00:00 5.49167 C 6.08 g/m*3 5.49 C 0.53333 km/h
2215 08-03-2014 00:00:00 4.8 C 5.9 g/m*3 4.8 C 0.53333 km/h
2216 08-03-2014 01:00:00 4.40833 C 5.86 g/m*3 4.41 C 1.6 km/h
2217 08-03-2014 02:00:00 4.35 C 5.85 g/m*3 4.35 C 0.53333 km/h
2218 08-03-2014 03:00:00 3.625 C 5.62 g/m*3 3.63 C 0 km/h
2219 08-03-2014 04:00:00 3.00833 C 5.49 g/m*3 3.01 C 0.66667 km/h
2220 08-03-2014 05:00:00 2.3 C 5.31 g/m*3 2.3 C 0.26667 km/h
2221 08-03-2014 06:00:00 1.93333 C 5.21 g/m*3 1.93 C 0.26667 km/h
2222 08-03-2014 07:00:00 1.70833 C 5.18 g/m*3 1.71 C 0.4 km/h
2223 08-03-2014 08:00:00 1.89167 C 5.25 g/m*3 1.89 C 0.66667 km/h
2224 08-03-2014 09:00:00 3.09167 C 5.72 g/m*3 3.09 C 0 km/h
2225 08-03-2014 10:00:00 5.45455 C 6.56 g/m*3 5.45 C 0.43636 km/h
Sensor: Nr:Datum:Temp:Abs-Feuchte:Windchill:Wind:
Aussen-T/F 2226 08-03-2014 11:00:00 9.66667 C 7.68 g/m*3 9.67 C 2.13333 km/h
2227 08-03-2014 12:00:00 13.74167 C 7.68 g/m*3 13.74 C 7.65833 km/h
2228 08-03-2014 13:00:00 15.45833 C 7.1 g/m*3 15.46 C 8.31667 km/h
2229 08-03-2014 14:00:00 15.8 C 6.92 g/m*3 15.8 C 8.46667 km/h
2230 08-03-2014 15:00:00 16.18333 C 6.88 g/m*3 16.18 C 8.46667 km/h
2231 08-03-2014 16:00:00 15.40833 C 6.68 g/m*3 15.41 C 6.84167 km/h
2232 08-03-2014 17:00:00 14.025 C 7.02 g/m*3 14.03 C 6.56667 km/h
2233 08-03-2014 18:00:00 10.25833 C 6.89 g/m*3 9.76 C 6.01667 km/h
2234 08-03-2014 19:00:00 8.58333 C 6.67 g/m*3 7.88 C 5.875 km/h
2235 08-03-2014 20:00:00 7.18333 C 6.5 g/m*3 7.18 C 3.46667 km/h
2236 08-03-2014 21:00:00 6.10833 C 6.24 g/m*3 6.11 C 0.66667 km/h
2237 08-03-2014 22:00:00 5.11667 C 5.96 g/m*3 5.12 C 0 km/h
2238 08-03-2014 23:00:00 4.10833 C 5.67 g/m*3 4.11 C 0.13333 km/h
2239 09-03-2014 00:00:00 3.24167 C 5.46 g/m*3 3.24 C 0 km/h
2240 09-03-2014 01:00:00 2.65 C 5.34 g/m*3 2.65 C 0 km/h
2241 09-03-2014 02:00:00 2.03333 C 5.2 g/m*3 2.03 C 0 km/h
2242 09-03-2014 03:00:00 1.66667 C 5.11 g/m*3 1.67 C 0 km/h
2243 09-03-2014 04:00:00 1.23333 C 4.99 g/m*3 1.23 C 0 km/h
2244 09-03-2014 05:00:00 0.90833 C 4.9 g/m*3 0.91 C 0 km/h
2245 09-03-2014 06:00:00 0.29167 C 4.7 g/m*3 0.29 C 0 km/h
2246 09-03-2014 07:00:00 0.1 C 4.68 g/m*3 0.1 C 0 km/h
2247 09-03-2014 08:00:00 0.175 C 4.71 g/m*3 0.18 C 0.13333 km/h
2248 09-03-2014 09:00:00 0.95833 C 5.01 g/m*3 0.96 C 0.13333 km/h
2249 09-03-2014 10:00:00 3.52222 C 5.93 g/m*3 3.52 C 0.71111 km/h
2250 09-03-2014 11:00:00 7.2 C 6.95 g/m*3 7.2 C 1.2 km/h
Sensor: Nr:Datum:Temp:Abs-Feuchte:Windchill:Wind:
Aussen-T/F 2251 09-03-2014 12:00:00 11.70833 C 7.68 g/m*3 11.71 C 3.2 km/h
2252 09-03-2014 13:00:00 16.89167 C 6.15 g/m*3 16.89 C 4.95833 km/h
2253 09-03-2014 14:00:00 19.19167 C 4.97 g/m*3 19.19 C 6.01667 km/h
2254 09-03-2014 15:00:00 20.125 C 4.8 g/m*3 20.13 C 5.61667 km/h
2255 09-03-2014 16:00:00 17.30833 C 6.28 g/m*3 17.31 C 4.14167 km/h
2256 09-03-2014 17:00:00 15.1 C 6.78 g/m*3 15.1 C 5.2 km/h
2257 09-03-2014 18:00:00 12.59167 C 6.53 g/m*3 12.59 C 6.26667 km/h
2258 09-03-2014 19:00:00 10.4 C 6.51 g/m*3 10.15 C 5.2 km/h
2259 09-03-2014 20:00:00 8.61667 C 6.47 g/m*3 8.62 C 2.66667 km/h
2260 09-03-2014 21:00:00 7.29167 C 6.09 g/m*3 7.29 C 0.26667 km/h
2261 09-03-2014 22:00:00 5.89167 C 5.77 g/m*3 5.89 C 0 km/h
2262 09-03-2014 23:00:00 4.50833 C 5.54 g/m*3 4.51 C 0 km/h
2263 10-03-2014 00:00:00 3.70833 C 5.36 g/m*3 3.71 C 0 km/h
2264 10-03-2014 01:00:00 2.775 C 5.21 g/m*3 2.78 C 0 km/h
2265 10-03-2014 02:00:00 2.18333 C 5.09 g/m*3 2.18 C 0 km/h
2266 10-03-2014 03:00:00 1.775 C 5.02 g/m*3 1.78 C 0 km/h
2267 10-03-2014 04:00:00 1.34167 C 4.91 g/m*3 1.34 C 0.13333 km/h
2268 10-03-2014 05:00:00 1.18333 C 4.89 g/m*3 1.18 C 0.13333 km/h
2269 10-03-2014 06:00:00 0.91667 C 4.84 g/m*3 0.92 C 0.26667 km/h
2270 10-03-2014 07:00:00 0.61667 C 4.77 g/m*3 0.62 C 0.13333 km/h
2271 10-03-2014 08:00:00 0.975 C 4.92 g/m*3 0.98 C 0.13333 km/h
2272 10-03-2014 09:00:00 2.44167 C 5.42 g/m*3 2.44 C 0.53333 km/h
2273 10-03-2014 10:00:00 5.16667 C 6.2 g/m*3 5.17 C 0.13333 km/h
2274 10-03-2014 11:00:00 8.03333 C 7 g/m*3 8.03 C 0.8 km/h
2275 10-03-2014 12:00:00 13.2 C 7.55 g/m*3 13.2 C 1.86667 km/h
Sensor: Nr:Datum:Temp:Abs-Feuchte:Windchill:Wind:
Aussen-T/F 2276 10-03-2014 13:00:00 16.99167 C 6.86 g/m*3 16.99 C 4.675 km/h
2277 10-03-2014 14:00:00 17.15 C 6.58 g/m*3 17.15 C 2.8 km/h
2278 10-03-2014 15:00:00 17.825 C 6.54 g/m*3 17.83 C 2.93333 km/h
2279 10-03-2014 16:00:00 16.18333 C 6.61 g/m*3 16.18 C 3.33333 km/h
2280 10-03-2014 17:00:00 14.55833 C 6.69 g/m*3 14.56 C 5.46667 km/h
2281 10-03-2014 18:00:00 12.39167 C 6.22 g/m*3 12.39 C 6.40833 km/h
2282 10-03-2014 19:00:00 10.46667 C 6.2 g/m*3 10.47 C 4.675 km/h
2283 10-03-2014 20:00:00 8.8 C 6.01 g/m*3 8.8 C 1.06667 km/h
2284 10-03-2014 21:00:00 7.61667 C 5.76 g/m*3 7.62 C 0.8 km/h
2285 10-03-2014 22:00:00 6.65 C 5.67 g/m*3 6.65 C 0.66667 km/h
2286 10-03-2014 23:00:00 5.71667 C 5.55 g/m*3 5.72 C 0.53333 km/h
2287 11-03-2014 00:00:00 4.74167 C 5.56 g/m*3 4.74 C 0 km/h
2288 11-03-2014 01:00:00 3.96667 C 5.42 g/m*3 3.97 C 0.26667 km/h
2289 11-03-2014 02:00:00 3.65 C 5.43 g/m*3 3.65 C 0.4 km/h
2290 11-03-2014 03:00:00 3.40833 C 5.43 g/m*3 3.41 C 0.53333 km/h
2291 11-03-2014 04:00:00 3.125 C 5.37 g/m*3 3.13 C 0 km/h
2292 11-03-2014 05:00:00 3.06667 C 5.35 g/m*3 3.07 C 0.8 km/h
2293 11-03-2014 06:00:00 2.34167 C 5.2 g/m*3 2.34 C 0 km/h
2294 11-03-2014 07:00:00 2.30833 C 5.25 g/m*3 2.31 C 0 km/h
2295 11-03-2014 08:00:00 2.8 C 5.47 g/m*3 2.8 C 0.66667 km/h
2296 11-03-2014 09:00:00 5.525 C 6.44 g/m*3 5.53 C 2.66667 km/h
2297 11-03-2014 10:00:00 7.4 C 6.94 g/m*3 7.4 C 2.26667 km/h
2298 11-03-2014 11:00:00 9.625 C 7.32 g/m*3 9.63 C 2.53333 km/h
2299 11-03-2014 12:00:00 12.76667 C 7.92 g/m*3 12.77 C 3.46667 km/h
2300 11-03-2014 13:00:00 15.29167 C 7.97 g/m*3 15.29 C 3.33333 km/h
Sensor: Nr:Datum:Temp:Abs-Feuchte:Windchill:Wind:
Aussen-T/F 2301 11-03-2014 14:00:00 16.30833 C 7.78 g/m*3 16.31 C 4.54167 km/h
2302 11-03-2014 15:00:00 17.9 C 7.67 g/m*3 17.9 C 5.35 km/h
2303 11-03-2014 16:00:00 17.075 C 8.02 g/m*3 17.08 C 7.1 km/h
2304 11-03-2014 17:00:00 14.95 C 8.26 g/m*3 14.95 C 3.73333 km/h
2305 11-03-2014 18:00:00 12.04167 C 8.03 g/m*3 12.04 C 5.06667 km/h
2306 11-03-2014 19:00:00 10.5 C 7.77 g/m*3 10.26 C 5.2 km/h
2307 11-03-2014 20:00:00 9.00833 C 7.07 g/m*3 9.01 C 2.66667 km/h
2308 11-03-2014 21:00:00 8.39167 C 6.71 g/m*3 8.39 C 2.26667 km/h
2309 11-03-2014 22:00:00 7.75 C 6.5 g/m*3 7.75 C 2.66667 km/h
2310 11-03-2014 23:00:00 8.1 C 6.27 g/m*3 8.1 C 4.675 km/h
2311 12-03-2014 00:00:00 7.35833 C 6.18 g/m*3 6.74 C 5.06667 km/h
2312 12-03-2014 01:00:00 6.80833 C 6.22 g/m*3 5.97 C 5.46667 km/h
2313 12-03-2014 02:00:00 6.33333 C 6.26 g/m*3 5.34 C 5.75 km/h
2314 12-03-2014 03:00:00 5.60833 C 6.16 g/m*3 4.75 C 5.06667 km/h
2315 12-03-2014 04:00:00 4.55833 C 5.92 g/m*3 4.56 C 1.46667 km/h
2316 12-03-2014 05:00:00 3.775 C 5.74 g/m*3 3.78 C 0.4 km/h
2317 12-03-2014 06:00:00 2.975 C 5.54 g/m*3 2.98 C 0.13333 km/h
2318 12-03-2014 07:00:00 2.66667 C 5.5 g/m*3 2.67 C 0 km/h
2319 12-03-2014 08:00:00 3 C 5.66 g/m*3 3 C 0.26667 km/h
2320 12-03-2014 09:00:00 4.30833 C 6.25 g/m*3 4.31 C 0 km/h
2321 12-03-2014 10:00:00 7.23333 C 7.3 g/m*3 7.23 C 0.13333 km/h
2322 12-03-2014 11:00:00 10.46667 C 7.41 g/m*3 10.47 C 2.93333 km/h
2323 12-03-2014 12:00:00 14.89167 C 7.54 g/m*3 14.89 C 4.275 km/h
2324 12-03-2014 13:00:00 17.175 C 6.9 g/m*3 17.18 C 5.34167 km/h
2325 12-03-2014 14:00:00 17.64167 C 6.54 g/m*3 17.64 C 6.15 km/h
Sensor: Nr:Datum:Temp:Abs-Feuchte:Windchill:Wind:
Aussen-T/F 2326 12-03-2014 15:00:00 18.89167 C 6.09 g/m*3 18.89 C 6.55833 km/h
2327 12-03-2014 16:00:00 17.50833 C 6.22 g/m*3 17.51 C 3.60833 km/h
2328 12-03-2014 17:00:00 15.11667 C 6.8 g/m*3 15.12 C 4.8 km/h
2329 12-03-2014 18:00:00 12.40833 C 6.46 g/m*3 12.41 C 7.10833 km/h
2330 12-03-2014 19:00:00 10.525 C 6.47 g/m*3 10.04 C 6.15833 km/h
2331 12-03-2014 20:00:00 9.08333 C 6.35 g/m*3 9.08 C 3.73333 km/h
2332 12-03-2014 21:00:00 7.7 C 6.2 g/m*3 7.7 C 0.93333 km/h
2333 12-03-2014 22:00:00 6.33333 C 5.94 g/m*3 6.33 C 0.13333 km/h
2334 12-03-2014 23:00:00 5.50833 C 5.82 g/m*3 5.51 C 0 km/h
2335 13-03-2014 00:00:00 4.44167 C 5.64 g/m*3 4.44 C 0 km/h
2336 13-03-2014 01:00:00 4.11667 C 5.6 g/m*3 4.12 C 0.53333 km/h
2337 13-03-2014 02:00:00 3.56667 C 5.46 g/m*3 3.57 C 0.26667 km/h
2338 13-03-2014 03:00:00 3 C 5.33 g/m*3 3 C 0.4 km/h
2339 13-03-2014 04:00:00 2.325 C 5.16 g/m*3 2.33 C 0.13333 km/h
2340 13-03-2014 05:00:00 1.74167 C 5.04 g/m*3 1.74 C 0.13333 km/h
2341 13-03-2014 06:00:00 1.28333 C 4.93 g/m*3 1.28 C 0.4 km/h
2342 13-03-2014 07:00:00 1.05 C 4.9 g/m*3 1.05 C 0.4 km/h
2343 13-03-2014 08:00:00 1.64167 C 5.13 g/m*3 1.64 C 0 km/h
2344 13-03-2014 09:00:00 3.00833 C 5.56 g/m*3 3.01 C 0 km/h
2345 13-03-2014 10:00:00 5.69167 C 6.33 g/m*3 5.69 C 0 km/h
2346 13-03-2014 11:00:00 8.54167 C 7.02 g/m*3 8.54 C 0.53333 km/h
2347 13-03-2014 12:00:00 13.825 C 7.66 g/m*3 13.83 C 3.46667 km/h
2348 13-03-2014 13:00:00 17.35 C 7.46 g/m*3 17.35 C 2.66667 km/h
2349 13-03-2014 14:00:00 17.55 C 6.62 g/m*3 17.55 C 2.4 km/h
2350 13-03-2014 15:00:00 18.63333 C 6.35 g/m*3 18.63 C 5.50833 km/h
Sensor: Nr:Datum:Temp:Abs-Feuchte:Windchill:Wind:
Aussen-T/F 2351 13-03-2014 16:00:00 18.66667 C 5.55 g/m*3 18.67 C 6.83333 km/h
2352 13-03-2014 17:00:00 17.79167 C 5.3 g/m*3 17.79 C 7.39167 km/h
2353 13-03-2014 18:00:00 12.93333 C 6.15 g/m*3 12.93 C 5.225 km/h
2354 13-03-2014 19:00:00 10.64167 C 5.9 g/m*3 10.24 C 5.88333 km/h
2355 13-03-2014 20:00:00 8.79167 C 5.93 g/m*3 8.79 C 1.73333 km/h
2356 13-03-2014 21:00:00 7.44167 C 5.79 g/m*3 7.44 C 0.53333 km/h
2357 13-03-2014 22:00:00 6.16667 C 5.67 g/m*3 6.17 C 0 km/h
2358 13-03-2014 23:00:00 5.64167 C 5.58 g/m*3 5.64 C 0.26667 km/h
2359 14-03-2014 00:00:00 5.01667 C 5.49 g/m*3 5.02 C 0.66667 km/h
2360 14-03-2014 01:00:00 4.25833 C 5.39 g/m*3 4.26 C 0.4 km/h
2361 14-03-2014 02:00:00 3.49167 C 5.23 g/m*3 3.49 C 0.53333 km/h
2362 14-03-2014 03:00:00 2.64167 C 5.12 g/m*3 2.64 C 0.93333 km/h
2363 14-03-2014 04:00:00 2.00833 C 4.99 g/m*3 2.01 C 0 km/h
2364 14-03-2014 05:00:00 1.65833 C 4.96 g/m*3 1.66 C 0.93333 km/h
2365 14-03-2014 06:00:00 1.25833 C 4.85 g/m*3 1.26 C 1.06667 km/h
2366 14-03-2014 07:00:00 1.05833 C 4.84 g/m*3 1.06 C 0.4 km/h
2367 14-03-2014 08:00:00 1.475 C 5.03 g/m*3 1.48 C 0.26667 km/h
2368 14-03-2014 09:00:00 3.04167 C 5.54 g/m*3 3.04 C 0 km/h
2369 14-03-2014 10:00:00 6.05 C 6.26 g/m*3 6.05 C 0 km/h
2370 14-03-2014 11:00:00 9.03333 C 6.86 g/m*3 9.03 C 2 km/h
2371 14-03-2014 12:00:00 13.40833 C 7.69 g/m*3 13.41 C 2.8 km/h
2372 14-03-2014 13:00:00 15.81667 C 7.42 g/m*3 15.82 C 3.6 km/h
2373 14-03-2014 14:00:00 16.28333 C 6.78 g/m*3 16.28 C 4.26667 km/h
2374 14-03-2014 15:00:00 17.44167 C 6.61 g/m*3 17.44 C 3.2 km/h
2375 14-03-2014 16:00:00 17.06667 C 6.44 g/m*3 17.07 C 4 km/h
Sensor: Nr:Datum:Temp:Abs-Feuchte:Windchill:Wind:
Aussen-T/F 2376 14-03-2014 17:00:00 14.5 C 7.55 g/m*3 14.5 C 2.26667 km/h
2377 14-03-2014 18:00:00 12.15833 C 7.32 g/m*3 12.16 C 5.2 km/h
2378 14-03-2014 19:00:00 10.28333 C 7.12 g/m*3 10.28 C 4.13333 km/h
2379 14-03-2014 20:00:00 9.50833 C 7.16 g/m*3 9.51 C 3.60833 km/h
2380 14-03-2014 21:00:00 8.33333 C 6.93 g/m*3 8.33 C 1.86667 km/h
2381 14-03-2014 22:00:00 7 C 6.65 g/m*3 7 C 1.46667 km/h
2382 14-03-2014 23:00:00 7.275 C 6.56 g/m*3 7.28 C 3.73333 km/h
2383 15-03-2014 00:00:00 6.80833 C 6.38 g/m*3 5.92 C 5.61667 km/h
2384 15-03-2014 01:00:00 7.175 C 6.39 g/m*3 6.06 C 6.56667 km/h
2385 15-03-2014 02:00:00 7.23333 C 6.34 g/m*3 6.2 C 6.3 km/h
2386 15-03-2014 03:00:00 7.175 C 6.22 g/m*3 6.22 C 6.01667 km/h
2387 15-03-2014 04:00:00 7.675 C 6.28 g/m*3 7.04 C 5.21667 km/h
2388 15-03-2014 05:00:00 8.48333 C 6.57 g/m*3 7.88 C 5.5 km/h
2389 15-03-2014 06:00:00 9.2 C 7.03 g/m*3 8.33 C 6.84167 km/h
2390 15-03-2014 07:00:00 9.58333 C 7.16 g/m*3 7.99 C 10.875 km/h
2391 15-03-2014 08:00:00 9.21667 C 7.44 g/m*3 7.05 C 14.225 km/h
2392 15-03-2014 09:00:00 8.375 C 7.68 g/m*3 6.65 C 10.20833 km/h
2393 15-03-2014 10:00:00 8.525 C 7.65 g/m*3 6.53 C 11.95833 km/h
2394 15-03-2014 11:00:00 7.975 C 7.39 g/m*3 6.33 C 9.39167 km/h
2395 15-03-2014 12:00:00 8.51667 C 7.39 g/m*3 6.97 C 9.41667 km/h
2396 15-03-2014 13:00:00 9.88333 C 7.14 g/m*3 8.01 C 13.16667 km/h
2397 15-03-2014 14:00:00 10.36667 C 6.52 g/m*3 8.24 C 16.1 km/h
2398 15-03-2014 15:00:00 10.8 C 6.13 g/m*3 9.04 C 13.83333 km/h
2399 15-03-2014 16:00:00 10.65833 C 5.96 g/m*3 9.23 C 11.16667 km/h
2400 15-03-2014 17:00:00 10.46667 C 6.14 g/m*3 9.29 C 9.41667 km/h
Sensor: Nr:Datum:Temp:Abs-Feuchte:Windchill:Wind:
Aussen-T/F 2401 15-03-2014 18:00:00 10.1 C 6.4 g/m*3 9.51 C 6.28333 km/h
2402 15-03-2014 19:00:00 9.54167 C 6.79 g/m*3 8.97 C 5.89167 km/h
2403 15-03-2014 20:00:00 9.51667 C 6.87 g/m*3 8.37 C 8.33333 km/h
2404 15-03-2014 21:00:00 9.44167 C 6.92 g/m*3 7.77 C 11.15833 km/h
2405 15-03-2014 22:00:00 9.30833 C 6.97 g/m*3 7.91 C 9.43333 km/h
2406 15-03-2014 23:00:00 9.33333 C 6.98 g/m*3 8.02 C 9.00833 km/h
2407 16-03-2014 00:00:00 9.58333 C 7.02 g/m*3 7.7 C 12.76667 km/h
2408 16-03-2014 01:00:00 9.83333 C 7.11 g/m*3 7.82 C 14.1 km/h
2409 16-03-2014 02:00:00 9.70833 C 7.27 g/m*3 7.95 C 12.09167 km/h
2410 16-03-2014 03:00:00 9.875 C 7.36 g/m*3 8.23 C 11.55833 km/h
2411 16-03-2014 04:00:00 10.10833 C 7.51 g/m*3 8.77 C 9.95833 km/h
2412 16-03-2014 05:00:00 10.475 C 7.66 g/m*3 8.71 C 13.3 km/h
2413 16-03-2014 06:00:00 10.33333 C 7.72 g/m*3 8.78 C 11.56667 km/h
2414 16-03-2014 07:00:00 10.68333 C 7.85 g/m*3 9.22 C 11.43333 km/h
2415 16-03-2014 08:00:00 10.66667 C 7.84 g/m*3 9.15 C 11.83333 km/h
2416 16-03-2014 09:00:00 11 C 7.94 g/m*3 9.27 C 13.96667 km/h
2417 16-03-2014 10:00:00 11.38333 C 8.02 g/m*3 11.38 C 16.36667 km/h
2418 16-03-2014 11:00:00 12.95833 C 8.43 g/m*3 12.96 C 15.16667 km/h
2419 16-03-2014 12:00:00 14.74167 C 8.81 g/m*3 14.74 C 12.1 km/h
2420 16-03-2014 13:00:00 15.04167 C 8.92 g/m*3 15.04 C 9.925 km/h
2421 16-03-2014 14:00:00 15.125 C 8.8 g/m*3 15.13 C 13.56667 km/h
2422 16-03-2014 15:00:00 15.5 C 8.8 g/m*3 15.5 C 17.03333 km/h
2423 16-03-2014 16:00:00 14.69167 C 8.59 g/m*3 14.69 C 16.375 km/h
2424 16-03-2014 17:00:00 14.725 C 8.7 g/m*3 14.73 C 12.23333 km/h
2425 16-03-2014 18:00:00 13.125 C 8.37 g/m*3 13.13 C 4.4 km/h
Sensor: Nr:Datum:Temp:Abs-Feuchte:Windchill:Wind:
Aussen-T/F 2426 16-03-2014 19:00:00 10.25 C 7.92 g/m*3 10.25 C 3.86667 km/h
2427 16-03-2014 20:00:00 9.55 C 7.83 g/m*3 9.55 C 3.73333 km/h
2428 16-03-2014 21:00:00 9.40833 C 7.76 g/m*3 9.41 C 3.2 km/h
2429 16-03-2014 22:00:00 9.55833 C 7.72 g/m*3 9.56 C 4.68333 km/h
2430 16-03-2014 23:00:00 7.79167 C 7.24 g/m*3 7.79 C 1.73333 km/h
2431 17-03-2014 00:00:00 7.09167 C 7.09 g/m*3 7.09 C 0.93333 km/h
2432 17-03-2014 01:00:00 7.13333 C 7.13 g/m*3 6.43 C 5.21667 km/h
2433 17-03-2014 02:00:00 7.08333 C 7.13 g/m*3 5.63 C 7.8 km/h
2434 17-03-2014 03:00:00 7.475 C 7.28 g/m*3 6.02 C 8.075 km/h
2435 17-03-2014 04:00:00 7.90833 C 7.39 g/m*3 6.66 C 7.525 km/h
2436 17-03-2014 05:00:00 8.23333 C 7.47 g/m*3 6.8 C 8.61667 km/h
2437 17-03-2014 06:00:00 8.31667 C 7.51 g/m*3 6.9 C 8.59167 km/h
2438 17-03-2014 07:00:00 8.73333 C 7.63 g/m*3 7.45 C 8.34167 km/h
2439 17-03-2014 08:00:00 9.225 C 7.78 g/m*3 8 C 8.48333 km/h
2440 17-03-2014 09:00:00 10 C 7.98 g/m*3 8.99 C 8.06667 km/h
2441 17-03-2014 10:00:00 11.125 C 8.17 g/m*3 11.13 C 9.29167 km/h
2442 17-03-2014 11:00:00 11.9 C 8.26 g/m*3 11.9 C 11.56667 km/h
2443 17-03-2014 12:00:00 12.66667 C 8.37 g/m*3 12.67 C 8.75 km/h
2444 17-03-2014 13:00:00 13.05 C 8.53 g/m*3 13.05 C 7.25 km/h
2445 17-03-2014 14:00:00 13.84167 C 8.46 g/m*3 13.84 C 9.68333 km/h
2446 17-03-2014 15:00:00 13.725 C 8.18 g/m*3 13.73 C 11.7 km/h
2447 17-03-2014 16:00:00 13.13333 C 7.92 g/m*3 13.13 C 8.05833 km/h
2448 17-03-2014 17:00:00 12.875 C 7.83 g/m*3 12.88 C 6.28333 km/h
2449 17-03-2014 18:00:00 12.28333 C 7.77 g/m*3 12.28 C 5.49167 km/h
2450 17-03-2014 19:00:00 11.225 C 7.7 g/m*3 11.23 C 1.06667 km/h
Sensor: Nr:Datum:Temp:Abs-Feuchte:Windchill:Wind:
Aussen-T/F 2451 17-03-2014 20:00:00 10.34167 C 7.68 g/m*3 10.34 C 1.73333 km/h
2452 17-03-2014 21:00:00 9.85833 C 7.71 g/m*3 9.86 C 1.33333 km/h
2453 17-03-2014 22:00:00 9.75833 C 7.7 g/m*3 9.76 C 2.4 km/h
2454 17-03-2014 23:00:00 9.70833 C 7.66 g/m*3 9.71 C 2.26667 km/h
2455 18-03-2014 00:00:00 8.375 C 7.31 g/m*3 8.38 C 0.93333 km/h
2456 18-03-2014 01:00:00 8.3 C 7.44 g/m*3 8.3 C 0.93333 km/h
2457 18-03-2014 02:00:00 8.69167 C 7.51 g/m*3 8.69 C 1.2 km/h
2458 18-03-2014 03:00:00 8.54167 C 7.44 g/m*3 8.54 C 2.26667 km/h
2459 18-03-2014 04:00:00 7.73333 C 7.22 g/m*3 7.73 C 1.2 km/h
2460 18-03-2014 05:00:00 7.53333 C 7.18 g/m*3 7.53 C 1.73333 km/h
2461 18-03-2014 06:00:00 7.65833 C 7.28 g/m*3 7.66 C 3.46667 km/h
2462 18-03-2014 07:00:00 7.98333 C 7.47 g/m*3 7.18 C 5.9 km/h
2463 18-03-2014 08:00:00 8.51667 C 7.62 g/m*3 7.65 C 6.43333 km/h
2464 18-03-2014 09:00:00 8.58333 C 7.69 g/m*3 7.48 C 7.39167 km/h
2465 18-03-2014 10:00:00 8.70833 C 7.62 g/m*3 6.61 C 12.9 km/h
2466 18-03-2014 11:00:00 8.56667 C 7.75 g/m*3 7.47 C 7.375 km/h
2467 18-03-2014 12:00:00 9.04167 C 7.92 g/m*3 7.6 C 9.40833 km/h
2468 18-03-2014 13:00:00 9.45833 C 7.89 g/m*3 8.7 C 6.56667 km/h
2469 18-03-2014 14:00:00 10.425 C 8 g/m*3 9.44 C 8.31667 km/h
2470 18-03-2014 15:00:00 11.24167 C 8.05 g/m*3 11.24 C 10.63333 km/h
2471 18-03-2014 16:00:00 11.38333 C 7.84 g/m*3 11.38 C 12.1 km/h
2472 18-03-2014 17:00:00 11.44167 C 7.79 g/m*3 11.44 C 6.95833 km/h
2473 18-03-2014 18:00:00 11.38333 C 7.73 g/m*3 11.38 C 11.425 km/h
2474 18-03-2014 19:00:00 11.26667 C 7.41 g/m*3 11.27 C 11.56667 km/h
2475 18-03-2014 20:00:00 10.84167 C 7.05 g/m*3 8.76 C 16.76667 km/h
Sensor: Nr:Datum:Temp:Abs-Feuchte:Windchill:Wind:
Aussen-T/F 2476 18-03-2014 21:00:00 10.44167 C 6.88 g/m*3 8.15 C 17.83333 km/h
2477 18-03-2014 22:00:00 9.775 C 7.07 g/m*3 8.01 C 12.23333 km/h
2478 18-03-2014 23:00:00 9.86667 C 7.17 g/m*3 7.95 C 13.43333 km/h
2479 19-03-2014 00:00:00 9.80833 C 7.38 g/m*3 7.99 C 12.625 km/h
2480 19-03-2014 01:00:00 9.75833 C 7.56 g/m*3 7.97 C 12.35833 km/h
2481 19-03-2014 02:00:00 9.63333 C 7.68 g/m*3 8.09 C 10.6 km/h
2482 19-03-2014 03:00:00 9.925 C 7.56 g/m*3 8.15 C 12.5 km/h
2483 19-03-2014 04:00:00 9.9 C 7.52 g/m*3 8.52 C 9.94167 km/h
2484 19-03-2014 05:00:00 9.975 C 7.48 g/m*3 8.29 C 11.96667 km/h
2485 19-03-2014 06:00:00 9.84167 C 7.49 g/m*3 8.57 C 9.26667 km/h
2486 19-03-2014 07:00:00 9.925 C 7.48 g/m*3 9.14 C 6.975 km/h
2487 19-03-2014 08:00:00 10.26667 C 7.57 g/m*3 8.81 C 10.88333 km/h
2488 19-03-2014 09:00:00 10.875 C 7.64 g/m*3 9.68 C 9.95833 km/h
2489 19-03-2014 10:00:00 11.88333 C 7.71 g/m*3 11.88 C 15.16667 km/h
2490 19-03-2014 11:00:00 13.14167 C 7.43 g/m*3 13.14 C 15.03333 km/h
2491 19-03-2014 12:00:00 14.28333 C 7.51 g/m*3 14.28 C 16.76667 km/h
2492 19-03-2014 13:00:00 15.74167 C 7.71 g/m*3 15.74 C 16.76667 km/h
2493 19-03-2014 14:00:00 15.84167 C 7.75 g/m*3 15.84 C 18.23333 km/h
2494 19-03-2014 15:00:00 16.575 C 7.62 g/m*3 16.58 C 16.23333 km/h
2495 19-03-2014 16:00:00 16.54167 C 7.53 g/m*3 16.54 C 13.56667 km/h
2496 19-03-2014 17:00:00 15.88333 C 7.76 g/m*3 15.88 C 13.3 km/h
2497 19-03-2014 18:00:00 14.56667 C 7.85 g/m*3 14.57 C 9.53333 km/h
2498 19-03-2014 19:00:00 13.35833 C 7.69 g/m*3 13.36 C 8.86667 km/h
2499 19-03-2014 20:00:00 12.35833 C 7.54 g/m*3 12.36 C 8.74167 km/h
2500 19-03-2014 21:00:00 12.08333 C 7.45 g/m*3 12.08 C 9.96667 km/h
Sensor: Nr:Datum:Temp:Abs-Feuchte:Windchill:Wind:
Aussen-T/F 2501 19-03-2014 22:00:00 11.675 C 7.39 g/m*3 11.68 C 11.425 km/h
2502 19-03-2014 23:00:00 11.05833 C 7.36 g/m*3 11.06 C 8.59167 km/h
2503 20-03-2014 00:00:00 10.21667 C 7.26 g/m*3 9.42 C 7.25 km/h
2504 20-03-2014 01:00:00 9.23333 C 7.14 g/m*3 8.82 C 5.21667 km/h
2505 20-03-2014 02:00:00 8.69167 C 7.04 g/m*3 7.96 C 6.025 km/h
2506 20-03-2014 03:00:00 7.71667 C 6.81 g/m*3 7.72 C 2.4 km/h
2507 20-03-2014 04:00:00 6.36667 C 6.59 g/m*3 6.37 C 1.46667 km/h
2508 20-03-2014 05:00:00 5.48333 C 6.34 g/m*3 5.48 C 1.2 km/h
2509 20-03-2014 06:00:00 4.775 C 6.18 g/m*3 4.78 C 0.53333 km/h
2510 20-03-2014 07:00:00 4.56667 C 6.19 g/m*3 4.57 C 0 km/h
2511 20-03-2014 08:00:00 5.225 C 6.49 g/m*3 5.23 C 0.53333 km/h
2512 20-03-2014 09:00:00 6.96667 C 7.15 g/m*3 6.97 C 1.86667 km/h
2513 20-03-2014 10:00:00 10.275 C 7.74 g/m*3 10.28 C 3.33333 km/h
2514 20-03-2014 11:00:00 14.79167 C 7.69 g/m*3 14.79 C 5.20833 km/h
2515 20-03-2014 12:00:00 18.85833 C 6.57 g/m*3 18.86 C 10.20833 km/h
2516 20-03-2014 13:00:00 19.83333 C 6.47 g/m*3 19.83 C 7.78333 km/h
2517 20-03-2014 14:00:00 20.29167 C 6.72 g/m*3 20.29 C 9 km/h
2518 20-03-2014 15:00:00 20.98333 C 6.91 g/m*3 20.98 C 5.61667 km/h
2519 20-03-2014 16:00:00 21.96667 C 6.57 g/m*3 21.97 C 8.60833 km/h
2520 20-03-2014 17:00:00 21.78889 C 6.2 g/m*3 21.79 C 7.52222 km/h
2521 20-03-2014 18:00:00 17.44167 C 6.97 g/m*3 17.44 C 4.93333 km/h
2522 20-03-2014 19:00:00 14.35 C 7.18 g/m*3 14.35 C 5.86667 km/h
2523 20-03-2014 20:00:00 13.8 C 7.37 g/m*3 13.8 C 5.06667 km/h
2524 20-03-2014 21:00:00 13.53333 C 7.54 g/m*3 13.53 C 3.86667 km/h
2525 20-03-2014 22:00:00 12.79167 C 7.61 g/m*3 12.79 C 4.26667 km/h
Sensor: Nr:Datum:Temp:Abs-Feuchte:Windchill:Wind:
Aussen-T/F 2526 20-03-2014 23:00:00 12.21667 C 7.68 g/m*3 12.22 C 2.8 km/h
2527 21-03-2014 00:00:00 11.66667 C 7.72 g/m*3 11.67 C 2.93333 km/h
2528 21-03-2014 01:00:00 10.79167 C 7.64 g/m*3 10.79 C 1.2 km/h
2529 21-03-2014 02:00:00 9.78333 C 7.45 g/m*3 9.78 C 2.8 km/h
2530 21-03-2014 03:00:00 12.85 C 7.95 g/m*3 12.85 C 10.85833 km/h
2531 21-03-2014 04:00:00 15.675 C 8.06 g/m*3 15.68 C 15.7 km/h
2532 21-03-2014 05:00:00 15.5 C 8.02 g/m*3 15.5 C 17.43333 km/h
2533 21-03-2014 06:00:00 15.31667 C 7.82 g/m*3 15.32 C 21.73333 km/h
2534 21-03-2014 07:00:00 15.3 C 7.94 g/m*3 15.3 C 23.46667 km/h
2535 21-03-2014 08:00:00 15.45 C 7.78 g/m*3 15.45 C 22.78333 km/h
2536 21-03-2014 09:00:00 15.725 C 7.49 g/m*3 15.73 C 25.075 km/h
2537 21-03-2014 10:00:00 16.00833 C 7.27 g/m*3 16.01 C 20.78333 km/h
2538 21-03-2014 11:00:00 16.88333 C 7.05 g/m*3 16.88 C 21.44167 km/h
2539 21-03-2014 12:00:00 16.70833 C 7.71 g/m*3 16.71 C 21.43333 km/h
2540 21-03-2014 13:00:00 15.81667 C 7.87 g/m*3 15.82 C 19.975 km/h
2541 21-03-2014 14:00:00 14.88333 C 8.24 g/m*3 14.88 C 19.03333 km/h
2542 21-03-2014 15:00:00 14.375 C 8.34 g/m*3 14.38 C 17.43333 km/h
2543 21-03-2014 16:00:00 13.78333 C 7.28 g/m*3 13.78 C 16.10833 km/h
2544 21-03-2014 17:00:00 12.08333 C 7.34 g/m*3 12.08 C 9 km/h
2545 21-03-2014 18:00:00 11.125 C 7.05 g/m*3 11.13 C 6.15833 km/h
2546 21-03-2014 19:00:00 9.93333 C 6.88 g/m*3 9.93 C 0.66667 km/h
2547 21-03-2014 20:00:00 9.19167 C 6.79 g/m*3 9.19 C 1.86667 km/h
2548 21-03-2014 21:00:00 8.91667 C 6.76 g/m*3 8.92 C 2.4 km/h
2549 21-03-2014 22:00:00 8.78333 C 6.95 g/m*3 8.78 C 0.93333 km/h
2550 21-03-2014 23:00:00 8.75 C 7.26 g/m*3 8.75 C 0.53333 km/h
Sensor: Nr:Datum:Temp:Abs-Feuchte:Windchill:Wind:
Aussen-T/F 2551 22-03-2014 00:00:00 8.575 C 7.34 g/m*3 8.57 C 1.33333 km/h
2552 22-03-2014 01:00:00 7.83333 C 7.29 g/m*3 7.83 C 1.2 km/h
2553 22-03-2014 02:00:00 7.76667 C 7.26 g/m*3 7.77 C 2.4 km/h
2554 22-03-2014 03:00:00 7.45 C 7.26 g/m*3 7.45 C 1.86667 km/h
2555 22-03-2014 04:00:00 8.21667 C 7.57 g/m*3 8.22 C 0.13333 km/h
2556 22-03-2014 05:00:00 8.3 C 7.55 g/m*3 8.3 C 0 km/h
2557 22-03-2014 06:00:00 8.45 C 7.78 g/m*3 8.45 C 1.6 km/h
2558 22-03-2014 07:00:00 8.475 C 7.86 g/m*3 8.48 C 1.6 km/h
2559 22-03-2014 08:00:00 9.74167 C 7.6 g/m*3 9.03 C 6.575 km/h
2560 22-03-2014 09:00:00 10.5 C 7.06 g/m*3 8.8 C 12.89167 km/h
2561 22-03-2014 10:00:00 11.01667 C 6.81 g/m*3 11.02 C 13.03333 km/h
2562 22-03-2014 11:00:00 11.06667 C 6.75 g/m*3 11.07 C 9 km/h
2563 22-03-2014 12:00:00 12.41667 C 6.93 g/m*3 12.42 C 11.95 km/h
2564 22-03-2014 13:00:00 12.95833 C 6.64 g/m*3 12.96 C 11.95833 km/h
2565 22-03-2014 14:00:00 12.51667 C 6.77 g/m*3 12.52 C 7.79167 km/h
2566 22-03-2014 15:00:00 10.475 C 7.69 g/m*3 9.02 C 11.14167 km/h
2567 22-03-2014 16:00:00 11.01667 C 7.38 g/m*3 11.02 C 12.49167 km/h
2568 22-03-2014 17:00:00 7.75 C 6.93 g/m*3 5.73 C 11.14167 km/h
2569 22-03-2014 18:00:00 6.24167 C 6.76 g/m*3 6.24 C 2.8 km/h
2570 22-03-2014 19:00:00 5.675 C 6.72 g/m*3 5.68 C 3.06667 km/h
2571 22-03-2014 20:00:00 5.75 C 6.73 g/m*3 5.75 C 2.53333 km/h
2572 22-03-2014 21:00:00 5.51667 C 6.6 g/m*3 5.52 C 2 km/h
2573 22-03-2014 22:00:00 4.89167 C 6.4 g/m*3 4.89 C 3.2 km/h
2574 22-03-2014 23:00:00 5.05 C 6.44 g/m*3 5.05 C 3.86667 km/h
2575 23-03-2014 00:00:00 4.64167 C 6.28 g/m*3 4.64 C 3.46667 km/h
Sensor: Nr:Datum:Temp:Abs-Feuchte:Windchill:Wind:
Aussen-T/F 2576 23-03-2014 01:00:00 4.73333 C 6.36 g/m*3 4.73 C 1.6 km/h
2577 23-03-2014 02:00:00 4.66667 C 6.33 g/m*3 4.67 C 1.06667 km/h
2578 23-03-2014 03:00:00 4.26667 C 6.21 g/m*3 4.27 C 0.26667 km/h
2579 23-03-2014 04:00:00 5.00833 C 6.49 g/m*3 5.01 C 3.21667 km/h
2580 23-03-2014 05:00:00 5.10833 C 6.32 g/m*3 5.11 C 2.4 km/h
2581 23-03-2014 06:00:00 4.06667 C 5.94 g/m*3 4.07 C 1.33333 km/h
2582 23-03-2014 07:00:00 3.99167 C 6 g/m*3 3.99 C 1.86667 km/h
2583 23-03-2014 08:00:00 5.25833 C 6.12 g/m*3 3.49 C 7.8 km/h
2584 23-03-2014 09:00:00 5.925 C 5.87 g/m*3 3.38 C 11.95833 km/h
2585 23-03-2014 10:00:00 6.96667 C 5.83 g/m*3 4.51 C 12.75833 km/h
2586 23-03-2014 11:00:00 7.13333 C 5.64 g/m*3 4.59 C 13.56667 km/h
2587 23-03-2014 12:00:00 8.25 C 5.59 g/m*3 5.68 C 15.56667 km/h
2588 23-03-2014 13:00:00 8.69167 C 5.46 g/m*3 6.26 C 15.3 km/h
2589 23-03-2014 14:00:00 8.89167 C 5.5 g/m*3 6.6 C 14.63333 km/h
2590 23-03-2014 15:00:00 8.84167 C 5.43 g/m*3 6.79 C 12.76667 km/h
2591 23-03-2014 16:00:00 8.73333 C 5.59 g/m*3 6.66 C 12.76667 km/h
2592 23-03-2014 17:00:00 8.41667 C 5.68 g/m*3 6.73 C 10.075 km/h
2593 23-03-2014 18:00:00 8.09167 C 5.93 g/m*3 8.09 C 2.53333 km/h
2594 23-03-2014 19:00:00 6.48333 C 5.91 g/m*3 6.48 C 2.53333 km/h
2595 23-03-2014 20:00:00 5.75 C 5.81 g/m*3 5.75 C 1.2 km/h
2596 23-03-2014 21:00:00 4.71667 C 5.62 g/m*3 4.72 C 2.93333 km/h
2597 23-03-2014 22:00:00 3.44167 C 5.42 g/m*3 3.44 C 2.13333 km/h
2598 23-03-2014 23:00:00 2.76667 C 5.35 g/m*3 2.77 C 0.66667 km/h
2599 24-03-2014 00:00:00 3.24167 C 5.43 g/m*3 3.24 C 1.73333 km/h
2600 24-03-2014 01:00:00 3.38333 C 5.42 g/m*3 3.38 C 4.3 km/h
Sensor: Nr:Datum:Temp:Abs-Feuchte:Windchill:Wind:
Aussen-T/F 2601 24-03-2014 02:00:00 3.14167 C 5.38 g/m*3 3.14 C 1.74167 km/h
2602 24-03-2014 03:00:00 3.05 C 5.37 g/m*3 3.05 C 0.4 km/h
2603 24-03-2014 04:00:00 3.35 C 5.38 g/m*3 3.35 C 1.6 km/h
2604 24-03-2014 05:00:00 3.21667 C 5.34 g/m*3 3.22 C 0.53333 km/h
2605 24-03-2014 06:00:00 3.03333 C 5.34 g/m*3 3.03 C 0.8 km/h
2606 24-03-2014 07:00:00 3.3 C 5.39 g/m*3 3.3 C 3.86667 km/h
2607 24-03-2014 08:00:00 4.14167 C 5.65 g/m*3 2.73 C 6.01667 km/h
2608 24-03-2014 09:00:00 4.78333 C 5.68 g/m*3 3.61 C 5.60833 km/h
2609 24-03-2014 10:00:00 5.48333 C 5.83 g/m*3 5.48 C 3.86667 km/h
2610 24-03-2014 11:00:00 6.875 C 6 g/m*3 6.18 C 5.08333 km/h
2611 24-03-2014 12:00:00 8.4 C 5.89 g/m*3 7.37 C 6.96667 km/h
2612 24-03-2014 13:00:00 9.425 C 5.89 g/m*3 8.23 C 8.475 km/h
2613 24-03-2014 14:00:00 9.925 C 5.62 g/m*3 8.5 C 10.225 km/h
2614 24-03-2014 15:00:00 9.075 C 5.71 g/m*3 7.61 C 9.54167 km/h
2615 24-03-2014 16:00:00 9.35 C 5.75 g/m*3 8.61 C 6.43333 km/h
2616 24-03-2014 17:00:00 9.18333 C 5.78 g/m*3 9.18 C 3.74167 km/h
2617 24-03-2014 18:00:00 6.20833 C 5.79 g/m*3 6.21 C 4 km/h
2618 24-03-2014 19:00:00 6.275 C 5.85 g/m*3 6.28 C 1.6 km/h
2619 24-03-2014 20:00:00 6.18333 C 5.89 g/m*3 6.18 C 2.675 km/h
2620 24-03-2014 21:00:00 4.41667 C 5.47 g/m*3 4.42 C 2.93333 km/h
2621 24-03-2014 22:00:00 3.31667 C 5.31 g/m*3 3.32 C 1.06667 km/h
2622 24-03-2014 23:00:00 2.21667 C 5.09 g/m*3 2.22 C 0 km/h
2623 25-03-2014 00:00:00 1.66667 C 4.99 g/m*3 1.67 C 0.13333 km/h
2624 25-03-2014 01:00:00 1.05833 C 4.84 g/m*3 1.06 C 0.66667 km/h
2625 25-03-2014 02:00:00 0.75833 C 4.79 g/m*3 0.76 C 0.26667 km/h
Sensor: Nr:Datum:Temp:Abs-Feuchte:Windchill:Wind:
Aussen-T/F 2626 25-03-2014 03:00:00 0.29167 C 4.67 g/m*3 0.29 C 0.26667 km/h
2627 25-03-2014 04:00:00 0.58333 C 4.82 g/m*3 0.58 C 0.26667 km/h
2628 25-03-2014 05:00:00 0.28333 C 4.73 g/m*3 0.28 C 0.66667 km/h
2629 25-03-2014 06:00:00 0.34167 C 4.76 g/m*3 0.34 C 0.8 km/h
2630 25-03-2014 07:00:00 0.76667 C 4.9 g/m*3 0.77 C 1.33333 km/h
2631 25-03-2014 08:00:00 1.23333 C 5.06 g/m*3 1.23 C 2.93333 km/h
2632 25-03-2014 09:00:00 2.39167 C 5.45 g/m*3 2.39 C 3.2 km/h
2633 25-03-2014 10:00:00 3.94167 C 5.72 g/m*3 3.94 C 1.6 km/h
2634 25-03-2014 11:00:00 6.825 C 6.19 g/m*3 6.83 C 4.68333 km/h
2635 25-03-2014 12:00:00 8.68333 C 5.9 g/m*3 8.23 C 5.08333 km/h
2636 25-03-2014 13:00:00 8.88333 C 5.74 g/m*3 8.88 C 3.73333 km/h
2637 25-03-2014 14:00:00 8.525 C 5.27 g/m*3 7.23 C 8.2 km/h
2638 25-03-2014 15:00:00 9.2 C 5.34 g/m*3 8.37 C 6.7 km/h
2639 25-03-2014 16:00:00 10.4 C 5.48 g/m*3 9.34 C 8.71667 km/h
2640 25-03-2014 17:00:00 9.88333 C 5.69 g/m*3 8.74 C 8.625 km/h
2641 25-03-2014 18:00:00 7.91667 C 5.54 g/m*3 7.32 C 5.20833 km/h
2642 25-03-2014 19:00:00 5.34167 C 5.18 g/m*3 4.11 C 6.00833 km/h
2643 25-03-2014 20:00:00 3.99167 C 5.18 g/m*3 3.99 C 3.86667 km/h
2644 25-03-2014 21:00:00 3.05833 C 5.09 g/m*3 3.06 C 2 km/h
2645 25-03-2014 22:00:00 2.35833 C 5.01 g/m*3 2.36 C 1.06667 km/h
2646 25-03-2014 23:00:00 1.51667 C 4.81 g/m*3 1.52 C 0.53333 km/h
2647 26-03-2014 00:00:00 0.88333 C 4.68 g/m*3 0.88 C 0 km/h
2648 26-03-2014 01:00:00 0.36667 C 4.58 g/m*3 0.37 C 0 km/h
2649 26-03-2014 02:00:00 0.10833 C 4.56 g/m*3 0.11 C 0 km/h
2650 26-03-2014 03:00:00 0.30833 C 4.64 g/m*3 0.31 C 0.13333 km/h
Sensor: Nr:Datum:Temp:Abs-Feuchte:Windchill:Wind:
Aussen-T/F 2651 26-03-2014 04:00:00 -0.24167 C 4.48 g/m*3 -0.24 C 0.13333 km/h
2652 26-03-2014 05:00:00 -0.54167 C 4.4 g/m*3 -0.54 C 0.13333 km/h
2653 26-03-2014 06:00:00 -0.76667 C 4.36 g/m*3 -0.77 C 0 km/h
2654 26-03-2014 07:00:00 -0.725 C 4.38 g/m*3 -0.73 C 0.26667 km/h
2655 26-03-2014 08:00:00 -0.01667 C 4.64 g/m*3 -0.02 C 0 km/h
2656 26-03-2014 09:00:00 1.76667 C 5.24 g/m*3 1.77 C 0 km/h
2657 26-03-2014 10:00:00 4.50833 C 5.74 g/m*3 4.51 C 0.93333 km/h
2658 26-03-2014 11:00:00 7.60833 C 5.86 g/m*3 7.61 C 4.675 km/h
2659 26-03-2014 12:00:00 10.36667 C 5.83 g/m*3 9.01 C 10.35 km/h
2660 26-03-2014 13:00:00 10.375 C 5.22 g/m*3 9.18 C 9.425 km/h
2661 26-03-2014 14:00:00 11.20833 C 4.91 g/m*3 11.21 C 9.54167 km/h
2662 26-03-2014 15:00:00 11.55833 C 4.81 g/m*3 11.56 C 6.025 km/h
2663 26-03-2014 16:00:00 10.24167 C 5.16 g/m*3 10.24 C 4.66667 km/h
2664 26-03-2014 17:00:00 10.80833 C 4.99 g/m*3 10.81 C 4.675 km/h
2665 26-03-2014 18:00:00 8.30833 C 5.24 g/m*3 8.31 C 3.74167 km/h
2666 26-03-2014 19:00:00 5.85 C 5.38 g/m*3 5.85 C 4.53333 km/h
2667 26-03-2014 20:00:00 4.58333 C 5.31 g/m*3 4.58 C 2.8 km/h
2668 26-03-2014 21:00:00 4.36667 C 5.41 g/m*3 4.37 C 1.2 km/h
2669 26-03-2014 22:00:00 4.38333 C 5.55 g/m*3 4.38 C 0.53333 km/h
2670 26-03-2014 23:00:00 4.15 C 5.87 g/m*3 4.15 C 1.73333 km/h
2671 27-03-2014 00:00:00 4.175 C 6.01 g/m*3 4.18 C 0.13333 km/h
2672 27-03-2014 01:00:00 4.14167 C 5.97 g/m*3 4.14 C 0.53333 km/h
2673 27-03-2014 02:00:00 3.79167 C 5.83 g/m*3 3.79 C 0.4 km/h
2674 27-03-2014 03:00:00 3.375 C 5.61 g/m*3 3.38 C 1.46667 km/h
2675 27-03-2014 04:00:00 2.5 C 5.3 g/m*3 2.5 C 2 km/h
Sensor: Nr:Datum:Temp:Abs-Feuchte:Windchill:Wind:
Aussen-T/F 2676 27-03-2014 05:00:00 1.89167 C 5.14 g/m*3 1.89 C 0.4 km/h
2677 27-03-2014 06:00:00 1.46667 C 5.04 g/m*3 1.47 C 0 km/h
2678 27-03-2014 07:00:00 2.06667 C 5.24 g/m*3 2.07 C 1.6 km/h
2679 27-03-2014 08:00:00 3.1 C 5.52 g/m*3 3.1 C 2.4 km/h
2680 27-03-2014 09:00:00 5.325 C 6.05 g/m*3 3.72 C 7.24167 km/h
2681 27-03-2014 10:00:00 8.2 C 6.24 g/m*3 7.29 C 6.4 km/h
2682 27-03-2014 11:00:00 10.825 C 6.15 g/m*3 9.42 C 11.3 km/h
2683 27-03-2014 12:00:00 13.6 C 6.38 g/m*3 13.6 C 13.03333 km/h
2684 27-03-2014 13:00:00 14.70833 C 6.29 g/m*3 14.71 C 11.96667 km/h
2685 27-03-2014 14:00:00 15.35 C 5.91 g/m*3 15.35 C 11.425 km/h
2686 27-03-2014 15:00:00 15.80833 C 5.8 g/m*3 15.81 C 10.89167 km/h
2687 27-03-2014 16:00:00 15.71667 C 5.79 g/m*3 15.72 C 9.81667 km/h
2688 27-03-2014 17:00:00 15.73333 C 5.7 g/m*3 15.73 C 5.63333 km/h
2689 27-03-2014 18:00:00 12 C 6.05 g/m*3 12 C 5.35 km/h
2690 27-03-2014 19:00:00 9.51667 C 6.07 g/m*3 8.64 C 7.10833 km/h
2691 27-03-2014 20:00:00 8.625 C 6.3 g/m*3 7.85 C 6.13333 km/h
2692 27-03-2014 21:00:00 8.01667 C 6.35 g/m*3 7.35 C 5.46667 km/h
2693 27-03-2014 22:00:00 7.625 C 6.39 g/m*3 7.04 C 5.06667 km/h
2694 27-03-2014 23:00:00 7.99167 C 6.37 g/m*3 7.99 C 4.53333 km/h
2695 28-03-2014 00:00:00 7.24167 C 6.22 g/m*3 7.24 C 4.66667 km/h
2696 28-03-2014 01:00:00 6.525 C 6.07 g/m*3 6.53 C 4.53333 km/h
2697 28-03-2014 02:00:00 5.825 C 5.98 g/m*3 4.9 C 5.33333 km/h
2698 28-03-2014 03:00:00 5.40833 C 5.93 g/m*3 5.41 C 4.53333 km/h
2699 28-03-2014 04:00:00 4.83333 C 5.85 g/m*3 4.83 C 3.46667 km/h
2700 28-03-2014 05:00:00 4.1 C 5.66 g/m*3 4.1 C 1.06667 km/h
Sensor: Nr:Datum:Temp:Abs-Feuchte:Windchill:Wind:
Aussen-T/F 2701 28-03-2014 06:00:00 3.5 C 5.51 g/m*3 3.5 C 0.13333 km/h
2702 28-03-2014 07:00:00 3.66667 C 5.71 g/m*3 3.67 C 0.26667 km/h
2703 28-03-2014 08:00:00 5.26667 C 6.16 g/m*3 5.27 C 3.73333 km/h
2704 28-03-2014 09:00:00 8.20833 C 6.61 g/m*3 8.21 C 3.2 km/h
2705 28-03-2014 10:00:00 11.275 C 6.73 g/m*3 11.28 C 6.16667 km/h
2706 28-03-2014 11:00:00 13.61667 C 6.84 g/m*3 13.62 C 6.03333 km/h
2707 28-03-2014 12:00:00 15.75 C 6.92 g/m*3 15.75 C 6.70833 km/h
2708 28-03-2014 13:00:00 17.85 C 6.63 g/m*3 17.85 C 10.75 km/h
2709 28-03-2014 14:00:00 18.21667 C 6.09 g/m*3 18.22 C 11.025 km/h
2710 28-03-2014 15:00:00 18.79167 C 5.9 g/m*3 18.79 C 9.825 km/h
2711 28-03-2014 16:00:00 19.175 C 5.79 g/m*3 19.18 C 12.76667 km/h
2712 28-03-2014 17:00:00 16.79167 C 6.13 g/m*3 16.79 C 5.35833 km/h
2713 28-03-2014 18:00:00 13.78333 C 6.62 g/m*3 13.78 C 4.93333 km/h
2714 28-03-2014 19:00:00 13.15 C 6.31 g/m*3 13.15 C 4.81667 km/h
2715 28-03-2014 20:00:00 12.1 C 6.04 g/m*3 12.1 C 8.85833 km/h
2716 28-03-2014 21:00:00 10.96667 C 6.05 g/m*3 9.91 C 9.26667 km/h
2717 28-03-2014 22:00:00 10.1 C 6.26 g/m*3 8.81 C 9.675 km/h
2718 28-03-2014 23:00:00 8.49167 C 6.29 g/m*3 8.49 C 3.73333 km/h
2719 29-03-2014 00:00:00 6.69167 C 6.18 g/m*3 6.69 C 3.6 km/h
2720 29-03-2014 01:00:00 5.93333 C 6.14 g/m*3 5.93 C 4.13333 km/h
2721 29-03-2014 02:00:00 5.5 C 6.12 g/m*3 5.5 C 3.46667 km/h
2722 29-03-2014 03:00:00 5.025 C 6.03 g/m*3 5.03 C 3.6 km/h
2723 29-03-2014 04:00:00 4.33333 C 5.89 g/m*3 4.33 C 0.93333 km/h
2724 29-03-2014 05:00:00 3.7 C 5.72 g/m*3 3.7 C 0 km/h
2725 29-03-2014 06:00:00 3.15 C 5.6 g/m*3 3.15 C 0 km/h
Sensor: Nr:Datum:Temp:Abs-Feuchte:Windchill:Wind:
Aussen-T/F 2726 29-03-2014 07:00:00 3.18333 C 5.66 g/m*3 3.18 C 0 km/h
2727 29-03-2014 08:00:00 4.1 C 6.06 g/m*3 4.1 C 0 km/h
2728 29-03-2014 09:00:00 6.75 C 6.94 g/m*3 6.75 C 2.8 km/h
2729 29-03-2014 10:00:00 10.55833 C 7.46 g/m*3 9.97 C 6.56667 km/h
2730 29-03-2014 11:00:00 14.25833 C 7.57 g/m*3 14.26 C 8.49167 km/h
2731 29-03-2014 12:00:00 17.34167 C 7.75 g/m*3 17.34 C 10.63333 km/h
2732 29-03-2014 13:00:00 18.58333 C 7.58 g/m*3 18.58 C 10.35833 km/h
2733 29-03-2014 14:00:00 19.66667 C 6.86 g/m*3 19.67 C 8.2 km/h
2734 29-03-2014 15:00:00 20.26667 C 6.01 g/m*3 20.27 C 10.75833 km/h
2735 29-03-2014 16:00:00 20.79167 C 5.66 g/m*3 20.79 C 8.46667 km/h
2736 29-03-2014 17:00:00 20.8 C 5.46 g/m*3 20.8 C 7.14286 km/h
2737 29-03-2014 18:00:00 14.1 C 6.55 g/m*3 14.1 C 8.1 km/h
2738 29-03-2014 19:00:00 12.84167 C 6.2 g/m*3 12.84 C 5.875 km/h
2739 29-03-2014 20:00:00 11.575 C 6.54 g/m*3 11.58 C 3.33333 km/h
2740 29-03-2014 21:00:00 10.375 C 6.63 g/m*3 10.38 C 0.4 km/h
2741 29-03-2014 22:00:00 8.99167 C 6.37 g/m*3 8.99 C 0 km/h
2742 29-03-2014 23:00:00 7.66667 C 6.17 g/m*3 7.67 C 0.26667 km/h
2743 30-03-2014 00:00:00 6.86667 C 6.11 g/m*3 6.87 C 0.8 km/h
2744 30-03-2014 01:00:00 6.1 C 5.98 g/m*3 6.1 C 0.26667 km/h
2745 30-03-2014 02:00:00 5.00833 C 5.84 g/m*3 5.01 C 0.13333 km/h
2746 30-03-2014 04:00:00 4.35833 C 5.72 g/m*3 4.36 C 0 km/h
2747 30-03-2014 05:00:00 3.75833 C 5.61 g/m*3 3.76 C 0.13333 km/h
2748 30-03-2014 06:00:00 3.28333 C 5.53 g/m*3 3.28 C 0 km/h
2749 30-03-2014 07:00:00 2.91667 C 5.48 g/m*3 2.92 C 0.13333 km/h
2750 30-03-2014 08:00:00 3.375 C 5.66 g/m*3 3.38 C 0.4 km/h
Sensor: Nr:Datum:Temp:Abs-Feuchte:Windchill:Wind:
Aussen-T/F 2751 30-03-2014 09:00:00 4.04286 C 5.93 g/m*3 4.04 C 0.22857 km/h
2752 30-03-2014 10:00:00 7.47 C 6.75 g/m*3 7.47 C 0.48 km/h
2753 30-03-2014 11:00:00 10.175 C 7.24 g/m*3 10.18 C 0.66667 km/h
2754 30-03-2014 12:00:00 13.90833 C 7.96 g/m*3 13.91 C 2.4 km/h
2755 30-03-2014 13:00:00 18.48333 C 8.67 g/m*3 18.48 C 3.86667 km/h
2756 30-03-2014 14:00:00 20.73333 C 7.34 g/m*3 20.73 C 7.23333 km/h
2757 30-03-2014 15:00:00 20.74 C 6.86 g/m*3 20.74 C 3.52 km/h
2758 30-03-2014 20:00:00 13.97 C 7.45 g/m*3 13.97 C 3.04 km/h
2759 30-03-2014 21:00:00 12.46 C 7.48 g/m*3 12.46 C 0.48 km/h
2760 30-03-2014 22:00:00 11.59167 C 7.23 g/m*3 11.59 C 0.13333 km/h
2761 30-03-2014 23:00:00 10.425 C 7.17 g/m*3 10.43 C 0 km/h
2762 31-03-2014 00:00:00 9.775 C 7.07 g/m*3 9.78 C 0.4 km/h
2763 31-03-2014 01:00:00 8.83333 C 7 g/m*3 8.83 C 0.53333 km/h
2764 31-03-2014 02:00:00 8.325 C 6.96 g/m*3 8.32 C 0.4 km/h
2765 31-03-2014 03:00:00 8.06667 C 6.95 g/m*3 8.07 C 0.26667 km/h
2766 31-03-2014 04:00:00 7.525 C 6.87 g/m*3 7.53 C 0 km/h
2767 31-03-2014 05:00:00 7.09167 C 6.84 g/m*3 7.09 C 0.13333 km/h
2768 31-03-2014 06:00:00 6.71667 C 6.71 g/m*3 6.72 C 0 km/h
2769 31-03-2014 07:00:00 6.225 C 6.62 g/m*3 6.23 C 0 km/h
2770 31-03-2014 08:00:00 6.6 C 6.85 g/m*3 6.6 C 0 km/h
2771 31-03-2014 09:00:00 7.74167 C 7.15 g/m*3 7.74 C 0.66667 km/h
2772 31-03-2014 10:00:00 9.29167 C 7.45 g/m*3 9.29 C 0.26667 km/h
2773 31-03-2014 11:00:00 11.4 C 7.89 g/m*3 11.4 C 1.6 km/h
2774 31-03-2014 12:00:00 14.65 C 8.39 g/m*3 14.65 C 3.86667 km/h
2775 31-03-2014 13:00:00 17.93333 C 8.49 g/m*3 17.93 C 3.2 km/h
Sensor: Nr:Datum:Temp:Abs-Feuchte:Windchill:Wind:
Aussen-T/F 2776 31-03-2014 14:00:00 20.25833 C 7.22 g/m*3 20.26 C 4.53333 km/h
2777 31-03-2014 15:00:00 22.14167 C 4.83 g/m*3 22.14 C 6.83333 km/h
2778 31-03-2014 16:00:00 22.95 C 5.79 g/m*3 22.95 C 9.68333 km/h
2779 31-03-2014 17:00:00 22.94167 C 5.8 g/m*3 22.94 C 8.475 km/h
2780 31-03-2014 18:00:00 21.44167 C 6.14 g/m*3 21.44 C 3.2 km/h
2781 31-03-2014 19:00:00 17.40833 C 6.49 g/m*3 17.41 C 5.2 km/h
2782 31-03-2014 20:00:00 15.14167 C 6.14 g/m*3 15.14 C 5.6 km/h
2783 31-03-2014 21:00:00 14.075 C 7.35 g/m*3 14.08 C 3.73333 km/h
2784 31-03-2014 22:00:00 12.625 C 7.7 g/m*3 12.63 C 0.26667 km/h
2785 31-03-2014 23:00:00 12.01667 C 7.45 g/m*3 12.02 C 0.53333 km/h
2786 01-04-2014 00:00:00 10.94167 C 7.4 g/m*3 10.94 C 0.8 km/h
2787 01-04-2014 01:00:00 10.78333 C 7.49 g/m*3 10.78 C 0.8 km/h
2788 01-04-2014 02:00:00 10.525 C 7.55 g/m*3 10.53 C 0.26667 km/h
2789 01-04-2014 03:00:00 9.56667 C 7.34 g/m*3 9.57 C 0.26667 km/h
2790 01-04-2014 04:00:00 9.04167 C 7.22 g/m*3 9.04 C 0.13333 km/h
2791 01-04-2014 05:00:00 8.53333 C 7.14 g/m*3 8.53 C 0 km/h
2792 01-04-2014 06:00:00 8.00833 C 7 g/m*3 8.01 C 0.13333 km/h
2793 01-04-2014 07:00:00 7.65833 C 6.99 g/m*3 7.66 C 0.26667 km/h
2794 01-04-2014 08:00:00 8.38333 C 7.37 g/m*3 8.38 C 0.13333 km/h
2795 01-04-2014 09:00:00 9.8 C 7.69 g/m*3 9.8 C 0.13333 km/h
2796 01-04-2014 10:00:00 11.6 C 8.03 g/m*3 11.6 C 0 km/h
2797 01-04-2014 11:00:00 14.09167 C 8.27 g/m*3 14.09 C 0.26667 km/h
2798 01-04-2014 12:00:00 17.36667 C 8.31 g/m*3 17.37 C 0.93333 km/h
2799 01-04-2014 13:00:00 21.06667 C 8.6 g/m*3 21.07 C 3.2 km/h
2800 01-04-2014 14:00:00 22.1 C 7.78 g/m*3 22.1 C 5.06667 km/h
Sensor: Nr:Datum:Temp:Abs-Feuchte:Windchill:Wind:
Aussen-T/F 2801 01-04-2014 15:00:00 21.95833 C 7.44 g/m*3 21.96 C 4.425 km/h
2802 01-04-2014 16:00:00 23.06667 C 7.24 g/m*3 23.07 C 5.35833 km/h
2803 01-04-2014 17:00:00 22.76 C 6.89 g/m*3 22.76 C 7.76 km/h
2804 01-04-2014 19:00:00 17.84286 C 8.65 g/m*3 17.84 C 5.25714 km/h
2805 01-04-2014 20:00:00 17 C 8.69 g/m*3 17 C 4.13333 km/h
2806 01-04-2014 21:00:00 15.3 C 9.15 g/m*3 15.3 C 3.68 km/h
2807 01-04-2014 22:00:00 13.91667 C 8.02 g/m*3 13.92 C 2.4 km/h
2808 01-04-2014 23:00:00 12.70833 C 7.86 g/m*3 12.71 C 1.33333 km/h
2809 02-04-2014 00:00:00 11.51667 C 7.59 g/m*3 11.52 C 0 km/h
2810 02-04-2014 01:00:00 10.63333 C 7.48 g/m*3 10.63 C 1.06667 km/h
2811 02-04-2014 02:00:00 9.41667 C 7.3 g/m*3 9.42 C 0.13333 km/h
2812 02-04-2014 03:00:00 8.75833 C 7.16 g/m*3 8.76 C 0.26667 km/h
2813 02-04-2014 04:00:00 7.96667 C 7.05 g/m*3 7.97 C 0.26667 km/h
2814 02-04-2014 05:00:00 7.28333 C 6.89 g/m*3 7.28 C 0.26667 km/h
2815 02-04-2014 06:00:00 6.60833 C 6.78 g/m*3 6.61 C 0.26667 km/h
2816 02-04-2014 07:00:00 6.78333 C 6.88 g/m*3 6.78 C 0.13333 km/h
2817 02-04-2014 08:00:00 7.00833 C 7 g/m*3 7.01 C 1.06667 km/h
2818 02-04-2014 09:00:00 8.04167 C 7.36 g/m*3 8.04 C 0.13333 km/h
2819 02-04-2014 10:00:00 10.375 C 7.99 g/m*3 10.38 C 0.26667 km/h
2820 02-04-2014 11:00:00 13.45833 C 8.76 g/m*3 13.46 C 0.93333 km/h
2821 02-04-2014 12:00:00 17.03636 C 8.96 g/m*3 17.04 C 4.52727 km/h
2822 02-04-2014 13:00:00 20.98889 C 8.75 g/m*3 20.99 C 8.41111 km/h
2823 02-04-2014 14:00:00 22.40833 C 7.93 g/m*3 22.41 C 12.49167 km/h
2824 02-04-2014 15:00:00 22.66667 C 7.86 g/m*3 22.67 C 12.1 km/h
2825 02-04-2014 16:00:00 23.2 C 7.78 g/m*3 23.2 C 9.525 km/h
Sensor: Nr:Datum:Temp:Abs-Feuchte:Windchill:Wind:
Aussen-T/F 2826 02-04-2014 17:00:00 23.36667 C 7.63 g/m*3 23.37 C 8.86667 km/h
2827 02-04-2014 18:00:00 22.54167 C 8.08 g/m*3 22.54 C 6.96667 km/h
2828 02-04-2014 19:00:00 18.53333 C 9.1 g/m*3 18.53 C 2.8 km/h
2829 02-04-2014 20:00:00 15.90833 C 8.9 g/m*3 15.91 C 3.86667 km/h
2830 02-04-2014 21:00:00 14.90833 C 8.88 g/m*3 14.91 C 2.8 km/h
2831 02-04-2014 22:00:00 13.64167 C 8.79 g/m*3 13.64 C 0.8 km/h
2832 02-04-2014 23:00:00 12.69167 C 8.54 g/m*3 12.69 C 0.4 km/h
2833 03-04-2014 00:00:00 11.5 C 8.33 g/m*3 11.5 C 0 km/h
2834 03-04-2014 01:00:00 11.39167 C 8.38 g/m*3 11.39 C 1.33333 km/h
2835 03-04-2014 02:00:00 10.91667 C 8.28 g/m*3 10.92 C 0.4 km/h
2836 03-04-2014 03:00:00 10.46667 C 8.23 g/m*3 10.47 C 0 km/h
2837 03-04-2014 04:00:00 9.51667 C 7.87 g/m*3 9.52 C 0 km/h
2838 03-04-2014 05:00:00 8.575 C 7.66 g/m*3 8.57 C 0.26667 km/h
2839 03-04-2014 06:00:00 8.21667 C 7.59 g/m*3 8.22 C 0.4 km/h
2840 03-04-2014 07:00:00 8.09167 C 7.63 g/m*3 8.09 C 0.26667 km/h
2841 03-04-2014 08:00:00 9.03333 C 8.03 g/m*3 9.03 C 0.26667 km/h
2842 03-04-2014 09:00:00 10.18333 C 8.29 g/m*3 10.18 C 0.13333 km/h
2843 03-04-2014 10:00:00 11.55833 C 8.63 g/m*3 11.56 C 1.33333 km/h
2844 03-04-2014 11:00:00 13.675 C 9.07 g/m*3 13.68 C 1.46667 km/h
2845 03-04-2014 12:00:00 17.08333 C 9.89 g/m*3 17.08 C 3.73333 km/h
2846 03-04-2014 13:00:00 20.50833 C 8.44 g/m*3 20.51 C 8.74167 km/h
2847 03-04-2014 14:00:00 21.35 C 8.26 g/m*3 21.35 C 7.5 km/h
2848 03-04-2014 18:00:00 20.4 C 9.02 g/m*3 20.4 C 1.6 km/h
2849 03-04-2014 19:00:00 19.575 C 9.14 g/m*3 19.58 C 3.6 km/h
2850 03-04-2014 20:00:00 16.14286 C 9.25 g/m*3 16.14 C 5.04286 km/h
Sensor: Nr:Datum:Temp:Abs-Feuchte:Windchill:Wind:
Aussen-T/F 2851 03-04-2014 21:00:00 15.4 C 8.58 g/m*3 15.4 C 2.66667 km/h
2852 03-04-2014 22:00:00 14.44167 C 8.66 g/m*3 14.44 C 0.93333 km/h
2853 03-04-2014 23:00:00 13.175 C 8.54 g/m*3 13.18 C 0 km/h
2854 04-04-2014 00:00:00 12.34167 C 8.45 g/m*3 12.34 C 0.13333 km/h
2855 04-04-2014 01:00:00 12.79167 C 8.67 g/m*3 12.79 C 1.6 km/h
2856 04-04-2014 02:00:00 12.76667 C 8.73 g/m*3 12.77 C 0.13333 km/h
2857 04-04-2014 03:00:00 12.31667 C 8.79 g/m*3 12.32 C 0.13333 km/h
2858 04-04-2014 04:00:00 12.1 C 8.83 g/m*3 12.1 C 0.26667 km/h
2859 04-04-2014 05:00:00 11.525 C 8.7 g/m*3 11.53 C 0.66667 km/h
2860 04-04-2014 06:00:00 11.3 C 8.72 g/m*3 11.3 C 0.4 km/h
2861 04-04-2014 07:00:00 11.225 C 8.72 g/m*3 11.23 C 0.66667 km/h
2862 04-04-2014 08:00:00 11.05 C 8.79 g/m*3 11.05 C 0 km/h
2863 04-04-2014 09:00:00 11.88333 C 9.07 g/m*3 11.88 C 0.26667 km/h
2864 04-04-2014 10:00:00 13.21667 C 9.37 g/m*3 13.22 C 0.66667 km/h
2865 04-04-2014 11:00:00 14.99167 C 9.87 g/m*3 14.99 C 2.4 km/h
2866 04-04-2014 12:00:00 16.99167 C 10.15 g/m*3 16.99 C 2.26667 km/h
2867 04-04-2014 13:00:00 18.975 C 10.29 g/m*3 18.98 C 3.20833 km/h
2868 04-04-2014 14:00:00 20.21667 C 9.9 g/m*3 20.22 C 6.425 km/h
2869 04-04-2014 15:00:00 20.58333 C 10.03 g/m*3 20.58 C 8.86667 km/h
2870 04-04-2014 16:00:00 20.39167 C 10.17 g/m*3 20.39 C 8.59167 km/h
2871 04-04-2014 17:00:00 20.22857 C 10.53 g/m*3 20.23 C 7.84286 km/h
2872 04-04-2014 18:00:00 19.27143 C 11.92 g/m*3 19.27 C 7.6 km/h
2873 04-04-2014 19:00:00 17.96667 C 9.66 g/m*3 17.97 C 10.08333 km/h
2874 04-04-2014 20:00:00 16.70833 C 9.83 g/m*3 16.71 C 6.7 km/h
2875 04-04-2014 21:00:00 15.28333 C 10.03 g/m*3 15.28 C 5.475 km/h
Sensor: Nr:Datum:Temp:Abs-Feuchte:Windchill:Wind:
Aussen-T/F 2876 04-04-2014 22:00:00 14.9 C 10.09 g/m*3 14.9 C 3.475 km/h
2877 04-04-2014 23:00:00 14 C 10.02 g/m*3 14 C 2 km/h
2878 05-04-2014 00:00:00 13.95833 C 10.22 g/m*3 13.96 C 8.58333 km/h
2879 05-04-2014 01:00:00 13.43333 C 10.13 g/m*3 13.43 C 7.09167 km/h
2880 05-04-2014 02:00:00 13.2 C 9.99 g/m*3 13.2 C 6.44167 km/h
2881 05-04-2014 03:00:00 12.91667 C 9.88 g/m*3 12.92 C 5.34167 km/h
2882 05-04-2014 04:00:00 12.74167 C 9.71 g/m*3 12.74 C 8.05 km/h
2883 05-04-2014 05:00:00 12.53333 C 9.65 g/m*3 12.53 C 8.325 km/h
2884 05-04-2014 06:00:00 12.125 C 9.68 g/m*3 12.13 C 3.86667 km/h
2885 05-04-2014 07:00:00 12.00833 C 9.6 g/m*3 12.01 C 4.95833 km/h
2886 05-04-2014 08:00:00 12.04167 C 9.62 g/m*3 12.04 C 5.35 km/h
2887 05-04-2014 09:00:00 12.2 C 9.66 g/m*3 12.2 C 6.16667 km/h
2888 05-04-2014 10:00:00 12.13333 C 9.62 g/m*3 12.13 C 8.74167 km/h
2889 05-04-2014 11:00:00 12.36667 C 9.6 g/m*3 12.37 C 5.75833 km/h
2890 05-04-2014 12:00:00 13.075 C 9.89 g/m*3 13.08 C 5.36667 km/h
2891 05-04-2014 13:00:00 13.9 C 10.43 g/m*3 13.9 C 5.86667 km/h
2892 05-04-2014 15:00:00 15.43333 C 10.09 g/m*3 15.43 C 5.86667 km/h
2893 05-04-2014 16:00:00 15.125 C 9.85 g/m*3 15.13 C 7.25 km/h
2894 05-04-2014 17:00:00 14.88889 C 10.06 g/m*3 14.89 C 6.42222 km/h
2895 05-04-2014 18:00:00 14.7 C 9.82 g/m*3 14.7 C 6.4 km/h
2896 05-04-2014 19:00:00 14.29167 C 10.09 g/m*3 14.29 C 0.93333 km/h
2897 05-04-2014 20:00:00 13.38333 C 9.75 g/m*3 13.38 C 3.06667 km/h
2898 05-04-2014 21:00:00 13.06667 C 9.74 g/m*3 13.07 C 2.26667 km/h
2899 05-04-2014 22:00:00 12.70833 C 9.66 g/m*3 12.71 C 0.8 km/h
2900 05-04-2014 23:00:00 11.26667 C 8.99 g/m*3 11.27 C 2.93333 km/h
Sensor: Nr:Datum:Temp:Abs-Feuchte:Windchill:Wind:
Aussen-T/F 2901 06-04-2014 00:00:00 10.08333 C 8.63 g/m*3 10.08 C 0.93333 km/h
2902 06-04-2014 01:00:00 9.2 C 8.3 g/m*3 9.2 C 0.13333 km/h
2903 06-04-2014 02:00:00 8.45 C 8.04 g/m*3 8.45 C 0.13333 km/h
2904 06-04-2014 03:00:00 7.9 C 7.8 g/m*3 7.9 C 0.26667 km/h
2905 06-04-2014 04:00:00 7.19167 C 7.49 g/m*3 7.19 C 0 km/h
2906 06-04-2014 05:00:00 7.00833 C 7.46 g/m*3 7.01 C 0 km/h
2907 06-04-2014 06:00:00 7.2 C 7.59 g/m*3 7.2 C 1.2 km/h
2908 06-04-2014 07:00:00 7.21667 C 7.62 g/m*3 7.22 C 0.66667 km/h
2909 06-04-2014 08:00:00 7.71667 C 7.87 g/m*3 7.72 C 0 km/h
2910 06-04-2014 09:00:00 8.19167 C 8.12 g/m*3 8.19 C 0.66667 km/h
2911 06-04-2014 10:00:00 10.23333 C 8.96 g/m*3 10.23 C 2.93333 km/h
2912 06-04-2014 11:00:00 13.87778 C 9.11 g/m*3 13.88 C 9.85556 km/h
2913 06-04-2014 12:00:00 16.50833 C 8.75 g/m*3 16.51 C 13.96667 km/h
2914 06-04-2014 13:00:00 18.53333 C 9.09 g/m*3 18.53 C 11.28889 km/h
2915 06-04-2014 14:00:00 19.44 C 9 g/m*3 19.44 C 13.06 km/h
2916 06-04-2014 15:00:00 19.08571 C 9.06 g/m*3 19.09 C 11.3 km/h
2917 06-04-2014 16:00:00 18.9 C 9.07 g/m*3 18.9 C 14.5 km/h
2918 06-04-2014 17:00:00 18.3 C 9.07 g/m*3 18.3 C 10.32 km/h
2919 06-04-2014 19:00:00 16.45 C 9.47 g/m*3 16.45 C 3.48333 km/h
2920 06-04-2014 20:00:00 14.9 C 9.28 g/m*3 14.9 C 3.46667 km/h
2921 06-04-2014 21:00:00 13.825 C 9.25 g/m*3 13.83 C 2.26667 km/h
2922 06-04-2014 22:00:00 13.9 C 9.37 g/m*3 13.9 C 2.66667 km/h
2923 06-04-2014 23:00:00 13.99167 C 9.32 g/m*3 13.99 C 2.4 km/h
2924 07-04-2014 00:00:00 13.875 C 9.32 g/m*3 13.88 C 1.86667 km/h
2925 07-04-2014 01:00:00 13.21667 C 9.37 g/m*3 13.22 C 0.26667 km/h
Sensor: Nr:Datum:Temp:Abs-Feuchte:Windchill:Wind:
Aussen-T/F 2926 07-04-2014 02:00:00 12.99167 C 9.44 g/m*3 12.99 C 0.53333 km/h
2927 07-04-2014 03:00:00 12.675 C 9.42 g/m*3 12.68 C 0 km/h
2928 07-04-2014 04:00:00 12.5 C 9.43 g/m*3 12.5 C 0.13333 km/h
2929 07-04-2014 05:00:00 12.4 C 9.44 g/m*3 12.4 C 0.8 km/h
2930 07-04-2014 06:00:00 12.38333 C 9.56 g/m*3 12.38 C 0.13333 km/h
2931 07-04-2014 07:00:00 12.26667 C 9.59 g/m*3 12.27 C 0.53333 km/h
2932 07-04-2014 08:00:00 12.95 C 9.85 g/m*3 12.95 C 1.6 km/h
2933 07-04-2014 09:00:00 14.15833 C 10.32 g/m*3 14.16 C 3.35 km/h
2934 07-04-2014 10:00:00 16.19167 C 10.98 g/m*3 16.19 C 9.40833 km/h
2935 07-04-2014 11:00:00 17.8 C 11.41 g/m*3 17.8 C 9.15 km/h
2936 07-04-2014 12:00:00 19.51667 C 11.45 g/m*3 19.52 C 8.875 km/h
2937 07-04-2014 13:00:00 20.51667 C 11.12 g/m*3 20.52 C 7.125 km/h
2938 07-04-2014 14:00:00 21.20833 C 11.29 g/m*3 21.21 C 7.925 km/h
2939 07-04-2014 15:00:00 21.54167 C 10.71 g/m*3 21.54 C 7.525 km/h
2940 07-04-2014 16:00:00 22.16667 C 9.93 g/m*3 22.17 C 8.06667 km/h
2941 07-04-2014 18:00:00 23.36667 C 17.35 g/m*3 23.37 C 6.71667 km/h
2942 07-04-2014 19:00:00 17.9 C 10.04 g/m*3 17.9 C 4.4 km/h
2943 07-04-2014 20:00:00 16.87 C 9.36 g/m*3 16.87 C 4.48 km/h
2944 07-04-2014 21:00:00 16.20909 C 9.62 g/m*3 16.21 C 4.07273 km/h
2945 07-04-2014 22:00:00 16.03333 C 9.12 g/m*3 16.03 C 3.2 km/h
2946 07-04-2014 23:00:00 16.125 C 9.24 g/m*3 16.13 C 3.475 km/h
2947 08-04-2014 00:00:00 15.48333 C 9.38 g/m*3 15.48 C 3.73333 km/h
2948 08-04-2014 01:00:00 15.59167 C 9.87 g/m*3 15.59 C 1.86667 km/h
2949 08-04-2014 02:00:00 16.025 C 9.85 g/m*3 16.02 C 4.69167 km/h
2950 08-04-2014 03:00:00 15.20833 C 9.75 g/m*3 15.21 C 3.075 km/h
Sensor: Nr:Datum:Temp:Abs-Feuchte:Windchill:Wind:
Aussen-T/F 2951 08-04-2014 04:00:00 14.66667 C 9.66 g/m*3 14.67 C 4.69167 km/h
2952 08-04-2014 05:00:00 15.5 C 9.25 g/m*3 15.5 C 10.06667 km/h
2953 08-04-2014 06:00:00 13.175 C 9.53 g/m*3 13.18 C 9.80833 km/h
2954 08-04-2014 07:00:00 11.525 C 7.72 g/m*3 11.53 C 19.16667 km/h
2955 08-04-2014 08:00:00 10.99167 C 6.79 g/m*3 9 C 16.23333 km/h
2956 08-04-2014 09:00:00 11.075 C 6.48 g/m*3 11.08 C 16.23333 km/h
2957 08-04-2014 10:00:00 11.725 C 6.55 g/m*3 11.73 C 15.83333 km/h
2958 08-04-2014 11:00:00 12.28333 C 6.59 g/m*3 12.28 C 15.3 km/h
2959 08-04-2014 12:00:00 12.64167 C 6.53 g/m*3 12.64 C 19.45 km/h
2960 08-04-2014 13:00:00 12.64167 C 6.27 g/m*3 12.64 C 17.43333 km/h
2961 08-04-2014 14:00:00 12.15833 C 6.07 g/m*3 12.16 C 20.375 km/h
2962 08-04-2014 15:00:00 12.63333 C 5.68 g/m*3 12.63 C 19.83333 km/h
2963 08-04-2014 16:00:00 12.6 C 5.43 g/m*3 12.6 C 19.84167 km/h
2964 08-04-2014 17:00:00 10.68333 C 6.09 g/m*3 8.56 C 16.76667 km/h
2965 08-04-2014 18:00:00 10.65833 C 6.2 g/m*3 9.21 C 11.3 km/h
2966 08-04-2014 19:00:00 10.26667 C 6.16 g/m*3 8.1 C 16.24167 km/h
2967 08-04-2014 20:00:00 9.26667 C 6.28 g/m*3 7.69 C 10.4 km/h
2968 08-04-2014 21:00:00 8.75 C 6.46 g/m*3 8.26 C 5.225 km/h
2969 08-04-2014 22:00:00 8.00833 C 6.4 g/m*3 8.01 C 3.46667 km/h
2970 08-04-2014 23:00:00 7.79091 C 6.27 g/m*3 7.12 C 5.39091 km/h
2971 09-04-2014 00:00:00 6.06667 C 6.63 g/m*3 6.07 C 2.66667 km/h
2972 09-04-2014 01:00:00 5.65833 C 6.57 g/m*3 4.75 C 5.21667 km/h
2973 09-04-2014 02:00:00 5.425 C 6.55 g/m*3 5.43 C 3.6 km/h
2974 09-04-2014 03:00:00 4.9 C 6.33 g/m*3 4.9 C 2 km/h
2975 09-04-2014 04:00:00 4.88333 C 6.32 g/m*3 4.88 C 2.93333 km/h
Sensor: Nr:Datum:Temp:Abs-Feuchte:Windchill:Wind:
Aussen-T/F 2976 09-04-2014 05:00:00 5.05833 C 6.29 g/m*3 5.06 C 1.73333 km/h
2977 09-04-2014 06:00:00 4.375 C 6.12 g/m*3 4.38 C 1.2 km/h
2978 09-04-2014 07:00:00 4.18 C 6.05 g/m*3 4.18 C 2.9 km/h
2979 09-04-2014 08:00:00 4.64167 C 6.3 g/m*3 4.64 C 2.13333 km/h
2980 09-04-2014 09:00:00 6.81667 C 6.87 g/m*3 5.12 C 8.61667 km/h
2981 09-04-2014 10:00:00 8.54167 C 7.23 g/m*3 7.37 C 7.65833 km/h
2982 09-04-2014 11:00:00 10.29167 C 7.34 g/m*3 8.92 C 10.35 km/h
2983 09-04-2014 12:00:00 11.375 C 7.23 g/m*3 11.38 C 9.68333 km/h
2984 09-04-2014 13:00:00 12.96667 C 6.67 g/m*3 12.97 C 8.6 km/h
2985 09-04-2014 14:00:00 13.64167 C 6.49 g/m*3 13.64 C 8.06667 km/h
2986 09-04-2014 15:00:00 14.43333 C 6.06 g/m*3 14.43 C 9.28333 km/h
2987 09-04-2014 16:00:00 14.325 C 6.08 g/m*3 14.33 C 9.95833 km/h
2988 09-04-2014 17:00:00 14.80833 C 6.44 g/m*3 14.81 C 9.01667 km/h
2989 09-04-2014 18:00:00 14.58333 C 6.46 g/m*3 14.58 C 8.46667 km/h
2990 09-04-2014 19:00:00 13.15833 C 6.8 g/m*3 13.16 C 3.2 km/h
2991 09-04-2014 20:00:00 10.35833 C 7.02 g/m*3 10.36 C 3.86667 km/h
2992 09-04-2014 21:00:00 9.15 C 6.95 g/m*3 9.15 C 3.06667 km/h
2993 09-04-2014 22:00:00 9 C 6.92 g/m*3 9 C 2.26667 km/h
2994 09-04-2014 23:00:00 8.56667 C 6.77 g/m*3 8.57 C 2 km/h
2995 10-04-2014 00:00:00 9.05833 C 6.74 g/m*3 8.54 C 5.48333 km/h
2996 10-04-2014 01:00:00 8.23333 C 6.68 g/m*3 8.23 C 4.55833 km/h
2997 10-04-2014 02:00:00 7.93333 C 6.75 g/m*3 7.93 C 2.94167 km/h
2998 10-04-2014 03:00:00 8.29167 C 6.87 g/m*3 8.29 C 1.2 km/h
2999 10-04-2014 04:00:00 7.925 C 6.84 g/m*3 7.93 C 0.53333 km/h
3000 10-04-2014 05:00:00 7.13333 C 6.73 g/m*3 7.13 C 1.2 km/h
Sensor: Nr:Datum:Temp:Abs-Feuchte:Windchill:Wind:
Aussen-T/F 3001 10-04-2014 06:00:00 6.48333 C 6.62 g/m*3 6.48 C 0.26667 km/h
3002 10-04-2014 07:00:00 6.50833 C 6.73 g/m*3 6.51 C 0.93333 km/h
3003 10-04-2014 08:00:00 7.35556 C 6.93 g/m*3 6.15 C 6.98889 km/h
3004 10-04-2014 09:00:00 8.65 C 7.67 g/m*3 7.59 C 7.25 km/h
3005 10-04-2014 10:00:00 9.85556 C 7.38 g/m*3 9.86 C 4.11111 km/h
3006 10-04-2014 13:00:00 16.3 C 8.42 g/m*3 16.3 C 6.43333 km/h
3007 10-04-2014 14:00:00 17.6 C 8.7 g/m*3 17.6 C 9.7 km/h
3008 10-04-2014 15:00:00 17.66 C 8.52 g/m*3 17.66 C 7.42 km/h
3009 10-04-2014 16:00:00 18.52 C 9.95 g/m*3 18.52 C 9.04 km/h
3010 10-04-2014 17:00:00 17.91667 C 8.48 g/m*3 17.92 C 8.08333 km/h
3011 10-04-2014 18:00:00 16.5 C 8.31 g/m*3 16.5 C 8.18333 km/h
3012 10-04-2014 19:00:00 16.2 C 8.27 g/m*3 16.2 C 4.8 km/h
3013 11-04-2014 08:00:00 6.86 C 7.29 g/m*3 6.86 C 1.28 km/h
3014 11-04-2014 09:00:00 8.29167 C 8 g/m*3 8.29 C 0.13333 km/h
3015 11-04-2014 10:00:00 11.43333 C 8.82 g/m*3 11.43 C 0 km/h
3016 11-04-2014 11:00:00 15.75 C 9.06 g/m*3 15.75 C 9.7 km/h
3017 11-04-2014 12:00:00 16.90833 C 9.09 g/m*3 16.91 C 4 km/h
3018 11-04-2014 13:00:00 18.85556 C 9.21 g/m*3 18.86 C 5.7 km/h
3019 11-04-2014 14:00:00 18.53333 C 9.04 g/m*3 18.53 C 7.51667 km/h
3020 11-04-2014 16:00:00 19.54286 C 9.71 g/m*3 19.54 C 7.35714 km/h
3021 11-04-2014 17:00:00 18.01667 C 9.63 g/m*3 18.02 C 9.825 km/h
3022 11-04-2014 18:00:00 16.775 C 9.14 g/m*3 16.77 C 11.7 km/h
3023 11-04-2014 19:00:00 15.29167 C 9.16 g/m*3 15.29 C 8.48333 km/h
3024 11-04-2014 20:00:00 14.31667 C 8.94 g/m*3 14.32 C 6.15833 km/h
3025 11-04-2014 21:00:00 13.6 C 9 g/m*3 13.6 C 6.43333 km/h
Sensor: Nr:Datum:Temp:Abs-Feuchte:Windchill:Wind:
Aussen-T/F 3026 11-04-2014 22:00:00 12.85833 C 8.81 g/m*3 12.86 C 6.575 km/h
3027 11-04-2014 23:00:00 12.325 C 8.65 g/m*3 12.33 C 4.825 km/h
3028 12-04-2014 00:00:00 11.46667 C 8.45 g/m*3 11.47 C 3.2 km/h
3029 12-04-2014 01:00:00 10.175 C 8.26 g/m*3 10.18 C 1.86667 km/h
3030 12-04-2014 02:00:00 9.86667 C 8.14 g/m*3 9.87 C 0.66667 km/h
3031 12-04-2014 03:00:00 9.825 C 7.92 g/m*3 9.82 C 1.20833 km/h
3032 12-04-2014 04:00:00 9.85 C 7.77 g/m*3 9.85 C 1.33333 km/h
3033 12-04-2014 05:00:00 9.26667 C 7.75 g/m*3 9.27 C 0.4 km/h
3034 12-04-2014 06:00:00 9.21667 C 7.72 g/m*3 9.22 C 0.13333 km/h
3035 12-04-2014 07:00:00 9.09167 C 7.71 g/m*3 9.09 C 0.66667 km/h
3036 12-04-2014 08:00:00 9.375 C 7.63 g/m*3 9.38 C 2.13333 km/h
3037 12-04-2014 09:00:00 10.05833 C 7.75 g/m*3 10.06 C 3.06667 km/h
3038 12-04-2014 10:00:00 11.45833 C 8.16 g/m*3 11.46 C 5.20833 km/h
3039 12-04-2014 11:00:00 12.66667 C 8.36 g/m*3 12.67 C 6.825 km/h
3040 12-04-2014 12:00:00 13.96667 C 8.63 g/m*3 13.97 C 5.88333 km/h
3041 12-04-2014 13:00:00 16.03333 C 8.67 g/m*3 16.03 C 6.98333 km/h
3042 12-04-2014 14:00:00 16.95833 C 7.93 g/m*3 16.96 C 9.26667 km/h
3043 12-04-2014 15:00:00 17.55 C 7.8 g/m*3 17.55 C 9.15 km/h
3044 12-04-2014 16:00:00 18.20833 C 6.97 g/m*3 18.21 C 8.05 km/h
3045 12-04-2014 17:00:00 17.225 C 6.95 g/m*3 17.23 C 10.09167 km/h
3046 12-04-2014 18:00:00 15.78333 C 7.02 g/m*3 15.78 C 8.06667 km/h
3047 12-04-2014 19:00:00 15.16667 C 6.91 g/m*3 15.17 C 7.88889 km/h
3048 12-04-2014 20:00:00 14.08333 C 6.75 g/m*3 14.08 C 5.35 km/h
3049 12-04-2014 21:00:00 13.28333 C 7.11 g/m*3 13.28 C 2.93333 km/h
3050 12-04-2014 22:00:00 11.95 C 7.15 g/m*3 11.95 C 0.66667 km/h
Sensor: Nr:Datum:Temp:Abs-Feuchte:Windchill:Wind:
Aussen-T/F 3051 12-04-2014 23:00:00 11.79167 C 7.01 g/m*3 11.79 C 1.33333 km/h
3052 13-04-2014 00:00:00 11.44167 C 7.25 g/m*3 11.44 C 0.4 km/h
3053 13-04-2014 01:00:00 11.075 C 7.36 g/m*3 11.08 C 1.86667 km/h
3054 13-04-2014 02:00:00 10.81667 C 7.33 g/m*3 10.82 C 1.33333 km/h
3055 13-04-2014 03:00:00 9.96667 C 7.27 g/m*3 9.97 C 0.93333 km/h
3056 13-04-2014 04:00:00 9.69167 C 7.25 g/m*3 9.69 C 0.8 km/h
3057 13-04-2014 05:00:00 8.63333 C 7.03 g/m*3 8.63 C 0.8 km/h
3058 13-04-2014 06:00:00 7.41667 C 6.82 g/m*3 7.42 C 0.8 km/h
3059 13-04-2014 07:00:00 6.75833 C 6.71 g/m*3 6.76 C 0.53333 km/h
3060 13-04-2014 08:00:00 7.3 C 6.97 g/m*3 7.3 C 1.06667 km/h
3061 13-04-2014 09:00:00 9.475 C 7.35 g/m*3 9.48 C 2.8 km/h
3062 13-04-2014 10:00:00 11 C 7.42 g/m*3 11 C 2.93333 km/h
3063 13-04-2014 11:00:00 12.75833 C 7.5 g/m*3 12.76 C 5.76667 km/h
3064 13-04-2014 12:00:00 14.14444 C 7.57 g/m*3 14.14 C 6.43333 km/h
3065 13-04-2014 13:00:00 14.65455 C 7.81 g/m*3 14.65 C 8.2 km/h
3066 13-04-2014 14:00:00 14.675 C 7.98 g/m*3 14.68 C 6.16667 km/h
3067 13-04-2014 15:00:00 14.9 C 7.97 g/m*3 14.9 C 11.00833 km/h
3068 13-04-2014 16:00:00 14.93333 C 7.91 g/m*3 14.93 C 9.14167 km/h
3069 13-04-2014 17:00:00 15.01667 C 7.35 g/m*3 15.02 C 10.09167 km/h
3070 13-04-2014 18:00:00 15.1 C 7.03 g/m*3 15.1 C 9.675 km/h
3071 13-04-2014 19:00:00 13.84167 C 6.98 g/m*3 13.84 C 8.6 km/h
3072 13-04-2014 20:00:00 13 C 7.29 g/m*3 13 C 3.60833 km/h
3073 13-04-2014 21:00:00 11.98333 C 7.35 g/m*3 11.98 C 2 km/h
3074 13-04-2014 22:00:00 11.10833 C 7.2 g/m*3 11.11 C 3.6 km/h
3075 13-04-2014 23:00:00 9.75833 C 7.02 g/m*3 9.76 C 3.06667 km/h
Sensor: Nr:Datum:Temp:Abs-Feuchte:Windchill:Wind:
Aussen-T/F 3076 14-04-2014 00:00:00 8.85833 C 6.92 g/m*3 8.86 C 3.2 km/h
3077 14-04-2014 01:00:00 9.30833 C 6.96 g/m*3 8.9 C 5.21667 km/h
3078 14-04-2014 02:00:00 8.825 C 6.92 g/m*3 8.82 C 2.66667 km/h
3079 14-04-2014 03:00:00 7.375 C 6.72 g/m*3 7.38 C 4.7 km/h
3080 14-04-2014 04:00:00 7.575 C 6.74 g/m*3 5.82 C 9.55 km/h
3081 14-04-2014 05:00:00 7.875 C 6.79 g/m*3 6.2 C 9.43333 km/h
3082 14-04-2014 06:00:00 8.43333 C 6.89 g/m*3 7.12 C 8.19167 km/h
3083 14-04-2014 07:00:00 8.60833 C 6.97 g/m*3 7.75 C 6.45 km/h
3084 14-04-2014 08:00:00 8.85 C 7.11 g/m*3 7.47 C 8.88333 km/h
3085 14-04-2014 09:00:00 9.825 C 7.05 g/m*3 8.68 C 8.6 km/h
3086 14-04-2014 10:00:00 10.49167 C 6.66 g/m*3 8.33 C 16.64167 km/h
3087 14-04-2014 11:00:00 9.94167 C 6.9 g/m*3 8.46 C 10.60833 km/h
3088 14-04-2014 12:00:00 11.4 C 6.34 g/m*3 11.4 C 16.36667 km/h
3089 14-04-2014 13:00:00 12.83333 C 6.07 g/m*3 12.83 C 17.03333 km/h
3090 14-04-2014 14:00:00 13.39167 C 5.99 g/m*3 13.39 C 21.58333 km/h
3091 14-04-2014 15:00:00 13.20833 C 5.96 g/m*3 13.21 C 22.8 km/h
3092 14-04-2014 16:00:00 12.89167 C 6.4 g/m*3 12.89 C 19.05 km/h
3093 14-04-2014 17:00:00 13.31667 C 6.05 g/m*3 13.32 C 18.63333 km/h
3094 14-04-2014 18:00:00 12.76667 C 5.76 g/m*3 12.77 C 18.76667 km/h
3095 14-04-2014 19:00:00 11.6 C 5.45 g/m*3 11.6 C 19.70833 km/h
3096 14-04-2014 20:00:00 7.96667 C 6.32 g/m*3 5.95 C 11.4 km/h
3097 14-04-2014 21:00:00 6.58889 C 6.34 g/m*3 5.32 C 6.78889 km/h
3098 14-04-2014 22:00:00 5.9 C 6.07 g/m*3 4.8 C 5.88333 km/h
3099 14-04-2014 23:00:00 5.6 C 6.15 g/m*3 5.6 C 2.26667 km/h
3100 15-04-2014 00:00:00 6.11667 C 6.18 g/m*3 5 C 6.03333 km/h
Sensor: Nr:Datum:Temp:Abs-Feuchte:Windchill:Wind:
Aussen-T/F 3101 15-04-2014 01:00:00 5.65833 C 5.95 g/m*3 4.38 C 6.30833 km/h
3102 15-04-2014 02:00:00 5.025 C 5.75 g/m*3 5.03 C 4.95 km/h
3103 15-04-2014 03:00:00 4.64444 C 5.72 g/m*3 4.64 C 1.95556 km/h
3104 15-04-2014 04:00:00 4.04167 C 5.62 g/m*3 4.04 C 2.8 km/h
3105 15-04-2014 05:00:00 3.91667 C 5.62 g/m*3 3.92 C 4.275 km/h
3106 15-04-2014 06:00:00 4.125 C 5.69 g/m*3 4.13 C 2.54167 km/h
3107 15-04-2014 07:00:00 4.01667 C 5.66 g/m*3 4.02 C 4.95833 km/h
3108 15-04-2014 08:00:00 4.9 C 5.84 g/m*3 2.62 C 9.65 km/h
3109 15-04-2014 09:00:00 6.175 C 6.01 g/m*3 3.76 C 11.56667 km/h
3110 15-04-2014 10:00:00 7.16667 C 5.82 g/m*3 5.03 C 11.16667 km/h
3111 15-04-2014 11:00:00 7.175 C 5.59 g/m*3 5.11 C 10.76667 km/h
3112 15-04-2014 12:00:00 7.99167 C 5.41 g/m*3 6.14 C 10.48333 km/h
3113 15-04-2014 13:00:00 9.2 C 5.31 g/m*3 7.66 C 10.08333 km/h
3114 15-04-2014 14:00:00 9.4 C 5.26 g/m*3 7.72 C 11.15833 km/h
3115 15-04-2014 15:00:00 9.44167 C 5.17 g/m*3 7.75 C 11.3 km/h
3116 15-04-2014 16:00:00 9.55833 C 5.22 g/m*3 8.34 C 8.73333 km/h
3117 15-04-2014 17:00:00 10.09167 C 5.21 g/m*3 8.28 C 13.03333 km/h
3118 15-04-2014 18:00:00 10.56667 C 5.87 g/m*3 9 C 12.01111 km/h
3119 15-04-2014 19:00:00 9.64167 C 7.02 g/m*3 9.32 C 5.09167 km/h
3120 15-04-2014 20:00:00 9.02 C 5.42 g/m*3 9.02 C 3.86 km/h
3121 16-04-2014 11:00:00 9.8 C 5.98 g/m*3 9.13 C 6.45 km/h
3122 16-04-2014 12:00:00 11.3 C 5.57 g/m*3 11.3 C 8.86667 km/h
3123 16-04-2014 13:00:00 13.9 C 5.52 g/m*3 13.9 C 9.54167 km/h
3124 16-04-2014 14:00:00 15.10833 C 5.45 g/m*3 15.11 C 10.21667 km/h
3125 16-04-2014 15:00:00 15.9 C 5.46 g/m*3 15.9 C 9.275 km/h
Sensor: Nr:Datum:Temp:Abs-Feuchte:Windchill:Wind:
Aussen-T/F 3126 16-04-2014 16:00:00 16.69167 C 5.29 g/m*3 16.69 C 9.80833 km/h
3127 16-04-2014 17:00:00 16.81667 C 5.26 g/m*3 16.82 C 11.16667 km/h
3128 16-04-2014 18:00:00 16.64167 C 5.16 g/m*3 16.64 C 9.00833 km/h
3129 16-04-2014 19:00:00 15.75 C 5.21 g/m*3 15.75 C 6.70833 km/h
3130 16-04-2014 20:00:00 11.13333 C 5.67 g/m*3 11.13 C 4 km/h
3131 16-04-2014 21:00:00 8.55 C 5.44 g/m*3 8.09 C 5.06667 km/h
3132 16-04-2014 22:00:00 7.675 C 5.45 g/m*3 7.68 C 4.66667 km/h
3133 16-04-2014 23:00:00 6.725 C 5.44 g/m*3 6.73 C 2.53333 km/h
3134 17-04-2014 00:00:00 5.65 C 5.33 g/m*3 5.65 C 0 km/h
3135 17-04-2014 01:00:00 4.85833 C 5.27 g/m*3 4.86 C 0 km/h
3136 17-04-2014 02:00:00 4.08333 C 5.17 g/m*3 4.08 C 0.4 km/h
3137 17-04-2014 03:00:00 3.4 C 5.24 g/m*3 3.4 C 0.4 km/h
3138 17-04-2014 04:00:00 2.60833 C 5.06 g/m*3 2.61 C 0 km/h
3139 17-04-2014 05:00:00 1.88333 C 4.92 g/m*3 1.88 C 0.13333 km/h
3140 17-04-2014 06:00:00 1.5 C 4.89 g/m*3 1.5 C 0 km/h
3141 17-04-2014 07:00:00 1.39167 C 4.9 g/m*3 1.39 C 0 km/h
3142 17-04-2014 08:00:00 2.10833 C 5.14 g/m*3 2.11 C 0 km/h
3143 17-04-2014 09:00:00 4.18333 C 5.6 g/m*3 4.18 C 0.26667 km/h
3144 17-04-2014 10:00:00 7.04167 C 6.11 g/m*3 7.04 C 0.53333 km/h
3145 17-04-2014 11:00:00 10.525 C 5.93 g/m*3 10.53 C 4.84167 km/h
3146 17-04-2014 12:00:00 13.66667 C 5.5 g/m*3 13.67 C 7.91667 km/h
3147 17-04-2014 13:00:00 15.53333 C 5.23 g/m*3 15.53 C 8.61667 km/h
3148 17-04-2014 14:00:00 16.15833 C 5.26 g/m*3 16.16 C 6.425 km/h
3149 17-04-2014 15:00:00 16.98333 C 5.41 g/m*3 16.98 C 6.15833 km/h
3150 17-04-2014 16:00:00 18.75833 C 5.48 g/m*3 18.76 C 10.2 km/h
Sensor: Nr:Datum:Temp:Abs-Feuchte:Windchill:Wind:
Aussen-T/F 3151 17-04-2014 17:00:00 19.475 C 5.21 g/m*3 19.48 C 9.825 km/h
3152 17-04-2014 18:00:00 19.54167 C 5.41 g/m*3 19.54 C 4.95833 km/h
3153 17-04-2014 19:00:00 16.58333 C 6.37 g/m*3 16.58 C 3.46667 km/h
3154 17-04-2014 20:00:00 12.6 C 6.32 g/m*3 12.6